[[{"header":{"parameterUnit":"m.s-1","parameterCategory":1,"la1":30.6,"la2":29.2853,"lo1":-89.7004,"lo2":-87.6739,"dy":0.0162,"dx":0.0183,"nx":112,"ny":82,"refTime":"2026-05-17T00:00:00:Z","depth":0,"parameterNumber":2,"parameterNumberName":"U-component_of_WINDS"},"data":[0.0,0.0,0.0,0.0,0.0,0.0,0.0,0.0,0.0,0.0,0.0,0.0,0.0,0.0,0.0,0.0,0.0,0.0,0.0,0.0,0.0,0.0,0.0,0.0,0.0,0.0,0.0,0.0,0.0,0.0,0.0,0.0,0.0,0.0,0.0,0.0,0.0,0.0,0.0,0.0,0.0,0.0,0.0,0.0,0.0,0.0,0.0,0.0,0.0,0.0,0.0,0.0,0.0,0.0,0.0,0.0,0.0,0.0,0.0,0.0,0.0,0.0,0.0,0.0,0.0,0.0,0.0,0.0,0.0,0.0,0.0,0.0,0.0,0.0,0.0,0.0,0.0,0.0,0.0,0.0,0.0,0.0,0.0,0.0,0.0,0.0,0.0,0.0,0.0,0.0,-1.3576,-1.5599,-1.867,-1.9891,-1.8154,-1.7997,-1.6513,-1.3014,0.0,0.0,0.0,0.0,0.0,0.0,0.0,0.0,0.0,0.0,0.0,0.0,0.0,0.0,0.0,0.0,0.0,0.0,0.0,0.0,0.0,0.0,0.0,0.0,0.0,0.0,0.0,0.0,0.0,0.0,0.0,0.0,0.0,0.0,0.0,0.0,0.0,0.0,0.0,0.0,0.0,0.0,0.0,0.0,0.0,0.0,0.0,0.0,0.0,0.0,0.0,0.0,0.0,0.0,0.0,0.0,0.0,0.0,0.0,0.0,0.0,0.0,0.0,0.0,0.0,0.0,0.0,0.0,0.0,0.0,0.0,0.0,0.0,0.0,0.0,0.0,0.0,0.0,0.0,0.0,0.0,0.0,0.0,0.0,0.0,0.0,0.0,0.0,0.0,0.0,0.0,0.0,0.0,0.0,0.0,0.0,0.0,0.0,0.0,0.0,0.0,0.0,0.0,0.0,-1.4031,-1.7253,-1.9396,-1.9891,-1.8154,-1.7997,-1.6513,-1.3014,0.0,0.0,0.0,0.0,0.0,0.0,0.0,0.0,0.0,0.0,0.0,0.0,0.0,0.0,0.0,0.0,0.0,0.0,0.0,0.0,0.0,0.0,0.0,0.0,0.0,0.0,0.0,0.0,0.0,0.0,0.0,0.0,0.0,0.0,0.0,0.0,0.0,0.0,0.0,0.0,0.0,0.0,0.0,0.0,0.0,0.0,0.0,0.0,0.0,0.0,0.0,0.0,0.0,0.0,0.0,0.0,0.0,0.0,0.0,0.0,0.0,0.0,0.0,0.0,0.0,0.0,0.0,0.0,0.0,0.0,0.0,0.0,0.0,0.0,0.0,0.0,0.0,0.0,0.0,0.0,0.0,0.0,0.0,0.0,0.0,0.0,0.0,0.0,0.0,0.0,0.0,0.0,0.0,0.0,0.0,0.0,0.0,0.0,0.0,0.0,0.0,0.0,0.0,-1.2874,-1.5009,-1.7069,-1.8423,-1.8681,-1.7392,-1.7294,-1.6005,-1.2994,-1.1606,0.0,0.0,0.0,0.0,0.0,0.0,0.0,0.0,0.0,0.0,0.0,0.0,0.0,0.0,0.0,0.0,0.0,0.0,0.0,0.0,0.0,0.0,0.0,0.0,0.0,0.0,0.0,0.0,0.0,0.0,0.0,0.0,0.0,0.0,0.0,0.0,0.0,0.0,0.0,0.0,0.0,0.0,0.0,0.0,0.0,0.0,0.0,0.0,0.0,0.0,0.0,0.0,0.0,0.0,0.0,0.0,0.0,0.0,0.0,0.0,0.0,0.0,0.0,0.0,0.0,0.0,0.0,0.0,0.0,0.0,0.0,0.0,0.0,0.0,0.0,0.0,0.0,0.0,0.0,0.0,0.0,0.0,0.0,0.0,0.0,0.0,0.0,0.0,0.0,0.0,0.0,0.0,0.0,0.0,0.0,0.0,0.0,0.0,0.0,0.0,0.0,0.0,-1.4511,-1.596,-1.6626,-1.7489,-1.7646,-1.6766,-1.6318,-1.4847,-1.1953,-1.0444,0.0,0.0,0.0,0.0,0.0,0.0,0.0,0.0,0.0,0.0,0.0,0.0,0.0,0.0,0.0,0.0,0.0,0.0,0.0,0.0,0.0,0.0,0.0,0.0,0.0,0.0,0.0,0.0,0.0,0.0,0.0,0.0,0.0,0.0,0.0,0.0,0.0,0.0,0.0,0.0,0.0,0.0,0.0,0.0,0.0,0.0,0.0,0.0,0.0,0.0,0.0,0.0,0.0,0.0,0.0,0.0,0.0,0.0,0.0,0.0,0.0,0.0,0.0,0.0,0.0,0.0,0.0,0.0,0.0,0.0,0.0,0.0,0.0,0.0,0.0,0.0,0.0,0.0,0.0,0.0,0.0,0.0,0.0,0.0,0.0,0.0,0.0,0.0,0.0,0.0,0.0,0.0,0.0,0.0,0.0,0.0,0.0,0.0,0.0,0.0,0.0,0.0,-1.5068,-1.6629,-1.6688,-1.7489,-1.7646,-1.6766,-1.5205,-1.2698,-0.8953,-0.8126,0.0,0.0,0.0,0.0,0.0,0.0,0.0,0.0,0.0,0.0,0.0,0.0,0.0,0.0,0.0,0.0,0.0,0.0,0.0,0.0,0.0,0.0,0.0,0.0,0.0,0.0,0.0,0.0,0.0,0.0,0.0,0.0,0.0,0.0,0.0,0.0,0.0,0.0,0.0,0.0,0.0,0.0,0.0,0.0,0.0,0.0,0.0,0.0,0.0,0.0,0.0,0.0,0.0,0.0,0.0,0.0,0.0,0.0,0.0,0.0,0.0,0.0,0.0,0.0,0.0,0.0,0.0,0.0,0.0,0.0,0.0,0.0,0.0,0.0,0.0,0.0,0.0,0.0,0.0,0.0,0.0,0.0,0.0,0.0,0.0,0.0,0.0,0.0,0.0,0.0,0.0,0.0,0.0,0.0,0.0,0.0,0.0,0.0,0.0,0.0,0.0,0.0,-1.4641,-1.5889,0.0,-1.6183,-1.6241,-1.5928,-1.4796,-1.2461,-0.8649,0.0,0.0,0.0,0.0,0.0,0.0,0.0,0.0,0.0,0.0,0.0,0.0,0.0,0.0,0.0,0.0,0.0,0.0,0.0,0.0,0.0,0.0,0.0,0.0,0.0,0.0,0.0,0.0,0.0,0.0,0.0,0.0,0.0,0.0,0.0,0.0,0.0,0.0,0.0,0.0,0.0,0.0,0.0,0.0,0.0,0.0,0.0,0.0,0.0,0.0,0.0,0.0,0.0,0.0,0.0,0.0,0.0,0.0,0.0,0.0,0.0,0.0,0.0,0.0,0.0,0.0,0.0,0.0,0.0,0.0,0.0,0.0,0.0,0.0,0.0,0.0,0.0,0.0,0.0,0.0,0.0,0.0,0.0,0.0,0.0,0.0,0.0,0.0,0.0,0.0,0.0,0.0,0.0,0.0,0.0,0.0,0.0,0.0,0.0,0.0,0.0,0.0,-1.2669,-1.4368,-1.5402,0.0,-1.5402,-1.5402,-1.5402,-1.4113,-1.1539,-0.7389,0.0,0.0,0.0,0.0,0.0,0.0,0.0,0.0,0.0,0.0,0.0,0.0,0.0,0.0,0.0,0.0,0.0,0.0,0.0,0.0,0.0,0.0,0.0,0.0,0.0,0.0,0.0,0.0,0.0,0.0,0.0,0.0,0.0,0.0,0.0,0.0,0.0,0.0,0.0,0.0,0.0,0.0,0.0,0.0,0.0,0.0,0.0,0.0,0.0,0.0,0.0,0.0,0.0,0.0,0.0,0.0,0.0,0.0,0.0,0.0,0.0,0.0,0.0,0.0,0.0,0.0,0.0,0.0,0.0,0.0,0.0,0.0,0.0,0.0,0.0,0.0,0.0,0.0,0.0,0.0,0.0,0.0,0.0,0.0,0.0,0.0,0.0,0.0,0.0,0.0,0.0,0.0,0.0,0.0,0.0,0.0,0.0,0.0,0.0,0.0,0.0,0.0,-1.2669,-1.4348,-1.5382,-1.5402,-1.5402,-1.5402,-1.5402,-1.3078,-0.9567,0.0,0.0,0.0,0.0,0.0,0.0,0.0,0.0,0.0,0.0,0.0,0.0,0.0,0.0,0.0,0.0,0.0,0.0,0.0,0.0,0.0,0.0,0.0,0.0,0.0,0.0,0.0,0.0,0.0,0.0,0.0,0.0,0.0,0.0,0.0,0.0,0.0,0.0,0.0,0.0,0.0,0.0,0.0,0.0,0.0,0.0,0.0,0.0,0.0,0.0,0.0,0.0,0.0,0.0,0.0,0.0,0.0,0.0,0.0,0.0,0.0,0.0,0.0,0.0,0.0,0.0,0.0,0.0,0.0,0.0,0.0,0.0,0.0,0.0,0.0,0.0,0.0,0.0,0.0,0.0,0.0,0.0,0.0,0.0,0.0,0.0,0.0,0.0,0.0,0.0,0.0,0.0,0.0,0.0,0.0,0.0,0.0,0.0,0.0,0.0,0.0,0.0,0.0,-1.2571,-1.3821,-1.4718,-1.5324,-1.5402,-1.5402,-1.5402,-1.3626,-1.0996,-0.7436,0.0,0.0,0.0,0.0,0.0,0.0,0.0,0.0,0.0,0.0,0.0,0.0,0.0,0.0,0.0,0.0,0.0,0.0,0.0,0.0,0.0,0.0,0.0,0.0,0.0,0.0,0.0,0.0,0.0,0.0,0.0,0.0,0.0,0.0,0.0,0.0,0.0,0.0,0.0,0.0,0.0,0.0,0.0,0.0,0.0,0.0,0.0,0.0,0.0,0.0,0.0,0.0,0.0,0.0,0.0,0.0,0.0,0.0,0.0,0.0,0.0,0.0,0.0,0.0,0.0,0.0,0.0,0.0,0.0,0.0,0.0,0.0,0.0,0.0,0.0,0.0,0.0,0.0,0.0,0.0,0.0,0.0,0.0,0.0,0.0,0.0,0.0,0.0,0.0,0.0,0.0,0.0,0.0,0.0,0.0,0.0,0.0,0.0,0.0,0.0,0.0,0.0,-1.2571,-1.3605,-1.4425,-1.5304,-1.5402,-1.5402,-1.5403,-1.3842,-1.1636,-0.8784,0.0,0.0,0.0,0.0,0.0,0.0,0.0,0.0,0.0,0.0,0.0,0.0,0.0,0.0,0.0,0.0,0.0,0.0,0.0,0.0,0.0,0.0,0.0,0.0,0.0,0.0,0.0,0.0,0.0,0.0,0.0,0.0,0.0,0.0,0.0,0.0,0.0,0.0,0.0,0.0,0.0,0.0,0.0,0.0,0.0,0.0,0.0,0.0,0.0,0.0,0.0,0.0,0.0,0.0,0.0,0.0,0.0,0.0,0.0,0.0,0.0,0.0,0.0,0.0,0.0,0.0,0.0,0.0,0.0,0.0,0.0,0.0,0.0,0.0,0.0,0.0,0.0,0.0,0.0,0.0,0.0,0.0,0.0,0.0,0.0,0.0,0.0,0.0,0.0,0.0,0.0,0.0,0.0,0.0,0.0,0.0,0.0,0.0,0.0,0.0,0.0,0.0,-1.2689,-1.3547,-1.4348,-1.5305,-1.5402,-1.5403,-1.5406,-1.3806,-1.1789,-0.941,0.0,0.0,0.0,0.0,0.0,0.0,0.0,0.0,0.0,0.0,0.0,0.0,0.0,0.0,0.0,0.0,0.0,0.0,0.0,0.0,0.0,0.0,0.0,0.0,0.0,0.0,0.0,0.0,0.0,0.0,0.0,0.0,0.0,0.0,0.0,0.0,0.0,0.0,0.0,0.0,0.0,0.0,0.0,0.0,0.0,0.0,0.0,0.0,0.0,0.0,0.0,0.0,0.0,0.0,0.0,0.0,0.0,0.0,0.0,0.0,-0.558,0.0,0.0,0.0,0.0,0.0,0.0,0.0,0.0,0.0,0.0,0.0,0.0,0.0,0.0,0.0,0.0,0.0,0.0,0.0,0.0,0.0,0.0,0.0,0.0,0.0,0.0,0.0,0.0,0.0,0.0,0.0,0.0,0.0,0.0,0.0,0.0,0.0,0.0,0.0,0.0,0.0,-1.2672,-1.3044,-1.3727,-1.5231,-1.5406,-1.5408,-1.539,-1.3847,-1.2616,-1.2009,-1.0911,0.0,0.0,0.0,0.0,0.0,0.0,0.0,0.0,0.0,0.0,0.0,0.0,0.0,0.0,0.0,0.0,0.0,0.0,0.0,0.0,0.0,0.0,0.0,0.0,0.0,0.0,0.0,0.0,0.0,0.0,0.0,0.0,0.0,0.0,0.0,0.0,0.0,0.0,0.0,0.0,0.0,0.0,0.0,0.0,0.0,0.0,0.0,0.0,0.0,0.0,0.0,0.0,0.0,0.0,0.0,0.0,0.0,0.0,0.0,0.0,-0.7807,0.0,0.0,0.0,0.0,0.0,0.0,0.0,0.0,0.0,0.0,0.0,0.0,0.0,0.0,0.0,0.0,0.0,0.0,0.0,0.0,0.0,0.0,0.0,0.0,0.0,0.0,0.0,0.0,0.0,0.0,0.0,0.0,0.0,0.0,0.0,0.0,0.0,0.0,0.0,0.0,-1.2734,-1.3223,-1.3965,-1.5254,-1.5391,-1.5391,-1.5409,-1.3826,-1.2848,-1.2805,-1.1222,0.0,0.0,0.0,0.0,0.0,0.0,0.0,0.0,0.0,0.0,0.0,0.0,0.0,0.0,0.0,0.0,0.0,0.0,0.0,0.0,0.0,0.0,0.0,0.0,0.0,0.0,0.0,0.0,0.0,0.0,0.0,0.0,0.0,0.0,0.0,0.0,0.0,0.0,0.0,0.0,0.0,0.0,0.0,0.0,0.0,0.0,0.0,0.0,0.0,0.0,0.0,0.0,0.0,0.0,-1.1885,-1.1978,-1.4808,-1.6096,-1.5923,-1.3096,-1.3135,-1.4984,0.0,0.0,0.0,0.0,0.0,0.0,0.0,0.0,0.0,0.0,0.0,0.0,0.0,0.0,0.0,0.0,0.0,0.0,0.0,0.0,0.0,0.0,0.0,0.0,0.0,-1.1432,-1.0114,0.0,0.0,0.0,0.0,0.0,0.0,0.0,0.0,0.0,0.0,0.0,0.0,-1.2558,-1.3474,-1.4428,-1.5308,-1.5405,-1.5404,-1.5401,-1.3661,-1.2644,-1.2798,-1.1074,-0.9271,0.0,0.0,0.0,0.0,0.0,0.0,0.0,0.0,0.0,0.0,0.0,0.0,0.0,0.0,0.0,0.0,0.0,0.0,0.0,0.0,0.0,0.0,0.0,0.0,0.0,0.0,0.0,0.0,0.0,0.0,0.0,0.0,-0.9631,-1.2529,0.0,0.0,0.0,0.0,0.0,0.0,0.0,0.0,0.0,0.0,0.0,0.0,0.0,0.0,-1.5192,-1.5192,-1.6692,-1.9615,-1.9173,-1.8962,-1.8962,-1.9423,-1.9635,-1.9596,-1.9154,0.0,-1.5173,-1.4717,0.0,0.0,0.0,0.0,0.0,0.0,0.0,0.0,0.0,0.0,0.0,0.0,0.0,0.0,0.0,0.0,0.0,0.0,0.0,0.0,0.0,0.0,-1.457,-1.3835,-1.3039,-1.229,0.0,-0.9872,-0.7731,-0.5823,0.0,0.0,0.0,0.0,0.0,0.0,0.0,0.0,-1.1576,-1.3093,-1.4434,-1.5314,-1.5392,-1.5409,-1.5398,-1.31,-1.1987,-1.2754,-1.0515,-0.905,-0.8762,-0.8067,0.0,0.0,0.0,0.0,0.0,0.0,0.0,0.0,0.0,0.0,0.0,0.0,0.0,0.0,0.0,0.0,0.0,0.0,0.0,0.0,0.0,0.0,0.0,0.0,0.0,0.0,0.0,0.0,0.0,-0.8107,-1.0888,-1.4126,-1.3269,-1.2407,0.0,0.0,0.0,0.0,0.0,0.0,0.0,0.0,0.0,-1.5151,-1.7058,-1.8077,-1.8077,-1.8077,-1.8827,-2.0308,-2.0308,-2.0308,-2.0308,-2.0308,-2.0308,-2.0308,-2.0308,-1.9442,-1.7923,-1.6,-1.5229,-1.5105,0.0,0.0,0.0,0.0,0.0,-1.3017,-1.3049,0.0,0.0,0.0,0.0,0.0,0.0,0.0,0.0,0.0,0.0,0.0,0.0,0.0,0.0,-1.4214,-1.3709,-1.3303,-1.2802,-1.1751,-1.0442,0.0,-0.8498,-0.7451,-0.4384,0.0,0.0,0.0,0.0,-1.2354,-1.2896,-1.4019,-1.4754,-1.4682,-1.4663,-1.4466,-1.3971,-1.199,-1.0938,-1.13,-0.9862,-0.9005,-0.9002,-0.8731,-0.8395,0.0,0.0,0.0,0.0,0.0,0.0,0.0,0.0,0.0,0.0,0.0,0.0,0.0,0.0,0.0,0.0,0.0,0.0,0.0,0.0,0.0,0.0,0.0,0.0,0.0,0.0,0.0,0.0,-1.0415,-1.1824,-1.4218,-1.4493,-1.4493,0.0,0.0,0.0,0.0,0.0,0.0,-1.5894,-1.6125,-1.6303,-1.6441,-1.8928,-2.0269,-2.0308,-2.0308,-2.0308,-2.0308,-2.0308,-2.0308,-2.0308,-2.0308,-2.0308,-2.0308,-2.0308,-2.0308,-2.0096,-1.7558,-1.65,-1.6429,-1.5592,-1.5272,-1.5303,-1.5289,-1.5234,-1.5217,-1.5269,-1.5294,-1.5306,-1.5306,0.0,-1.4009,-1.4009,0.0,0.0,0.0,0.0,-1.2435,-1.3441,0.0,-1.5362,-1.4252,-1.3825,-1.3496,-1.2841,-1.2531,-1.2082,0.0,-1.1887,-1.1637,-0.8,0.0,0.0,0.0,0.0,-1.3236,-1.3718,-1.4471,-1.474,-1.4141,-1.389,-1.3501,-1.2859,-1.0994,-1.0063,-1.0508,-0.9364,-0.8857,-0.9283,-0.9256,-0.9546,-1.0189,0.0,0.0,0.0,0.0,0.0,0.0,0.0,0.0,0.0,0.0,0.0,0.0,0.0,0.0,0.0,0.0,0.0,0.0,0.0,0.0,0.0,0.0,0.0,0.0,0.0,0.0,0.0,0.0,0.0,-1.4475,-1.4493,0.0,0.0,0.0,0.0,-1.4255,-1.4407,-1.5845,-1.8908,-1.9386,-1.9643,-1.9845,-2.0021,-2.0162,-2.0308,-2.0308,-2.0308,-2.0308,-2.0308,-2.0308,-2.0308,-2.0308,-2.0308,-2.0308,-2.0308,-2.0308,-2.0288,-2.0115,-2.0038,-1.9712,-1.6465,-1.5237,-1.5299,-1.5221,-1.5195,-1.5192,-1.5195,-1.5259,-1.5306,-1.5306,-1.31,-1.0468,-1.0468,-1.2597,0.0,0.0,-1.5649,-1.6321,-1.6384,-1.6464,-1.6114,-1.4407,-1.3361,-1.2744,-1.2705,-1.2108,-1.1522,0.0,-1.1084,-1.0654,-1.0092,0.0,-0.8667,-1.0141,-1.1075,-1.1912,-1.2756,-1.3572,-1.4058,-1.4,-1.3325,-1.2843,-1.2805,-1.0434,-0.9675,-1.1324,-0.9116,-0.8475,-1.0076,-1.0135,-1.0154,-1.0193,-0.8893,0.0,0.0,0.0,0.0,0.0,0.0,0.0,0.0,0.0,0.0,0.0,0.0,0.0,0.0,0.0,0.0,0.0,0.0,0.0,0.0,0.0,0.0,0.0,0.0,0.0,0.0,0.0,0.0,-1.7344,-1.7582,0.0,-1.7582,-1.7582,-1.7582,-1.7582,-1.7582,-1.8085,-1.9242,-1.9621,-1.9902,-2.0084,-2.0093,-2.0158,-2.0308,-2.0308,-2.0308,-2.0308,-2.0308,-2.0308,-2.0308,-2.0308,-2.0308,-2.0308,-2.0308,-2.0308,-2.0308,-2.0308,-2.0308,-2.0173,-1.8962,-1.8495,-1.8515,-1.8491,-1.8481,-1.8481,-1.8481,-1.8498,-1.8519,-1.8519,-1.7718,-1.6766,-1.6766,-1.762,-1.8587,-1.8587,-1.7755,-1.6829,-1.6636,-1.66,-1.6152,-1.4407,-1.3322,-1.2396,-1.1316,-1.0873,-1.0659,-1.0633,-1.1356,-1.1941,-1.1822,-1.0975,-1.0658,-1.1663,-1.1636,-1.2006,-1.3392,-1.3336,-1.3164,-1.3164,-1.2432,-1.1736,-1.1176,-0.9235,-0.8322,-0.8944,-0.7648,-0.7357,-0.8475,-0.9074,-0.9636,-1.0183,-0.9795,-0.805,0.0,0.0,0.0,0.0,0.0,0.0,0.0,0.0,0.0,0.0,0.0,0.0,0.0,0.0,0.0,0.0,0.0,0.0,0.0,0.0,0.0,0.0,0.0,0.0,0.0,0.0,-1.7234,-2.0438,-2.0821,-2.0856,-2.0941,-2.0949,-2.0949,-2.0949,-2.0949,-2.0949,-2.0949,-2.1272,-2.1563,-2.1812,-2.1817,-2.1866,-2.1952,-2.1952,-2.1952,-2.1952,-2.1952,-2.197,-2.1981,-2.1981,-2.1981,-2.1923,-2.0788,-2.0308,-2.0308,-2.0308,-1.9615,-1.8577,-1.8577,-1.8577,-1.8712,-1.9865,-2.0308,-2.0308,-2.0308,-2.0308,-2.0308,-2.0308,-2.0327,-2.0369,-2.0392,-2.0402,-2.0399,-2.037,-1.9287,-1.7937,-1.7203,-1.701,-1.6507,-1.4477,-1.3569,-1.2682,-1.1007,-1.0641,-1.0544,-1.0255,-1.1336,-1.2301,-1.2301,-1.1856,-1.1761,-1.2589,-1.2011,-1.1991,-1.338,-1.2821,-1.2301,-1.2301,-1.1548,-1.0834,-1.0255,-0.8605,-0.7732,-0.8022,-0.6999,-0.6768,-0.7558,-0.8445,-0.9028,-0.9324,-0.9516,-0.8368,-0.5806,0.0,0.0,0.0,0.0,0.0,0.0,0.0,0.0,0.0,0.0,0.0,0.0,0.0,0.0,0.0,0.0,0.0,0.0,0.0,0.0,0.0,0.0,0.0,-1.9095,-1.9186,-2.0382,-2.3443,-2.3806,-2.3907,-2.417,-2.419,-2.419,-2.419,-2.419,-2.419,-2.419,-2.4513,-2.4849,-2.5168,-2.518,-2.518,-2.518,-2.5185,-2.5205,-2.5191,-2.5191,-2.5248,-2.5308,-2.5308,-2.5308,-2.5115,-2.1865,-2.0404,-2.0308,-2.0304,-1.8285,-1.5209,-1.5192,-1.5192,-1.5596,-1.8923,-2.0135,-2.0135,-2.0135,-2.0135,-2.0135,-2.0135,-2.0135,-2.015,-2.0225,-2.0244,-2.0218,-2.0169,-2.0224,-1.9922,-1.8255,-1.7808,-1.7155,-1.4637,-1.4022,-1.3543,-1.1854,-1.149,-1.1241,-1.0372,-1.0873,-1.1452,-1.1452,-1.1452,-1.1723,-1.2492,-1.1953,0.0,-1.255,-1.1953,-1.1471,-1.149,-1.0718,-1.0197,-1.0197,-0.8625,-0.7983,-0.8813,-0.7309,-0.6749,-0.7538,-0.8369,-0.8447,-0.7616,-0.815,-0.648,-0.2494,0.0,0.0,0.0,0.0,0.0,0.0,0.0,0.0,0.0,0.0,0.0,0.0,0.0,0.0,0.0,0.0,0.0,0.0,0.0,0.0,0.0,-1.8507,-1.9095,-1.9095,-2.107,-2.2827,-2.3697,-2.3806,-2.3907,-2.417,-2.419,-2.419,-2.419,-2.419,-2.419,-2.419,-2.4438,-2.4629,-2.4834,-2.4842,-2.4842,-2.4842,-2.4972,-2.5095,-2.5191,-2.5191,-2.5248,-2.5308,-2.5308,-2.5308,-2.525,-2.4327,-2.2558,-2.0285,-2.0199,-1.8163,-1.5127,-1.5174,-1.5192,-1.5308,-1.6269,-1.6596,-1.6596,-1.6596,-1.6596,-1.6596,-1.6596,-1.6596,-1.6599,-1.6621,-1.6627,-1.6627,-1.6618,-1.8386,-2.0007,-1.8702,-1.8095,-1.7307,-1.5341,-1.4422,-1.3522,-1.1806,-1.1466,-1.1241,-1.0372,-1.0391,-1.0563,-1.0563,-1.0563,-1.0622,-1.0854,-1.0699,0.0,-1.1723,-1.1086,-1.0796,-1.1432,-1.0718,-1.0197,-1.0197,-0.9186,-0.8368,-0.7983,-0.698,-0.6499,-0.673,-0.6961,-0.7251,-0.7596,-0.7381,-0.7107,0.0,0.0,0.0,0.0,0.0,0.0,0.0,0.0,0.0,0.0,0.0,0.0,0.0,0.0,0.0,0.0,0.0,0.0,0.0,0.0,0.0,0.0,-2.107,-2.107,-2.107,-2.2646,-2.3806,-2.3806,-2.3806,-2.3907,-2.417,-2.419,-2.419,-2.419,-2.419,-2.419,-2.419,-2.4312,-2.4402,-2.4488,-2.4488,-2.4488,-2.4488,-2.4757,-2.4979,-2.5191,-2.5191,-2.5248,-2.5308,-2.5308,-2.5308,0.0,-2.5308,-2.3404,-2.0281,-2.0153,-1.8869,0.0,0.0,0.0,0.0,0.0,-1.5192,-1.5192,-1.5192,-1.5192,-1.5192,-1.5192,-1.5192,-1.5192,-1.5192,-1.5192,-1.5192,-1.5192,-1.6635,-1.8234,-1.8525,-1.7937,-1.6903,-1.5521,-1.4835,-1.4029,-1.2316,-1.1976,-1.1652,-1.0436,0.0,0.0,-1.0206,-1.0193,-1.0197,-1.0197,-1.0197,-1.0372,0.0,-1.0505,-1.0391,-1.0892,-1.0507,-1.0197,-1.0197,-0.9397,0.0,0.0,0.0,-0.6903,-0.6903,-0.6228,0.0,0.0,0.0,0.0,0.0,0.0,0.0,0.0,-0.5834,-0.7159,0.0,0.0,0.0,0.0,0.0,0.0,0.0,0.0,0.0,0.0,0.0,0.0,0.0,0.0,0.0,0.0,-2.3806,-2.3806,-2.3806,-2.3806,-2.3806,-2.3806,-2.3806,-2.3907,-2.417,-2.419,-2.419,-2.419,-2.419,-2.419,-2.419,0.0,0.0,0.0,0.0,-2.419,-2.419,-2.453,-2.487,-2.5191,-2.5191,-2.5248,-2.5308,-2.5293,-2.5283,-2.5229,-2.48,-2.2964,-2.0252,-2.0108,-1.9858,-1.9564,-1.9411,-1.7566,-1.5022,-1.5143,-1.5189,0.0,0.0,0.0,0.0,-1.518,-1.5183,-1.5189,-1.5192,-1.5192,-1.5189,-1.5183,-1.5186,-1.5673,-1.7689,-1.7365,-1.6279,-1.5411,-1.5204,-1.4744,-1.3055,-1.2693,-1.2192,-1.0512,-1.0184,-1.0184,-1.0184,-1.0182,-1.0194,-1.0194,-1.0194,0.0,-1.0194,-1.0194,-1.0194,-1.0194,0.0,0.0,-1.0194,-0.9492,-0.9004,-0.8908,-0.8077,-0.7594,-0.7594,-0.607,-0.5609,-0.6381,-0.5542,-0.4962,-0.468,-0.5061,-0.5901,-0.7118,-0.6968,-0.7554,0.0,0.0,0.0,0.0,0.0,0.0,0.0,0.0,0.0,0.0,0.0,0.0,0.0,0.0,0.0,-2.3268,-2.3806,-2.3806,-2.3806,-2.3806,-2.3806,-2.3806,-2.3806,-2.3907,-2.417,-2.419,-2.419,-2.419,-2.419,-2.419,-2.419,-2.419,0.0,-2.419,-2.419,-2.419,-2.419,-2.453,-2.487,-2.5191,0.0,0.0,-2.5303,-2.5245,-2.5168,-2.4898,-2.1795,-2.0308,-2.0041,-1.9795,-1.9626,-1.9392,-1.8143,-1.657,-1.5011,-1.5088,-1.5155,-1.5192,-1.5192,-1.5159,-1.5113,-1.5113,-1.5117,-1.5127,-1.5186,-1.5192,0.0,-1.513,-1.5153,-1.5302,-1.5744,-1.618,-1.6275,-1.541,-1.5193,-1.4742,-1.3056,-1.2695,-1.2198,-1.0452,-1.0121,-1.0121,-1.0121,-1.0159,-1.0194,-1.0194,-1.0194,-1.0194,-1.0194,-1.0194,-1.0194,-1.0194,-1.0194,-1.0194,-1.0194,-1.0057,-0.965,-0.8936,-0.8079,-0.7591,-0.7591,-0.6616,-0.6138,-0.6311,-0.5519,-0.572,-0.697,-0.6405,-0.697,-0.8498,-0.7833,-0.8359,0.0,0.0,0.0,0.0,0.0,0.0,0.0,0.0,0.0,0.0,0.0,-1.6735,-2.0471,0.0,-2.171,-2.3386,-2.3721,-2.3806,-2.3806,-2.3806,-2.3806,-2.3806,-2.3806,-2.3847,-2.3986,-2.3996,-2.4064,-2.418,-2.419,-2.419,-2.419,-2.419,-2.419,-2.419,-2.419,-2.419,-2.419,-2.453,-2.487,-2.5191,-2.5191,-2.522,-2.5245,-2.5038,-2.482,-2.4404,-2.0839,-1.9431,-1.9642,-1.9532,-1.9501,-1.9341,-1.7764,-1.6742,-1.6064,-1.5281,-1.5033,-1.5099,-1.5052,-1.5038,-1.5003,-1.5003,-1.5,-1.5004,-1.5038,-1.5041,-1.5041,-1.5041,-1.5073,-1.5107,-1.5143,-1.5498,-1.5734,-1.5308,-1.5201,-1.4726,-1.3022,-1.2644,-1.2132,-1.0387,-1.0041,-1.0047,-1.0047,-1.0077,-1.0102,-1.0146,-1.0152,-1.0152,-1.0152,-1.0152,-1.0152,-1.0152,-1.0152,-1.0152,-1.0152,-1.0157,-0.997,-0.957,-0.8736,-0.8249,-0.8249,-0.7,-0.6308,-0.6308,-0.5518,-0.5711,-0.6945,-0.6545,-0.7226,-0.889,-0.848,-0.8742,0.0,0.0,0.0,0.0,0.0,0.0,0.0,-1.5796,-1.7652,-1.8216,-1.8511,-1.9664,-2.291,-2.4005,-2.4219,-2.3594,-2.3638,-2.3771,-2.3795,-2.3806,-2.3806,-2.3806,-2.3806,-2.3806,-2.3806,-2.3806,-2.3907,-2.418,-2.4737,-2.5055,-2.5055,-2.4509,-2.419,-2.419,-2.419,-2.419,-2.419,-2.4479,-2.4772,-2.5095,-2.5095,-2.5095,-2.5088,-2.4798,-2.4488,-2.4025,-2.0729,-1.9297,-1.9305,-1.9368,-1.9431,-1.9338,-1.7874,-1.738,-1.7255,-1.5513,-1.4915,-1.4948,-1.4894,-1.4872,-1.4872,-1.4872,-1.4895,-1.49,-1.4872,-1.4872,-1.4889,-1.496,-1.4981,-1.5015,-1.5091,-1.5137,-1.5183,-1.5183,-1.5183,-1.47,-1.2977,-1.2583,-1.2074,-1.0346,-0.9984,-0.9976,-0.9976,-0.9976,-1.0009,-1.0078,-1.0089,-1.0089,-1.0089,-1.0089,-1.0089,-1.0089,-1.0089,-1.0074,-1.0082,-1.0094,-1.0127,-1.018,-0.9525,-0.9139,-0.9139,-0.7634,-0.6804,-0.6804,-0.5996,-0.5996,-0.6804,-0.6806,-0.7602,-0.9135,-0.9137,-0.9159,-1.7006,-1.7006,-1.7619,-2.0188,-1.8912,-1.7006,0.0,-1.7254,-1.8232,-2.0801,-2.1577,-2.2145,-2.3295,-2.5788,-2.6769,-2.3951,-2.3528,-2.3611,-2.3774,-2.3806,-2.3806,-2.3806,-2.3806,-2.3806,-2.3806,-2.3806,-2.3907,-2.418,-2.6631,-2.8112,-2.8112,-2.5625,-2.419,-2.419,-2.419,-2.419,-2.419,-2.4303,-2.4469,-2.4761,-2.4761,-2.4761,-2.4753,-2.4599,-2.4393,-2.4025,-2.0729,-1.9297,-1.9305,-1.9368,-1.9402,-1.9321,-1.8435,-1.8093,-1.7824,-1.563,-1.4827,-1.4822,-1.4817,-1.4813,-1.4813,-1.4813,-1.4854,-1.4895,-1.4822,-1.4813,-1.4836,-1.4886,-1.4951,-1.5019,-1.5087,-1.5101,-1.5117,-1.5117,-1.5117,-1.4651,-1.2968,-1.254,-1.2017,-1.0326,-0.9954,-0.9918,-0.9918,-0.9918,-0.9935,-0.9998,-1.0003,-1.0003,-1.0003,-1.0003,-1.0003,-1.0003,-1.0003,-1.0008,-1.002,-1.0076,-1.0093,-1.0117,-1.0021,-0.9963,-0.9963,-0.9096,-0.8614,-0.8614,-0.7756,-0.7737,-0.8614,-0.8606,-0.9073,-0.9961,-1.0031,-1.0045,-1.8501,-1.8733,-1.923,-2.1282,-2.0901,-2.0006,-2.0006,-2.0006,-2.0337,-2.1547,-2.2063,-2.2446,-2.2927,-2.5715,-2.6941,-2.3969,-2.3505,-2.3578,-2.3764,-2.3806,-2.3806,-2.3806,-2.3806,-2.3806,-2.3806,-2.3806,-2.3855,-2.3966,-2.6848,-2.8183,-2.7242,-2.6114,-2.5092,-2.4226,-2.419,-2.419,-2.419,-2.4228,-2.4294,-2.442,-2.442,-2.442,-2.4411,-2.4358,-2.3234,-2.128,-1.9903,-1.9297,-1.9297,-1.9338,-1.9353,-1.9324,-1.851,-1.8193,-1.7969,-1.6086,-1.5381,-1.5317,-1.4885,-1.4746,-1.4746,-1.4746,-1.4755,-1.4784,-1.4751,-1.4746,-1.4755,-1.4818,-1.4859,-1.4907,-1.4967,-1.4977,-1.4977,-1.4977,-1.4977,-1.4512,-1.2848,-1.2451,-1.1944,-1.026,-0.9879,-0.985,-0.985,-0.985,-0.9853,-0.9872,-0.9922,-0.9935,-0.9935,-0.9935,-0.9935,-0.9935,-0.9984,-0.9993,-1.0006,-1.0025,-1.0065,-1.0091,-1.0093,-1.0097,-1.0103,-0.9293,-0.8853,-0.89,-0.8043,-0.8024,-0.89,-0.8906,-0.9315,-1.0092,-1.0136,-1.0166,-1.9118,-1.9614,-2.0141,-2.1466,-2.2111,-2.2294,-2.1895,-2.1812,-2.1812,-2.1812,-2.1991,-2.222,-2.2429,-2.4516,-2.5617,-2.3792,-2.3505,-2.3578,-2.3764,-2.3806,-2.3806,-2.3806,-2.3806,-2.3806,-2.3806,-2.3806,-2.3806,-2.3806,-2.6228,-2.7206,-2.6029,-2.6023,-2.5546,-2.4488,-2.4251,-2.4133,-2.4133,-2.4161,-2.418,-2.419,-2.419,-2.419,-2.419,-2.419,-2.2418,-1.9297,-1.9297,-1.9297,-1.9297,-1.9297,-1.9331,-1.9309,-1.8732,-1.8496,-1.834,-1.6971,-1.6183,-1.5688,-1.4926,-1.4677,-1.4706,-1.4706,-1.4706,-1.4706,-1.4706,-1.4706,-1.4717,-1.4754,-1.4789,-1.4818,-1.485,-1.4898,-1.4898,-1.4898,-1.4898,-1.444,-1.2768,-1.2392,-1.1881,-1.0203,-0.9839,-0.9804,-0.9804,-0.9804,-0.9804,-0.9804,-0.9846,-0.9872,-0.9872,-0.9872,-0.9872,-0.9872,-0.9916,-0.9951,-0.9976,-0.9976,-0.9996,-1.0068,-1.0075,-1.0067,-1.0065,-0.949,-0.9172,-0.9227,-0.8619,-0.8599,-0.9227,-0.9227,-0.9521,-1.0108,-1.0108,-1.0131,-1.8833,-1.9624,-2.0602,-2.1564,-2.2874,-2.3553,-2.2144,-2.1812,-2.1812,-2.1812,-2.1812,-2.1827,-2.1827,-2.219,-2.2699,-2.3389,-2.3505,-2.3578,-2.3764,-2.3806,-2.3806,-2.3806,-2.3806,-2.3806,-2.3806,-2.3806,-2.3806,-2.3806,-2.4853,-2.5486,-2.5432,-2.5245,-2.5114,-2.5059,-2.4377,-2.4006,-2.4006,-2.4074,-2.4141,-2.419,-2.419,-2.419,-2.419,-2.419,-2.2418,-1.9297,-1.9297,-1.9297,-1.9297,-1.9297,-1.9297,-1.9297,-1.9279,-1.926,-1.9176,-1.8408,-1.7137,-1.5682,-1.4886,-1.4648,-1.4706,-1.4706,-1.4706,-1.4706,-1.4706,-1.4706,-1.4693,-1.4697,-1.476,-1.4794,-1.4794,-1.4845,-1.4904,-1.4904,-1.4904,-1.4443,-1.2753,-1.2354,-1.1817,-1.0125,-0.98,-0.9804,-0.9804,-0.9804,-0.9804,-0.9804,-0.9804,-0.9808,-0.9808,-0.9808,-0.9808,-0.9808,-0.9805,-0.9825,-0.9906,-0.9906,-0.9932,-1.0006,-0.9997,-1.0008,-0.9996,-1.0031,-1.0051,-1.0056,-1.0037,-1.0037,-1.0056,-1.0056,-1.0075,-1.0096,-1.0096,-1.0096,-2.039,-2.1066,-2.1647,-2.294,-2.3636,-2.3735,-2.2742,-2.216,-2.1812,-2.1812,-2.1812,-2.1812,-2.1812,-2.1886,-2.2189,-2.285,-2.3132,-2.4045,-2.6394,-2.6718,-2.6718,-2.6718,-2.5577,-2.4793,-2.4793,-2.418,0.0,-2.3806,-2.4791,-2.5088,-2.4375,-2.4827,-2.486,-2.4314,-2.4121,-2.3996,-2.3996,-2.4074,-2.4103,-2.4123,-2.418,-2.419,-2.419,-2.419,-2.2418,-1.9297,-1.9297,-1.9297,-1.9297,-1.9297,-1.9297,-1.9297,-1.9297,-1.9297,-1.9205,-1.8416,-1.7819,-1.7197,-1.5857,-1.5407,-1.5345,-1.4801,-1.4622,-1.4622,-1.4622,-1.4622,-1.4622,-1.4638,-1.4654,-1.4669,-1.4674,-1.4671,-1.4705,-1.4705,-1.4705,-1.4259,-1.2622,-1.226,-1.175,-1.0128,-0.9805,-0.9805,-0.9801,-1.0246,-1.0599,-1.0599,-1.0135,-0.9804,-0.9804,-0.9804,-0.9804,-0.9804,-0.9806,-0.9821,-0.99,-0.9903,-0.9906,-0.9929,-0.9973,-1.0003,-1.0006,-1.0023,-1.0044,-1.0108,-1.011,-1.011,-1.011,-1.011,-1.0095,-1.0103,-1.0103,-1.0107,-2.14,-2.2193,-2.2808,-2.3768,-2.4,-2.3835,-2.3205,-2.2674,-2.2077,-2.1201,-2.1019,-2.0853,-2.037,-2.1116,-2.1943,-2.2381,-2.3249,-2.4875,-2.7798,-2.8196,-2.8066,-2.7719,-2.6595,-2.5805,-2.56,-2.5018,0.0,-2.4248,-2.4882,-2.4972,-2.4266,-2.4479,-2.4392,-2.3876,-2.3652,-2.3535,-2.3535,-2.3285,-2.3177,-2.3252,-2.3895,-2.419,-2.419,-2.419,-2.2418,-1.9297,-1.9297,-1.9297,-1.9297,-1.9297,-1.9297,-1.9297,-1.9297,-1.9297,-1.9242,-1.872,-1.857,-1.8334,-1.6447,-1.5802,-1.5661,-1.4866,-1.46,-1.46,-1.46,-1.46,-1.46,-1.46,-1.46,-1.46,-1.46,-1.46,-1.46,-1.46,-1.46,-1.4151,-1.2539,-1.2207,-1.1713,-1.008,-0.9791,-0.9795,-0.9809,-1.0224,-1.0673,-1.0952,-1.0321,-0.9804,-0.9804,-0.9804,-0.9804,-0.9804,-0.9796,-0.9817,-0.9862,-0.9856,-0.9869,-0.986,-0.9906,-0.9942,-0.9968,-0.9965,-0.9989,-1.0059,-1.0059,-1.0059,-1.0059,-1.007,-1.0065,-1.0063,-1.0087,-1.0099,-2.1945,-2.299,-2.4067,-2.4067,-2.4067,-2.3918,-2.3387,-2.3253,-2.2542,-2.0144,-1.9551,-1.9085,-1.7751,-1.9774,-2.1724,-2.1967,-2.3759,-2.5865,-2.7909,-2.8196,-2.7848,-2.689,-2.6865,-2.6711,-2.6219,-2.6223,0.0,-2.519,0.0,-2.5045,-2.5009,-2.4284,-2.3831,-2.3795,-2.3079,-2.2699,-2.2699,-2.1896,-2.158,-2.1724,-2.3272,-2.4025,-2.4025,-2.3969,-2.2253,-1.9297,-1.9297,-1.9297,-1.9297,-1.9297,-1.9297,-1.9297,-1.9297,-1.9297,-1.9297,-1.9297,-1.9297,-1.8974,-1.6704,-1.5913,-1.579,-1.494,-1.4668,-1.465,-1.4613,-1.4589,-1.4589,-1.4589,-1.4589,-1.4589,-1.4589,-1.4589,-1.4589,-1.4589,-1.4589,-1.4146,-1.2534,-1.2184,-1.1708,-1.0017,-0.975,-0.9809,-0.9846,-0.9827,-1.0061,-1.0877,-1.0302,-0.9801,-0.9804,-0.9804,-0.9804,-0.9804,-0.9804,-0.9804,-0.9804,-0.9804,-0.9804,-0.9804,-0.9801,-0.9822,-0.99,-0.99,-0.9926,-1.0001,-1.0001,-1.0001,-1.0001,-0.9995,-1.0004,-0.9994,-1.0067,-1.0108,-2.3818,-2.453,-2.4829,-2.4829,-2.4829,-2.4497,-2.3272,-2.2575,-2.1812,-2.047,-1.9044,-1.7934,-1.7569,-1.8663,-2.0163,-2.175,-2.3343,-2.5265,-2.7842,-2.8196,-2.8088,-2.7848,-2.7412,-2.7076,-2.6926,-2.7037,0.0,0.0,-2.624,-2.5624,-2.5027,-2.4809,-2.4411,-2.3824,-2.3079,-2.2699,-2.2699,-2.1896,-2.158,-2.1706,-2.1731,-2.173,-2.1712,-2.0913,-2.0087,-1.9297,-1.9297,-1.9297,-1.9297,-1.9297,-1.9297,-1.9297,-1.9297,-1.9297,-1.9297,-1.9297,-1.9297,-1.9132,-1.792,-1.7505,-1.7273,-1.5882,-1.5429,-1.5318,-1.4706,-1.454,-1.454,-1.454,-1.454,-1.454,-1.454,-1.454,-1.454,-1.454,-1.454,-1.4081,-1.2463,-1.2132,-1.1645,-1.0012,-0.9717,-0.9913,-1.0527,-1.012,-1.0017,-1.0872,-1.0276,-0.9743,-0.9801,-0.9804,-0.9804,-0.9804,-0.9804,-0.9804,-0.9804,-0.9804,-0.9804,-0.9804,-0.9806,-0.9821,-0.99,-0.99,-0.9903,-0.9926,-0.9926,-0.9926,-0.9926,-0.9968,-0.9995,-1.0008,-1.0023,-1.0047,-2.4679,-2.5342,-2.5507,-2.5193,-2.4696,-2.3967,-2.2724,-2.1599,-2.0505,-1.9359,-1.8,-1.7017,-1.7017,-1.7718,-1.8896,-2.0763,-2.2388,-2.4199,-2.6483,-2.7201,-2.7638,-2.7971,-2.7772,-2.7598,-2.7642,-2.7754,-2.7855,0.0,-2.7158,-2.6518,-2.6077,-2.5045,-2.4266,-2.3813,-2.2401,-2.1477,-2.1115,-2.0671,-2.0489,-2.0549,-2.0282,-2.0169,-2.0185,-1.9536,-1.9264,-1.9256,0.0,-1.9272,-1.9303,-1.9303,-1.93,-1.9297,-1.9297,-1.9297,-1.9297,-1.9297,-1.9297,-1.9242,-1.8775,-1.8629,-1.8298,-1.6341,-1.5698,-1.5551,-1.4732,-1.4493,-1.4493,-1.4493,-1.4493,-1.4493,-1.4493,-1.4493,-1.4493,-1.4493,-1.4493,-1.4053,-1.2444,-1.2095,-1.1627,-1.0001,-0.9703,-0.9958,-1.0805,-1.0246,-0.9987,-1.0823,-1.0246,-0.9713,-0.9746,-0.975,-0.975,-0.975,-0.975,-0.975,-0.975,-0.975,-0.975,-0.975,-0.976,-0.9777,-0.9801,-0.9815,-0.9806,-0.9816,-0.9816,-0.9816,-0.9816,-0.9879,-0.9906,-0.9923,-0.9936,-0.9984,-2.5027,-2.5705,-2.6003,-2.5243,-2.4083,-2.284,-2.1879,-2.0439,-1.8969,-1.7751,-1.6768,-1.6138,-1.6238,-1.6785,-1.7733,-1.9324,-2.1138,-2.2867,-2.4439,-2.5749,-2.6791,-2.7499,-2.7883,-2.8099,-2.8154,-2.8318,-2.8419,-2.8479,-2.779,-2.7339,-2.7242,-2.5262,-2.3922,-2.3506,-2.1423,-1.9902,-1.9113,-1.9095,-1.9094,-1.9107,-1.9152,-1.9221,-1.9287,-1.9219,-1.9194,-1.9196,0.0,0.0,-1.9308,-1.9308,-1.9295,-1.9297,-1.9297,-1.9297,-1.9297,-1.9297,-1.9297,-1.9297,-1.9297,-1.9297,-1.8911,-1.6616,-1.5857,-1.5692,-1.4787,-1.4493,-1.4493,-1.4493,-1.4493,-1.4493,-1.4493,-1.4493,-1.4493,-1.4493,-1.4493,-1.4053,-1.2444,-1.193,-1.137,-0.996,-0.9692,-0.9939,-1.0704,-1.0205,-0.9939,-1.0645,-1.0146,-0.9699,-0.9699,-0.9702,-0.9706,-0.9706,-0.9706,-0.9706,-0.9706,-0.9706,-0.9706,-0.9706,-0.9706,-0.9706,-0.9706,-0.9706,-0.9706,-0.9706,-0.9706,-0.9706,-0.9706,-0.9768,-0.98,-0.9799,-0.9854,-0.989,-2.5639,-2.6103,-2.597,-2.4994,-2.3403,-2.1862,-2.1066,-1.9326,-1.7801,-1.7553,-1.5934,-1.4775,-1.5375,-1.5601,-1.6187,-1.7749,-1.993,-2.1761,-2.2716,-2.4784,-2.6259,-2.6452,-2.7297,-2.7876,-2.7943,-2.8228,0.0,0.0,0.0,-2.7049,-2.6446,-2.6023,-2.4592,-2.1984,-2.0862,-1.9902,-1.9113,-1.9095,-1.9094,-1.9107,-1.9107,-1.915,-1.9219,-1.9211,-1.9211,-1.9202,0.0,0.0,-1.9308,-1.9308,-1.9295,-1.9297,-1.9297,-1.9297,-1.9297,-1.9297,-1.9297,-1.9297,-1.9297,-1.9297,-1.9003,-1.7264,-1.6688,-1.6413,-1.4952,-1.4493,-1.4493,-1.4493,-1.4493,-1.4493,-1.4493,-1.4493,-1.4493,-1.4493,-1.4493,-1.4053,-1.2444,-1.1053,-1.0029,-0.9761,-0.9706,-0.9743,-0.9897,-0.9805,-0.975,-0.9879,-0.9787,-0.9691,-0.9691,-0.9706,-0.9706,-0.9706,-0.9706,-0.9706,-0.9706,-0.9706,-0.9706,-0.9706,-0.9706,-0.9706,-0.9706,-0.9706,-0.9706,-0.9706,-0.9706,-0.9706,-0.9706,-0.9772,-0.9809,-0.9796,-0.9805,-0.9844,-2.516,-2.5806,-2.5971,-2.4961,-2.2659,-2.0572,-2.0207,-1.8481,-1.6818,-1.6437,-1.4901,-1.3854,-1.4592,-1.4735,-1.5352,-1.7292,-1.8925,-2.0504,-2.2064,-2.4011,-2.5446,-2.5977,-2.6901,-2.7552,-2.7686,-2.7904,-2.7885,-2.7535,0.0,-2.6964,-2.6778,-2.5602,-2.3705,-2.097,-2.0499,-1.9902,-1.9113,-1.9095,-1.9104,-1.9111,-1.9111,-1.9119,-1.9145,-1.9145,-1.9145,-1.9145,-1.9145,0.0,-1.9208,-1.9208,-1.9224,-1.9246,-1.9246,-1.9246,-1.9246,-1.9246,-1.9246,-1.9246,-1.9246,-1.928,-1.902,-1.7419,-1.6895,-1.6597,-1.4989,-1.4493,-1.4493,-1.4493,-1.4493,-1.4493,-1.4493,-1.4493,-1.4506,-1.4494,-1.3823,-1.2994,-1.2217,-1.0775,-0.9665,-0.9698,-0.9702,-0.9702,-0.9702,-0.9668,-0.9642,-0.9642,-0.9649,-0.9641,-0.9641,-0.9642,-0.9665,-0.9692,-0.9695,-0.9695,-0.9695,-0.9695,-0.9695,-0.9695,-0.9695,-0.9695,-0.9695,-0.9695,-0.9695,-0.9695,-0.9695,-0.9695,-0.9695,-0.9736,-0.974,-0.9751,-0.9754,-0.976,-2.4531,-2.5425,-2.5854,-2.4431,-2.1831,-1.9601,-1.9601,-1.7822,-1.6005,-1.5419,-1.4122,-1.3275,-1.3854,-1.397,-1.4602,-1.6553,-1.7661,-1.9014,-2.1113,-2.2988,-2.4495,-2.5414,-2.6441,-2.7149,-2.7324,-2.735,0.0,0.0,0.0,0.0,-2.6723,-2.4674,-2.2638,-2.0787,-2.0399,-1.9912,-1.928,-1.9135,-1.9053,-1.9062,-1.9062,-1.9062,-1.9062,-1.9053,-1.9045,-1.9036,-1.9045,0.0,0.0,-1.9091,-1.9134,-1.9211,-1.9184,-1.9176,-1.9186,-1.9186,-1.9186,-1.9186,-1.9176,-1.9235,-1.9026,-1.7409,-1.6899,-1.6597,-1.4989,-1.4493,-1.4493,-1.4493,-1.4493,-1.4493,-1.4493,-1.4493,-1.45,-1.4453,-1.3316,-1.2193,-1.2021,-1.0863,-0.982,-0.9713,-0.9702,-0.9702,-0.9702,-0.9638,-0.9597,-0.9585,-0.9583,-0.9581,-0.9564,-0.9573,-0.9601,-0.9649,-0.9665,-0.9676,-0.9698,-0.9702,-0.9702,-0.9702,-0.9702,-0.9702,-0.9702,-0.9702,-0.9702,-0.9702,-0.9702,-0.9702,-0.9702,-0.9702,-0.9702,-0.9702,-0.9699,-0.971,-2.4398,-2.5425,-2.5523,-2.2758,-2.0823,-1.9601,-1.9601,-1.7425,-1.5386,-1.5309,-1.4122,-1.3126,-1.3192,-1.3192,-1.349,-1.4377,-1.569,-1.7145,-1.8626,-2.1278,-2.3351,-2.4179,-2.573,-2.6775,-2.6874,-2.6482,-2.6219,0.0,0.0,0.0,0.0,-2.3343,-2.235,-2.2107,-2.069,-1.9896,-1.9842,-1.9219,-1.8923,-1.8913,-1.8913,-1.8913,-1.8913,-1.8923,-1.8896,-1.8824,0.0,0.0,0.0,-1.9078,-1.9145,-1.9184,-1.9123,-1.9101,-1.9104,-1.9104,-1.9104,-1.9112,-1.9117,-1.9182,-1.9026,-1.7348,-1.6847,-1.6597,-1.4989,-1.4493,-1.4493,-1.4493,-1.4493,-1.4493,-1.4493,-1.4493,-1.4464,-1.4344,-1.3642,-1.2795,-1.2068,-1.127,-1.0489,-0.9833,-0.9702,-0.9702,-0.9702,-0.9638,-0.9585,-0.9518,-0.9507,-0.9483,-0.9426,-0.9466,-0.9518,-0.951,-0.9577,-0.9635,-0.9698,-0.9702,-0.9702,-0.9702,-0.9702,-0.9702,-0.9702,-0.9702,-0.9702,-0.9702,-0.9702,-0.9702,-0.9702,-0.9702,-0.9702,-0.9702,-0.9702,-0.9695,-2.2823,-2.3702,-2.4033,-2.2243,-2.0472,-1.9134,-1.8972,-1.7055,-1.5176,-1.4735,-1.3814,-1.3093,-1.3093,-1.3093,-1.3192,-1.349,-1.5149,-1.6603,-1.7155,-2.0108,-2.239,-2.2781,-2.4272,-2.5275,0.0,0.0,-2.4974,0.0,0.0,0.0,0.0,-2.2877,-2.2376,-2.1885,-2.1271,-2.0504,-1.9597,-1.9406,-1.9159,-1.8843,-1.8843,-1.8843,-1.8843,-1.8761,-1.8687,-1.8611,0.0,0.0,0.0,-1.8958,-1.9043,-1.9137,-1.9016,-1.8957,-1.8914,-1.8914,-1.8914,-1.8932,-1.8974,-1.9066,-1.8911,-1.7216,-1.67,-1.6421,-1.4903,-1.4411,-1.4381,-1.4381,-1.4381,-1.4381,-1.4381,-1.4356,-1.4294,-1.42,-1.3574,-1.2765,-1.2005,-1.1229,-1.0457,-0.9722,-0.9589,-0.9589,-0.9589,-0.9564,-0.9517,-0.9456,-0.9435,-0.9412,-0.9353,-0.9394,-0.9448,-0.9443,-0.9528,-0.9637,-0.9698,-0.9702,-0.9702,-0.9702,-0.9702,-0.9702,-0.9702,-0.9702,-0.9702,-0.9702,-0.9702,-0.9702,-0.9702,-0.9702,-0.9702,-0.9702,-0.9702,-0.9959,-2.1431,-2.2144,-2.2624,-2.1713,-2.0188,-1.8783,-1.8307,-1.6707,-1.5093,-1.4351,-1.3606,-1.3093,-1.3093,-1.3093,-1.3093,-1.3093,-1.4592,-1.5895,-1.6337,-1.8961,-2.1014,-2.1551,-2.2775,-2.3657,0.0,-2.4,0.0,0.0,0.0,0.0,0.0,-2.2429,-2.2315,-2.1879,-2.1638,-2.0915,-1.9685,-1.9541,-1.9215,-1.8714,-1.8695,-1.8695,-1.8714,-1.8574,-1.8467,-1.8423,0.0,0.0,0.0,-1.8771,-1.8887,-1.9002,-1.8851,-1.877,-1.8714,-1.8714,-1.8714,-1.8732,-1.8798,-1.8913,-1.8762,-1.7085,-1.6525,-1.623,-1.4706,-1.4228,-1.4174,-1.4174,-1.4174,-1.4174,-1.4174,-1.4152,-1.408,-1.4001,-1.3551,-1.2946,-1.2167,-1.1416,-1.0654,-0.99,-0.9587,-0.9434,-0.9434,-0.9435,-0.9417,-0.9326,-0.9306,-0.9285,-0.9216,-0.9271,-0.9305,-0.9312,-0.9412,-0.9525,-0.9629,-0.9637,-0.9637,-0.9637,-0.9663,-0.9671,-0.9679,-0.9665,-0.9672,-0.9702,-0.9702,-0.9702,-0.9702,-0.9702,-0.9702,-0.9702,-0.9951,-1.0498,-2.0519,-2.1249,-2.1647,-2.0901,-1.9807,-1.8663,-1.7718,-1.637,-1.5093,-1.4351,-1.3606,-1.3093,-1.3093,-1.3093,-1.3093,-1.3093,-1.3738,-1.4741,-1.6177,-1.7623,-1.9068,-2.0536,-2.1365,-2.2111,-2.2841,-2.2923,0.0,0.0,0.0,0.0,0.0,-2.1796,-2.2032,-2.247,-2.172,-2.0977,-2.0298,-1.9573,-1.8981,-1.8495,-1.8435,-1.8435,-1.8495,-1.8351,-1.8274,0.0,0.0,0.0,0.0,-1.8574,-1.8678,-1.8788,-1.8659,-1.8555,-1.8495,-1.8495,-1.8495,-1.8514,-1.8584,-1.8742,-1.8628,-1.6942,-1.6359,-1.6009,-1.439,-1.3902,-1.3888,-1.3888,-1.3888,-1.3888,-1.3888,-1.391,-1.3877,-1.3743,-1.3761,-1.3559,-1.2686,-1.1969,-1.1269,-1.0537,-0.9809,-0.9307,-0.9307,-0.9306,-0.9253,-0.9131,-0.9093,-0.908,-0.9013,-0.9062,-0.9102,-0.9111,-0.9159,-0.9293,-0.9491,-0.9504,-0.9504,-0.9504,-0.957,-0.9599,-0.9605,-0.9607,-0.9635,-0.9698,-0.9702,-0.9702,-0.9702,-0.9702,-0.9702,-0.9717,-1.0512,-1.132,-1.9015,-1.973,-2.0243,-2.0011,-1.8932,-1.7735,-1.6934,-1.5613,-1.4344,-1.3606,-1.3258,-1.3093,-1.3093,-1.3093,-1.2762,-1.176,-1.306,-1.4185,-1.4145,-1.6249,-1.8352,-1.978,-2.1036,-2.1895,0.0,0.0,0.0,0.0,0.0,0.0,0.0,-2.1812,-2.1871,-2.2017,-2.1769,-2.1091,-1.9899,-1.9752,-1.9176,-1.8166,-1.8145,-1.8148,-1.8166,-1.8061,0.0,0.0,0.0,0.0,0.0,-1.8351,-1.8477,-1.8573,-1.8458,-1.833,-1.8239,-1.8281,-1.8263,-1.8242,-1.8361,-1.8497,-1.8442,-1.7264,-1.6832,-1.6488,-1.4865,-1.4083,-1.3764,-1.3764,-1.3764,-1.3764,-1.3764,-1.3759,-1.3738,-1.3652,-1.3644,-1.3436,-1.2606,-1.229,-1.1825,-1.0575,-1.0144,-0.9823,-0.9326,-0.9189,-0.9146,-0.9107,-0.9059,-0.9022,-0.9002,-0.9018,-0.9043,-0.9097,-0.9121,-0.9189,-0.9354,-0.9367,-0.9367,-0.9367,-0.9417,-0.9452,-0.946,-0.9507,-0.9817,-1.0439,-1.0443,-1.0712,-1.1269,-1.1269,-1.1269,-1.1292,-1.2096,-1.2618,-1.7441,-1.8253,-1.8737,-1.8456,-1.7723,-1.6818,-1.5796,-1.4857,-1.3987,-1.3242,-1.3093,-1.3093,-1.3093,-1.3093,-1.2795,-1.1876,-1.2886,-1.3821,-1.3923,-1.5746,-1.7718,-1.9402,0.0,0.0,0.0,0.0,0.0,0.0,0.0,0.0,0.0,0.0,-2.1812,-2.1812,-2.1812,-2.1114,-1.9704,-1.9783,-1.9185,-1.7911,-1.79,-1.7905,-1.7947,-1.7894,0.0,0.0,0.0,0.0,0.0,-1.8184,-1.8294,-1.8373,-1.8274,-1.8163,-1.8061,-1.8102,-1.8113,-1.8082,-1.8194,-1.8294,-1.8251,-1.7324,-1.658,-1.5868,-1.4869,-1.4118,-1.3591,-1.3591,-1.3591,-1.3591,-1.3591,-1.3592,-1.3576,-1.3527,-1.3519,-1.3399,-1.2888,-1.2595,-1.2155,-1.1232,-1.0586,-1.0042,-0.9577,-0.9239,-0.9027,-0.9023,-0.8984,-0.8957,-0.8958,-0.8952,-0.8974,-0.9018,-0.9022,-0.9052,-0.9134,-0.9211,-0.9258,-0.9258,-0.9301,-0.9331,-0.9368,-0.969,-1.0141,-1.0711,-1.101,-1.1437,-1.1955,-1.1994,-1.2149,-1.2469,-1.2975,-1.3375,0.0,-1.6774,-1.7238,-1.652,-1.6321,-1.5945,-1.4516,-1.4142,0.0,-1.3233,-1.3084,-1.3067,-1.3018,-1.3051,-1.3067,-1.3018,-1.31,-1.3655,-1.5083,-1.6072,-1.7375,0.0,-2.034,0.0,0.0,0.0,0.0,0.0,0.0,0.0,0.0,0.0,-2.1812,-2.1812,-2.1763,-2.1064,-1.9721,-1.9704,-1.9048,-1.7777,-1.7715,-1.7749,-1.7861,-1.7811,0.0,0.0,0.0,0.0,0.0,-1.8048,-1.8091,-1.814,-1.8091,-1.8037,-1.7983,-1.7983,-1.7983,-1.7994,-1.8059,-1.813,-1.8031,-1.7223,-1.5921,-1.4661,-1.4657,-1.4073,-1.3396,-1.3396,-1.3396,-1.3396,-1.3396,-1.3396,-1.3396,-1.3396,-1.3396,-1.3396,-1.3396,-1.2863,-1.2365,-1.2314,-1.114,-1.0136,-1.0018,-0.9427,-0.8965,-0.8914,-0.8897,-0.8897,-0.8897,-0.8897,-0.8897,-0.8897,-0.8897,-0.8897,-0.8897,-0.9067,-0.9185,-0.9185,-0.9184,-0.9239,-0.9354,-1.009,-1.057,-1.0744,-1.1557,-1.2008,-1.2059,-1.2136,-1.255,-1.3276,-1.328,-1.3722,-1.3781,0.0,-1.6486,-1.574,-1.5558,-1.5315,0.0,-1.3653,-1.3165,-1.2984,-1.295,-1.2793,-1.2271,-1.2599,-1.2771,-1.2279,-1.3092,-1.412,-1.5083,-1.7323,-1.9237,-2.024,-2.1056,-2.1518,0.0,0.0,0.0,0.0,0.0,0.0,0.0,0.0,-2.1812,-2.1812,-2.1249,-2.0536,-1.9628,-1.9611,-1.8937,-1.7569,-1.7541,-1.7564,-1.7594,-1.7582,0.0,0.0,0.0,0.0,-1.7709,-1.7704,-1.7726,-1.7743,-1.7715,-1.7738,-1.7772,-1.7772,-1.7794,-1.7845,-1.7867,-1.7878,-1.7861,-1.7663,-1.6957,-1.6184,-1.618,-1.4877,-1.3396,-1.3396,-1.3396,-1.3396,-1.3396,-1.3396,-1.3396,-1.3396,-1.3396,-1.3396,-1.3396,-1.3261,-1.2965,-1.2415,-1.2009,-1.1376,-1.0203,-0.9855,-0.9557,-0.8982,-0.8897,-0.8897,-0.8897,-0.8897,-0.8897,-0.8897,-0.8897,-0.8897,-0.8897,-0.8947,-0.8969,-0.8969,-0.9018,-0.9336,-0.9967,-1.0227,-1.0907,-1.2119,-1.3081,-1.3595,-1.3665,-1.3726,-1.3859,-1.4047,-1.4096,-1.4223,-1.3013,-1.4173,-1.5216,-1.447,-1.4536,-1.4582,-1.3735,-1.3165,-1.2797,-1.2778,-1.2759,-1.2662,-1.2335,-1.2894,-1.3301,-1.2924,-1.3792,-1.5009,-1.6461,-1.8597,-2.0278,-2.1017,-2.1462,0.0,0.0,0.0,0.0,0.0,0.0,0.0,0.0,0.0,-2.1647,-2.1315,-2.0901,-2.034,-1.9601,-1.9253,-1.8555,-1.7503,-1.7503,-1.751,-1.75,-1.75,0.0,0.0,0.0,0.0,-1.7601,-1.7601,-1.7601,-1.7601,-1.7601,-1.7647,-1.7698,-1.7698,-1.7738,-1.78,-1.78,-1.78,-1.78,-1.78,-1.7067,-1.6197,-1.6197,-1.4887,-1.3481,-1.3811,-1.3659,-1.3396,-1.3396,-1.3396,-1.3396,-1.3396,-1.3396,-1.3396,-1.3396,-1.3396,-1.3278,-1.288,-1.2534,-1.2026,-1.119,-1.0751,-1.0369,-0.9969,-0.9907,-0.9907,-0.9907,-0.9613,-0.941,-0.941,-0.9095,-0.8897,-0.8897,-0.8897,-0.8897,-0.8897,-0.8959,-0.9355,-1.0126,-1.0548,-1.1493,-1.3074,-1.3708,-1.4044,-1.4116,-1.4177,-1.4203,-1.4203,-1.4249,-1.4274,-1.288,-1.3566,-1.4107,-1.3394,-1.3856,-1.4229,-1.3358,-1.3054,-1.2937,-1.2862,-1.2772,-1.2712,-1.2796,-1.3433,-1.3988,-1.4102,-1.494,-1.6298,-1.8411,-1.9747,-2.08,-2.155,-2.1619,0.0,0.0,0.0,0.0,0.0,0.0,0.0,0.0,0.0,0.0,-2.0718,-2.0486,-2.0058,-1.9435,-1.8807,-1.817,-1.7503,-1.7503,-1.7498,-1.7489,-1.7489,0.0,0.0,0.0,0.0,-1.7577,-1.7577,-1.7577,-1.7577,-1.7577,-1.7624,-1.7664,-1.7664,-1.7715,-1.7777,-1.7777,-1.7777,-1.7777,-1.7777,-1.6849,-1.5744,-1.5744,-1.4714,-1.3675,-1.4299,-1.3946,-1.3396,-1.3396,-1.3396,-1.3396,-1.3396,-1.3396,-1.3396,-1.3396,-1.3396,-1.3396,-1.3396,-1.2897,-1.2432,-1.2314,-1.1722,-1.1231,-1.112,-1.1103,-1.1103,-1.1103,-1.0463,-1.0001,-1.0001,-0.9343,-0.8897,-0.8897,-0.8897,-0.8897,-0.8897,-0.8959,-0.9372,-1.0214,-1.1124,-1.2274,-1.365,-1.3786,-1.3886,-1.3955,-1.4026,-1.4054,-1.4054,-1.4049,-1.4107,-1.2832,-1.3696,-1.4481,-1.3917,-1.4767,-1.548,-1.4553,-1.4248,-1.4123,-1.405,-1.3548,-1.3154,-1.3267,-1.3537,-1.395,-1.4589,-1.6394,-1.8274,0.0,0.0,-2.0739,-2.1366,0.0,0.0,0.0,0.0,0.0,0.0,0.0,0.0,0.0,0.0,0.0,-2.0702,-1.9495,-1.8787,-1.8658,-1.8559,-1.817,-1.7503,-1.7503,-1.7498,-1.7498,-1.7498,-1.751,0.0,0.0,-1.7522,-1.7522,-1.7522,-1.7522,-1.7522,-1.7522,-1.7517,-1.7536,-1.7536,-1.7566,-1.7635,-1.7635,-1.7635,-1.7635,-1.7635,-1.7048,-1.6355,-1.6355,-1.5332,-1.4182,-1.4299,-1.3876,-1.3396,-1.3396,-1.3396,-1.3396,-1.3396,-1.3396,-1.3396,-1.3396,-1.3396,-1.3396,-1.3396,-1.3312,-1.3032,-1.2415,-1.2195,-1.1874,-1.1197,-1.1103,-1.1103,-1.1103,-1.0463,-1.0001,-1.0001,-0.9343,-0.8897,-0.8897,-0.8897,-0.8897,-0.8897,-0.8914,-0.9524,-1.0897,-1.2311,-1.3225,-1.3528,-1.3606,-1.3675,-1.3743,-1.3815,-1.3842,-1.3842,-1.3849,-1.391,-1.2562,-1.3257,-1.391,-1.3991,-1.5066,-1.588,-1.5018,-1.4673,-1.4547,-1.4511,-1.3967,-1.3506,-1.3647,-1.4241,-1.5129,-1.6378,-1.8135,-1.9585,-2.031,-2.0702,-2.106,0.0,0.0,0.0,0.0,0.0,0.0,0.0,0.0,0.0,0.0,0.0,0.0,0.0,-1.8853,-1.8323,-1.7955,-1.7955,-1.7789,-1.7503,-1.7503,-1.7503,-1.7503,-1.7503,-1.7503,-1.7503,0.0,-1.7503,-1.7503,-1.7503,-1.7503,-1.7503,-1.7503,-1.751,-1.75,-1.7531,-1.7566,-1.7601,-1.7601,-1.7601,-1.7601,-1.7601,-1.6837,-1.5896,-1.5858,-1.4821,-1.3646,-1.3646,-1.3477,-1.3295,-1.3337,-1.3346,-1.3346,-1.3346,-1.3346,-1.3337,-1.3295,-1.3286,-1.3286,-1.3286,-1.3286,-1.3185,-1.284,-1.279,-1.2655,-1.2285,-1.2234,-1.2234,-1.2234,-1.1597,-1.1136,-1.1136,-1.0118,-0.9446,-0.9446,-0.9065,-0.9037,-0.9472,-0.9867,-1.0595,-1.1705,-1.2812,-1.3421,-1.3454,-1.3502,-1.3584,-1.3657,-1.3682,-1.3696,-1.3696,-1.3696,-1.3734,-1.227,-1.2634,-1.3011,-1.3602,-1.496,-1.5979,-1.5329,-1.5152,-1.5146,-1.512,-1.4586,-1.4221,-1.4515,-1.5242,-1.632,-1.7971,-1.9201,-2.0054,-2.0437,-2.0923,0.0,0.0,0.0,0.0,0.0,0.0,0.0,0.0,0.0,0.0,0.0,0.0,0.0,0.0,-1.8319,-1.7996,-1.7479,-1.7491,-1.7503,-1.7503,-1.7503,-1.7503,-1.7503,-1.7503,-1.7503,-1.7503,-1.7503,-1.7503,-1.7503,-1.7503,-1.7503,-1.7503,-1.7503,-1.7498,-1.7517,-1.7559,-1.7582,-1.7582,-1.7582,-1.7582,-1.7582,-1.7582,-1.6553,-1.5319,-1.524,-1.4202,-1.303,-1.303,-1.3077,-1.3158,-1.3269,-1.3295,-1.3269,-1.3252,-1.3235,-1.3209,-1.314,-1.3131,-1.3131,-1.3131,-1.3131,-1.3131,-1.3131,-1.314,-1.3158,-1.3166,-1.3192,-1.3209,-1.3201,-1.2556,-1.2105,-1.2105,-1.0927,-1.0152,-1.0152,-0.9641,-0.9656,-1.044,-1.1027,-1.1608,-1.2232,-1.2966,-1.3354,-1.3345,-1.3421,-1.3479,-1.3529,-1.3552,-1.3542,-1.3542,-1.3542,-1.3598,-1.2014,-1.2027,-1.2029,-1.2577,-1.4371,-1.5953,-1.5722,-1.607,-1.6455,-1.6377,-1.5845,-1.561,-1.6428,-1.6443,-1.6854,-1.8408,-1.8754,-1.926,-2.059,0.0,0.0,0.0,0.0,0.0,0.0,0.0,0.0,0.0,0.0,0.0,0.0,0.0,0.0,0.0,0.0,-1.7461,-1.7411,-1.7467,-1.7503,-1.7503,-1.7503,-1.7503,-1.7503,-1.7503,-1.7503,-1.7503,-1.7503,-1.7503,-1.7503,-1.7503,-1.7503,-1.7503,-1.7503,-1.7503,-1.7498,-1.7498,-1.7498,-1.7498,-1.7498,-1.7498,-1.7498,-1.7498,-1.6424,-1.5113,-1.5044,-1.3986,-1.2829,-1.2829,-1.2869,-1.298,-1.3235,-1.3251,-1.3189,-1.3122,-1.3069,-1.2997,-1.2935,-1.2917,-1.2917,-1.2917,-1.2917,-1.2917,-1.2917,-1.2979,-1.304,-1.3102,-1.3163,-1.319,-1.3201,-1.2556,-1.2105,-1.2105,-1.1388,-1.093,-1.093,-1.088,-1.1154,-1.1895,-1.2004,-1.2046,-1.2121,-1.2824,-1.3218,-1.3218,-1.3278,-1.3329,-1.3329,-1.3371,-1.3413,-1.3413,-1.3413,-1.3455,-1.183,-1.1826,-1.1803,-1.2396,-1.3754,-1.5034,-1.536,-1.6254,-1.6968,-1.6934,-1.6409,-1.5975,-1.6084,-1.644,-1.7071,-1.8206,-1.8781,-1.9388,0.0,0.0,0.0,0.0,0.0,0.0,0.0,0.0,0.0,0.0,0.0,0.0,0.0,0.0,0.0,0.0,0.0,-1.7359,-1.7399,-1.7436,-1.7455,-1.7503,-1.7455,-1.7419,-1.7383,-1.7383,-1.7383,-1.7378,-1.7419,-1.7455,-1.7503,-1.7455,-1.7419,-1.7354,-1.7236,-1.7183,-1.7183,-1.7183,-1.7183,-1.7183,-1.7183,-1.7183,-1.7183,-1.7183,-1.6446,-1.5443,-1.4913,-1.4042,-1.3154,-1.2728,-1.2662,-1.2797,-1.3155,-1.3155,-1.304,-1.2944,-1.2862,-1.2769,-1.2665,-1.2646,-1.2646,-1.2646,-1.2646,-1.2646,-1.2646,-1.2712,-1.2787,-1.2904,-1.2968,-1.304,-1.3129,-1.2897,-1.2731,-1.2731,-1.2058,-1.1443,-1.0978,-1.136,-1.1742,-1.2016,-1.2081,-1.2314,-1.2782,-1.305,-1.321,-1.321,-1.3269,-1.3295,-1.3295,-1.3371,-1.3396,-1.3396,-1.3396,-1.3404,-1.1713,-1.17,-1.1706,-1.2325,-1.3249,-1.4181,-1.4834,-1.6124,-1.72,-1.72,-1.7013,-1.6674,-1.6084,-1.6593,-1.7332,0.0,-1.8648,0.0,0.0,0.0,0.0,0.0,0.0,0.0,0.0,0.0,0.0,0.0,0.0,0.0,0.0,0.0,0.0,0.0,0.0,0.0,-1.722,-1.7228,-1.7277,-1.7338,-1.7228,-1.7191,-1.7216,-1.7216,-1.7216,-1.7216,-1.7318,-1.7419,-1.7486,-1.7407,-1.7281,-1.7113,-1.693,-1.6866,-1.6866,-1.6866,-1.6866,-1.6866,-1.6866,-1.6866,-1.6866,-1.6866,-1.6326,-1.5566,-1.4979,-1.4123,-1.3291,-1.2817,-1.2611,-1.2578,-1.2911,-1.2931,-1.2843,-1.2734,-1.263,-1.253,-1.2427,-1.2413,-1.2413,-1.2413,-1.2413,-1.2413,-1.2413,-1.2451,-1.2549,-1.2687,-1.2766,-1.2843,-1.2986,-1.3012,-1.3021,-1.303,-1.2628,-1.2141,-1.1644,-1.2058,-1.2356,-1.2356,-1.239,-1.264,-1.3158,-1.3174,-1.3174,-1.3174,-1.3234,-1.3277,-1.3277,-1.3312,-1.3337,-1.3337,-1.3337,-1.3464,-1.1648,-1.1553,-1.1649,-1.2253,-1.2916,-1.3569,-1.4181,-1.5821,-1.72,-1.7214,-1.7792,-1.7937,-1.6727,-1.7102,-1.7629,-1.7681,-1.8267,0.0,0.0,0.0,0.0,0.0,0.0,0.0,0.0,0.0,0.0,0.0,0.0,0.0,0.0,0.0,0.0,0.0,0.0,0.0,-1.6789,-1.6863,-1.6926,-1.6993,-1.6786,-1.6799,-1.6993,-1.6993,-1.6993,-1.7005,-1.7216,-1.7366,-1.7474,-1.7342,-1.7088,-1.6776,-1.6649,-1.6596,-1.6596,-1.6596,-1.6596,-1.6596,-1.6596,-1.6596,-1.6596,-1.6596,-1.6061,-1.5386,-1.5253,-1.4221,-1.3125,-1.311,-1.272,-1.2343,-1.2467,-1.2549,-1.2582,-1.2517,-1.2386,-1.2282,-1.2205,-1.22,-1.22,-1.22,-1.22,-1.22,-1.22,-1.2241,-1.2343,-1.2485,-1.2555,-1.2655,-1.2776,-1.2811,-1.2829,-1.2892,-1.3021,-1.3093,-1.3093,-1.3093,-1.3093,-1.3093,-1.3093,-1.3093,-1.3093,-1.3093,-1.3093,-1.3093,-1.3179,-1.3197,-1.3197,-1.3192,-1.321,-1.321,-1.321,-1.3603,-1.1612,-1.1855,-1.218,-1.2369,-1.3586,-1.4776,-1.495,-1.6139,-1.7345,-1.7824,-1.8074,-1.7993,-1.7151,-1.7167,0.0,-1.7963,0.0,0.0,0.0,0.0,0.0,0.0,0.0,0.0,0.0,0.0,0.0,0.0,0.0,0.0,0.0,0.0,0.0,0.0,0.0,0.0,-1.6448,-1.6474,-1.6499,-1.6578,-1.6419,-1.6488,-1.6727,-1.6623,-1.6636,-1.6725,-1.6828,-1.6968,-1.7134,-1.6895,-1.6688,-1.6503,-1.6371,-1.6316,-1.6316,-1.6316,-1.6316,-1.6316,-1.6316,-1.6316,-1.6316,-1.6316,-1.6138,-1.5795,-1.5237,-1.4773,-1.4339,-1.3867,-1.3313,-1.2867,-1.2901,-1.2593,-1.2246,-1.2215,-1.2149,-1.2065,-1.1933,-1.1912,-1.1912,-1.1912,-1.1912,-1.1912,-1.1912,-1.2008,-1.2128,-1.2205,-1.2403,-1.26,-1.2782,-1.2811,-1.2811,-1.2829,-1.2922,-1.3004,-1.3093,-1.3093,-1.3093,-1.3093,-1.3093,-1.3093,-1.3093,-1.3093,-1.3093,-1.3093,-1.3179,-1.3197,-1.3197,-1.3192,-1.321,-1.3201,-1.3737,-1.4096,-1.184,-1.2345,-1.286,-1.3094,-1.4239,-1.5472,-1.6139,-1.6965,-1.778,-1.8433,-1.8564,-1.8361,-1.7722,-1.7795,0.0,0.0,0.0,0.0,0.0,0.0,0.0,0.0,0.0,0.0,0.0,0.0,0.0,0.0,0.0,0.0,0.0,0.0,0.0,0.0,0.0,0.0,-1.6137,-1.6137,-1.6177,-1.6244,-1.6077,-1.6077,-1.6244,-1.6246,-1.6258,-1.6338,-1.6525,-1.6657,-1.6712,-1.649,-1.633,-1.6194,-1.6025,-1.5955,-1.5969,-1.6026,-1.6041,-1.6041,-1.6041,-1.6041,-1.6041,-1.6041,-1.6012,-1.5908,-1.5442,-1.5128,-1.4843,-1.4423,-1.3857,-1.3391,-1.3372,-1.2887,-1.2321,-1.2111,-1.2008,-1.1923,-1.1826,-1.1805,-1.1805,-1.1805,-1.1805,-1.1805,-1.1805,-1.1891,-1.1976,-1.2055,-1.2251,-1.2419,-1.2542,-1.263,-1.2678,-1.2678,-1.2726,-1.2848,-1.3075,-1.3093,-1.3093,-1.3093,-1.303,-1.2995,-1.3066,-1.3084,-1.3093,-1.3093,-1.3145,-1.3154,-1.3154,-1.3156,-1.3307,-1.3607,-1.4048,-1.4565,-1.2209,-1.2902,-1.354,-1.4152,-1.4848,-1.5849,-1.7528,-1.8111,-1.8448,-1.8985,-1.9101,-1.8927,-1.839,-1.8738,-1.8927,0.0,0.0,0.0,0.0,0.0,0.0,0.0,0.0,0.0,0.0,0.0,0.0,0.0,0.0,0.0,0.0,0.0,0.0,0.0,0.0,0.0,-1.5827,-1.5857,-1.5885,0.0,-1.5754,-1.5652,-1.5682,-1.5869,-1.5939,-1.5893,-1.6297,-1.638,-1.6246,-1.6137,-1.5998,-1.5842,-1.5668,-1.5595,-1.5624,-1.5755,-1.5799,-1.5799,-1.5799,-1.5799,-1.5799,-1.5799,-1.5799,-1.5799,-1.5799,-1.5365,-1.4886,-1.4886,-1.4408,-1.3887,-1.3887,-1.3361,-1.2704,-1.2217,-1.1983,-1.1869,-1.1816,-1.1805,-1.1805,-1.1805,-1.1805,-1.1805,-1.1805,-1.1848,-1.1912,-1.1967,-1.2096,-1.2153,-1.2153,-1.2318,-1.2439,-1.2439,-1.2465,-1.2626,-1.3012,-1.3048,-1.3048,-1.3048,-1.2867,-1.2829,-1.295,-1.3048,-1.3084,-1.3093,-1.3093,-1.3093,-1.3093,-1.3159,-1.354,-1.4202,-1.4334,-1.5122,-1.2093,-1.2902,-1.354,-1.4152,-1.5313,-1.6766,-1.8448,-1.8869,-1.8941,-1.9072,-1.9101,-1.9058,-1.8927,-1.9014,0.0,0.0,0.0,0.0,0.0,0.0,0.0,0.0,0.0,0.0,0.0,0.0,0.0,0.0,0.0,0.0,0.0,0.0,0.0,0.0,0.0,-1.5403,-1.5433,-1.5433,-1.5433,0.0,-1.5403,-1.5388,-1.5403,-1.5551,-1.5653,-1.5767,-1.6066,-1.6109,-1.5984,-1.5942,-1.5842,-1.5653,-1.5624,-1.5595,-1.5624,-1.5755,-1.5799,-1.5799,-1.5799,-1.5799,-1.5799,-1.5799,-1.5799,-1.5799,-1.5799,-1.5709,-1.5574,-1.5574,-1.5095,-1.4573,-1.4573,-1.381,-1.3014,-1.2887,-1.2321,-1.1826,-1.1805,-1.1805,-1.1805,-1.1805,-1.1805,-1.1805,-1.1805,-1.1816,-1.1837,-1.1833,-1.1869,-1.188,-1.188,-1.1923,-1.1955,-1.1955,-1.2143,-1.2359,-1.2607,-1.2626,-1.2626,-1.2626,-1.2587,-1.2577,-1.2607,-1.2813,-1.297,-1.3022,-1.3075,-1.3093,-1.3093,-1.3689,-1.4036,-1.4235,-1.5398,-1.6105,-1.1612,-1.2681,-1.3714,-1.5081,-1.569,-1.6518,-1.8622,-1.9101,-1.9101,-1.9101,-1.9101,-1.9082,-1.9059,-1.9055,0.0,0.0,0.0,0.0,0.0,0.0,0.0,0.0,0.0,0.0,0.0,0.0,0.0,0.0,0.0,0.0,0.0,0.0,0.0,0.0,-1.5298,-1.5298,-1.5298,-1.5298,-1.5298,-1.5298,-1.5298,-1.5298,-1.5298,-1.5373,-1.5433,-1.5522,-1.5682,-1.574,-1.5653,-1.5653,-1.5595,-1.5492,-1.5492,-1.5492,-1.5522,-1.5624,-1.5653,-1.5653,-1.5653,-1.5653,-1.5653,-1.5653,-1.5653,-1.5653,-1.5653,-1.5653,-1.5653,-1.5653,-1.5386,-1.5134,-1.5162,-1.4431,-1.3791,-1.4274,-1.3062,-1.1805,-1.1805,-1.1805,-1.1805,-1.1805,-1.1805,-1.1805,-1.1805,-1.1805,-1.1805,-1.1805,-1.1805,-1.1805,-1.1805,-1.1805,-1.1805,-1.1805,-1.1938,-1.2054,-1.2159,-1.2169,-1.2169,-1.2169,-1.2169,-1.2169,-1.2169,-1.296,-1.3407,-1.3477,-1.3908,-1.4155,-1.4155,-1.4536,-1.4917,-1.5271,-1.6028,-1.6586,-1.1111,-1.2478,-1.3961,-1.588,-1.5835,-1.5965,-1.8521,-1.9101,-1.9101,-1.9101,-1.9082,-1.9059,-1.9012,0.0,0.0,0.0,0.0,0.0,0.0,0.0,0.0,0.0,0.0,0.0,0.0,0.0,0.0,0.0,0.0,0.0,0.0,0.0,-1.5298,-1.5298,-1.5298,-1.5298,-1.5298,-1.5298,-1.5298,-1.5298,-1.5298,-1.5298,-1.5298,-1.5298,-1.5298,-1.5313,-1.5374,-1.5389,-1.5374,-1.5389,-1.5389,-1.5374,-1.5389,-1.5404,-1.5404,-1.5477,-1.5492,-1.5492,-1.5492,-1.5492,-1.5492,-1.5492,-1.5492,-1.5492,-1.5492,-1.5492,-1.5492,-1.5492,-1.5507,-1.5536,-1.5595,-1.5076,-1.4761,-1.559,-1.4053,-1.229,-1.1884,-1.1805,-1.1805,-1.1805,-1.1805,-1.1805,-1.1805,-1.1805,-1.1805,-1.1805,-1.1805,-1.1805,-1.1805,-1.1805,-1.1805,-1.1805,-1.1805,-1.1805,-1.1805,-1.1805,-1.1805,-1.1805,-1.1805,-1.1805,-1.1805,-1.3109,-1.3937,-1.4125,-1.4856,-1.524,-1.5251,-1.5393,-1.5768,-1.6381,-1.6514,-1.6906,-1.1005,-1.2684,-1.4166,-1.5211,-1.54,-1.5965,-1.8521,-1.9101,-1.9101,-1.9101,-1.9007,-1.8931,0.0,0.0,0.0,0.0,0.0,0.0,0.0,0.0,0.0,0.0,0.0,0.0,0.0,0.0,0.0,0.0,0.0,0.0,0.0,-1.5298,-1.5298,-1.5298,-1.5298,-1.5298,-1.5298,-1.5298,-1.5298,-1.5298,-1.5298,-1.5298,-1.5298,-1.5298,-1.5298,-1.5313,-1.5374,-1.5374,-1.5313,-1.5388,-1.5374,-1.5313,-1.5388,-1.5404,-1.5404,-1.5477,-1.5492,-1.5492,-1.5492,-1.5492,-1.5492,-1.5492,-1.5492,-1.5492,-1.5492,-1.5492,-1.5492,-1.5492,-1.5551,-1.5595,-1.5595,-1.5608,-1.5634,-1.5769,-1.53,-1.4278,-1.2242,-1.1805,-1.1805,-1.1805,-1.1805,-1.1805,-1.1805,-1.1805,-1.1805,-1.1805,-1.1805,-1.1805,-1.1805,-1.1805,-1.1805,-1.1805,-1.1805,-1.1805,-1.1805,-1.1805,-1.1805,-1.1805,-1.1805,-1.1805,-1.1805,-1.2969,-1.3968,-1.4689,-1.4856,-1.4984,-1.5044,-1.5741,-1.6159,-1.6336,-1.6978,-1.7344,-1.0976,-1.2042,-1.3032,-1.4848,-1.5298,-1.5588,-1.6721,-1.8085,-1.9101,-1.9101,-1.9045,-1.8988,0.0,0.0,0.0,0.0,0.0,0.0,0.0,0.0,0.0,0.0,0.0,0.0,0.0,0.0,0.0,0.0,0.0,0.0,-1.5327,-1.5298,-1.5298,-1.5298,-1.5298,0.0,-1.5298,-1.5298,-1.5298,-1.5298,-1.5298,-1.5298,-1.5298,-1.5298,-1.5298,-1.5298,-1.5328,-1.5328,-1.5298,-1.5328,-1.5328,-1.5313,-1.5328,-1.5329,-1.5358,-1.5388,-1.5388,-1.5388,-1.5388,-1.5388,-1.5388,-1.5388,-1.5388,-1.5388,-1.5388,-1.5388,-1.5388,-1.5388,-1.5403,-1.5433,-1.5433,-1.5477,-1.5522,-1.5522,-1.5418,-1.5023,-1.3969,-1.3761,-1.3761,-1.3761,-1.3761,-1.3761,-1.3761,-1.3761,-1.3761,-1.3761,-1.3761,-1.3761,-1.3761,-1.3761,-1.3761,-1.3761,-1.3761,-1.3761,-1.3761,-1.3761,-1.3761,-1.3761,-1.3761,-1.3761,-1.3761,-1.4262,-1.4728,-1.5059,-1.5506,-1.5793,-1.5895,-1.6354,-1.6625,-1.669,-1.717,-1.7395,-1.0136,-1.0995,-1.2114,-1.466,-1.5298,-1.5298,-1.5298,-1.6762,-1.8317,0.0,-1.9101,0.0,0.0,0.0,0.0,0.0,0.0,0.0,0.0,0.0,0.0,0.0,0.0,0.0,0.0,0.0,0.0,0.0,0.0,0.0,-1.5341,-1.5298,-1.5298,-1.5298,-1.5298,-1.5298,-1.5298,-1.5298,-1.5298,-1.5298,-1.5298,-1.5298,-1.5298,-1.5298,-1.5298,-1.5298,-1.5298,-1.5298,-1.5298,-1.5298,-1.5298,-1.5298,-1.5298,-1.5298,-1.5298,-1.5298,-1.5298,-1.5298,-1.5298,-1.5298,-1.5298,-1.5298,-1.5298,-1.5298,-1.5298,-1.5298,-1.5298,-1.5298,-1.5298,-1.5298,-1.5298,-1.5298,-1.5298,-1.5298,-1.5298,-1.5298,-1.5298,-1.5298,-1.5298,-1.5298,-1.5237,-1.5147,-1.5056,-1.5117,-1.5207,-1.5298,-1.5298,-1.5298,-1.5298,-1.5298,-1.5298,-1.5298,-1.5298,-1.5298,-1.5298,-1.5298,-1.5298,-1.5298,-1.5298,-1.5298,-1.5298,-1.5298,-1.5298,-1.5298,-1.5839,-1.6258,-1.6503,-1.6696,-1.6825,-1.6904,-1.7141,-1.7232,-0.7771,-0.9609,-1.2114,-1.466,-1.5298,-1.5298,-1.5298,-1.5399,-1.6168,-1.8608,-1.9101,0.0,0.0,0.0,0.0,0.0,0.0,0.0,0.0,0.0,0.0,0.0,0.0,0.0,0.0,0.0,0.0,0.0,0.0,0.0,-1.537,-1.5298,-1.5298,-1.5298,-1.5298,-1.5298,-1.5298,-1.5298,-1.5298,-1.5298,-1.5298,-1.5298,-1.5298,-1.5298,-1.5298,-1.5298,-1.5298,-1.5298,-1.5298,-1.5298,-1.5298,-1.5298,-1.5298,-1.5298,-1.5298,-1.5298,-1.5298,-1.5298,-1.5298,-1.5298,-1.5298,-1.5298,-1.5298,-1.5298,-1.5298,-1.5298,-1.5298,-1.5298,-1.5298,-1.5298,-1.5298,-1.5298,-1.5298,-1.5298,-1.5298,-1.5298,-1.5298,-1.5298,-1.5298,-1.5298,-1.504,-1.473,-1.4413,-1.462,-1.4932,-1.5253,-1.5298,-1.5298,-1.5298,-1.5298,-1.5298,-1.5298,-1.5298,-1.5298,-1.5298,-1.5298,-1.5298,-1.5298,-1.5298,-1.5298,-1.5298,-1.5298,-1.5298,-1.5298,-1.5343,-1.5638,-1.6231,-1.6419,-1.6554,-1.662,-1.6779,-1.6866,-0.7642,-0.8286,-0.9614,-1.2219,-1.2858,-1.3294,-1.4921,-1.5298,-1.5559,-1.6458,0.0,0.0,0.0,0.0,0.0,0.0,0.0,0.0,0.0,0.0,0.0,0.0,0.0,0.0,0.0,0.0,0.0,0.0,0.0,0.0,-1.5872,-1.5485,-1.5298,-1.5298,-1.5298,-1.5298,-1.5298,-1.5268,-1.5268,-1.5298,-1.5298,-1.5298,-1.5298,-1.5298,-1.5298,-1.5298,-1.5298,-1.5298,-1.5298,-1.5298,-1.5298,-1.5298,-1.5298,-1.5298,-1.5298,-1.5298,-1.5298,-1.5298,-1.5298,-1.5298,-1.5298,-1.5298,-1.5298,-1.5283,-1.5148,-1.5041,-1.5025,-1.5237,-1.5298,-1.5207,-1.4777,-1.4667,-1.4667,-1.4667,-1.4667,-1.4667,-1.4667,-1.4994,-1.5298,-1.5298,-1.4871,-1.4287,-1.3695,-1.4092,-1.4683,-1.5222,-1.5298,-1.5298,-1.5298,-1.5298,-1.5298,-1.5298,-1.5298,-1.5298,-1.5298,-1.5298,-1.5298,-1.5298,-1.5298,-1.5298,-1.5298,-1.5298,-1.5298,-1.5298,-1.5298,-1.5462,-1.5754,-1.5953,-1.6107,-1.6219,-1.6394,-1.6488,-0.6392,-0.6343,-0.6918,-0.9404,-1.0764,-1.194,-1.3629,-1.4689,-1.5298,-1.5298,0.0,0.0,0.0,0.0,0.0,0.0,0.0,0.0,0.0,0.0,0.0,0.0,0.0,0.0,0.0,0.0,0.0,0.0,0.0,0.0,-1.6155,-1.5756,-1.5485,-1.5268,-1.5268,-1.5238,-1.5208,-1.5193,-1.5222,-1.5268,-1.5298,-1.5298,-1.5298,-1.5298,-1.5298,-1.5298,-1.5298,-1.5298,-1.5268,-1.5223,-1.5193,-1.5147,-1.5132,-1.5132,-1.5132,-1.5132,-1.5132,-1.5132,-1.5132,-1.5222,-1.5298,-1.5298,-1.5298,-1.5223,-1.4873,-1.4529,-1.4319,-1.4529,-1.4592,-1.4481,-1.4043,-1.3927,-1.3927,-1.3927,-1.3927,-1.3927,-1.3927,-1.4479,-1.4963,-1.4963,-1.4509,-1.3941,-1.3318,-1.3725,-1.4332,-1.4886,-1.4963,-1.4963,-1.4963,-1.4963,-1.4963,-1.4963,-1.4963,-1.4963,-1.4963,-1.5071,-1.5192,-1.5298,-1.5298,-1.5298,-1.5298,-1.5298,-1.5298,-1.5298,-1.5298,-1.5343,-1.5433,-1.5638,-1.5783,-1.5869,-1.6081,-1.6191,0.0,0.0,0.0,-0.6589,-0.9275,-1.1379,-1.1452,-1.3371,-1.5166,-1.5238,0.0,0.0,0.0,0.0,0.0,0.0,0.0,0.0,0.0,0.0,0.0,0.0,0.0,0.0,0.0,0.0,0.0,0.0,0.0,-1.7344,-1.6182,-1.6081,-1.5795,-1.5206,-1.5192,-1.5118,-1.4997,-1.5118,-1.5192,-1.5192,-1.5253,-1.5298,-1.5298,-1.5298,-1.5298,-1.5298,-1.5298,-1.5237,-1.5162,-1.5042,-1.495,-1.4886,-1.4808,-1.4777,-1.4777,-1.4777,-1.4777,-1.4777,-1.4777,-1.4994,-1.5268,-1.5268,-1.5268,-1.5132,-1.4477,-1.3762,-1.3198,-1.3198,-1.3198,-1.3198,-1.3198,-1.3198,-1.3198,-1.3198,-1.3198,-1.3198,-1.3198,-1.3762,-1.4268,-1.4268,-1.4007,-1.367,-1.3267,-1.3522,-1.3891,-1.4219,-1.4268,-1.4268,-1.4268,-1.4268,-1.4268,-1.4268,-1.4268,-1.4268,-1.4268,-1.4604,-1.4932,-1.5283,-1.5298,-1.5298,-1.5298,-1.5298,-1.5298,-1.5298,-1.5298,-1.5298,-1.5298,-1.5507,-1.5595,-1.5595,-1.5784,-1.5984,-0.5978,0.0,0.0,0.0,0.0,0.0,0.0,0.0,-1.217,0.0,0.0,0.0,0.0,0.0,0.0,0.0,0.0,0.0,0.0,0.0,0.0,0.0,0.0,0.0,0.0,0.0,0.0,0.0,-1.7348,-1.6765,-1.6479,-1.5669,-1.5164,-1.4979,-1.4886,-1.481,-1.4779,-1.4719,-1.4749,-1.4839,-1.4917,-1.4948,-1.4948,-1.4948,-1.4948,-1.4948,-1.4948,-1.4824,-1.4636,-1.4688,-1.4643,-1.4515,-1.4356,-1.4292,-1.4292,-1.4292,-1.4292,-1.4292,-1.4292,-1.4417,-1.4558,-1.4452,-1.4497,-1.4431,-1.3728,-1.3369,-1.3198,-1.3198,-1.3198,-1.3198,-1.3198,-1.3198,-1.3198,-1.3198,-1.3198,-1.3198,-1.3198,-1.3369,-1.3493,-1.3493,-1.3438,-1.3335,-1.3215,-1.3284,-1.3404,-1.3489,-1.3493,-1.3493,-1.3493,-1.3493,-1.3493,-1.3493,-1.3493,-1.3493,-1.3493,-1.4075,-1.4683,-1.5268,-1.5298,-1.5298,-1.5298,-1.5298,-1.5298,-1.5298,-1.5298,-1.5298,-1.5298,-1.5358,-1.5373,-1.5403,-1.5492,-1.5653,-0.7992,-0.7386,-0.6845,-0.7862,0.0,0.0,-0.8728,-0.9619,0.0,0.0,0.0,0.0,0.0,0.0,0.0,0.0,0.0,0.0,0.0,0.0,0.0,0.0,0.0,0.0,0.0,0.0,0.0,0.0,-1.7026,-1.645,-1.6041,-1.5201,-1.4716,-1.4651,-1.4592,-1.4513,-1.4401,-1.4308,-1.4292,-1.4369,-1.4433,-1.4465,-1.4465,-1.4465,-1.4465,-1.4465,-1.4465,-1.4321,-1.4124,-1.4068,-1.4084,-1.4084,-1.395,-1.3868,-1.3852,-1.3885,-1.3868,-1.3852,-1.3885,-1.3914,-1.3911,-1.3818,-1.3732,-1.356,-1.3116,-1.299,-1.299,-1.299,-1.299,-1.299,-1.299,-1.299,-1.299,-1.299,-1.299,-1.299,-1.299,-1.299,-1.3042,-1.3163,-1.3198,-1.3198,-1.3198,-1.3198,-1.3198,-1.3198,-1.3198,-1.3198,-1.3198,-1.3198,-1.3198,-1.3198,-1.3198,-1.3198,-1.3198,-1.3594,-1.4141,-1.4839,-1.4886,-1.4886,-1.4886,-1.5072,-1.5223,-1.5298,-1.5298,-1.5298,-1.5298,-1.5298,-1.5298,-1.5298,-1.5374,-1.5492,-0.9895,-0.8785,-0.7192,-0.7943,0.0,0.0,-0.6928,-0.8346,-0.9679,0.0,0.0,0.0,0.0,0.0,0.0,0.0,0.0,0.0,0.0,0.0,0.0,0.0,0.0,0.0,0.0,0.0,-1.6976,-1.6763,-1.6631,-1.6125,-1.5107,-1.4656,-1.4372,-1.4268,-1.4305,-1.4198,-1.395,-1.3885,-1.3835,-1.3852,-1.3917,-1.395,-1.395,-1.395,-1.395,-1.395,-1.395,-1.3835,-1.3619,-1.337,-1.3416,-1.3632,-1.3547,-1.348,-1.3429,-1.3497,-1.3463,-1.3429,-1.3497,-1.3429,-1.3323,-1.3323,-1.3047,-1.2709,-1.2709,-1.2709,-1.2709,-1.2709,-1.2709,-1.2709,-1.2709,-1.2709,-1.2709,-1.2709,-1.2709,-1.2709,-1.2709,-1.2709,-1.2797,-1.3094,-1.3146,-1.3146,-1.3146,-1.3146,-1.3146,-1.3146,-1.3146,-1.3146,-1.3146,-1.3146,-1.3146,-1.3146,-1.3146,-1.3146,-1.3146,-1.3146,-1.3425,-1.4075,-1.4124,-1.4124,-1.4124,-1.4625,-1.5027,-1.5298,-1.5298,-1.5298,-1.5298,-1.5298,-1.5298,-1.5298,-1.5359,-1.5418,-1.1303,-1.0651,-0.9475,-0.9071,0.0,0.0,-0.79,-0.7947,-0.8277,0.0,0.0,0.0,0.0,0.0,0.0,0.0,0.0,0.0,0.0,0.0,0.0,0.0,0.0,0.0,0.0,0.0,-1.5672,-1.5749,-1.5406,-1.4884,-1.4203,-1.4073,-1.4007,-1.3974,-1.3941,-1.3812,-1.3598,-1.3531,-1.3497,-1.3497,-1.3564,-1.3598,-1.3598,-1.3598,-1.3598,-1.3598,-1.3598,-1.3467,-1.3285,-1.3185,-1.3163,-1.3198,-1.3012,-1.296,-1.2943,-1.296,-1.296,-1.2943,-1.296,-1.2943,-1.2925,-1.2925,-1.2885,-1.2839,-1.2727,-1.2709,-1.2709,-1.2709,-1.2709,-1.2709,-1.2709,-1.2709,-1.2709,-1.2709,-1.2709,-1.2709,-1.2709,-1.2709,-1.2727,-1.278,-1.2797,-1.2797,-1.2797,-1.2797,-1.2797,-1.2797,-1.2797,-1.2797,-1.2797,-1.2797,-1.2797,-1.2797,-1.2797,-1.2797,-1.2797,-1.2797,-1.2868,-1.2995,-1.3012,-1.3012,-1.3012,-1.3772,-1.4547,-1.5298,-1.5298,-1.5298,-1.5298,-1.5298,-1.5298,-1.5298,-1.5313,-1.5328,-1.274,-1.2033,-1.0911,-0.9942,0.0,0.0,0.0,-0.82,-0.8127,-0.8238,0.0,0.0,0.0,0.0,0.0,0.0,0.0,0.0,0.0,0.0,0.0,0.0,0.0,0.0,0.0,0.0,-1.4777,-1.4718,-1.4264,-1.3861,-1.3518,-1.3527,-1.3543,-1.3489,-1.3493,-1.3395,-1.319,-1.3099,-1.3047,-1.3047,-1.3082,-1.3099,-1.3099,-1.3099,-1.3099,-1.3099,-1.3099,-1.3035,-1.2948,-1.2908,-1.2903,-1.2885,-1.2833,-1.2785,-1.2762,-1.2785,-1.2785,-1.2762,-1.2785,-1.2785,-1.275,-1.2785,-1.2797,-1.2792,-1.2709,-1.2709,-1.2709,-1.2709,-1.2709,-1.2709,-1.2709,-1.2709,-1.2709,-1.2709,-1.2709,-1.2709,-1.2709,-1.2709,-1.2709,-1.2709,-1.2709,-1.2709,-1.2709,-1.2709,-1.2709,-1.2709,-1.2709,-1.2709,-1.2709,-1.2709,-1.2709,-1.2709,-1.2709,-1.2709,-1.2709,-1.2709,-1.2709,-1.2709,-1.2709,-1.2709,-1.2709,-1.319,-1.3888,-1.4827,-1.5147,-1.5298,-1.5298,-1.5132,-1.5132,-1.5298,-1.5298,-1.5298,-1.3765,-1.2873,0.0,0.0,0.0,-0.8548,0.0,0.0,0.0,-0.7247,0.0,0.0,0.0,0.0,0.0,0.0,0.0,0.0,0.0,0.0,0.0,0.0,0.0,0.0,0.0,0.0,-1.3998,-1.3735,-1.3266,-1.3026,-1.306,-1.3104,-1.3121,-1.306,-1.3121,-1.3057,-1.2878,-1.275,-1.2709,-1.2709,-1.2709,-1.2709,-1.2709,-1.2709,-1.2709,-1.2709,-1.2709,-1.2709,-1.2709,-1.2709,-1.2709,-1.2709,-1.275,-1.2762,-1.2709,-1.275,-1.2762,-1.2709,-1.275,-1.2762,-1.2709,-1.275,-1.2745,-1.2709,-1.2709,-1.2709,-1.2709,-1.2709,-1.2709,-1.2709,-1.2709,-1.2709,-1.2709,-1.2709,-1.2709,-1.2709,-1.2709,-1.2709,-1.2709,-1.2709,-1.2709,-1.2709,-1.2709,-1.2709,-1.2709,-1.2709,-1.2709,-1.2709,-1.2709,-1.2709,-1.2709,-1.2709,-1.2709,-1.2709,-1.2709,-1.2709,-1.2709,-1.2709,-1.2709,-1.2709,-1.2709,-1.2803,-1.3348,-1.4372,-1.4671,-1.4841,-1.4887,-1.47,-1.4855,-1.5298,-1.5268,-1.5283,0.0,0.0,0.0,0.0,-1.0405,0.0,0.0,0.0,-0.7962,-0.8451,0.0,0.0,0.0,0.0,0.0,0.0,0.0,0.0,0.0,0.0,0.0,0.0,0.0,0.0,0.0,0.0,0.0,-1.3024,-1.2583,-1.2485,-1.2901,-1.2931,-1.2931,-1.2925,-1.2931,-1.2878,-1.2803,-1.2745,-1.2709,-1.2709,-1.2709,-1.2709,-1.2709,-1.2709,-1.2709,-1.2709,-1.2709,-1.2709,-1.2709,-1.2709,-1.2709,-1.2709,-1.2709,-1.2709,-1.2709,-1.2709,-1.2709,-1.2709,-1.2709,-1.2709,-1.2709,-1.2709,-1.2709,-1.2709,-1.2709,-1.2709,-1.2709,-1.2709,-1.2709,-1.2709,-1.2709,-1.2709,-1.2709,-1.2709,-1.2709,-1.2709,-1.2709,-1.2709,-1.2709,-1.2709,-1.2709,-1.2709,-1.2709,-1.2709,-1.2709,-1.2709,-1.2709,-1.2709,-1.2709,-1.2709,-1.2709,-1.2709,-1.2709,-1.2709,-1.2709,-1.2709,-1.2709,-1.2709,-1.2709,-1.2709,-1.2709,-1.2709,-1.3207,-1.4287,-1.3446,-1.3151,-1.3442,-1.3758,-1.4397,-1.5298,-1.5179,-1.5193,0.0,0.0,0.0,0.0,0.0,0.0,-0.9591,0.0,-0.9064,0.0,0.0,0.0,0.0,0.0,0.0,0.0,0.0,0.0,0.0,0.0,0.0,0.0,0.0,0.0,0.0,0.0,0.0,0.0,0.0,-1.1778,-1.23,-1.2615,-1.2785,-1.2785,-1.2785,-1.2768,-1.2745,-1.2709,-1.2709,-1.2709,-1.2709,-1.2709,-1.2709,-1.2709,-1.2709,-1.2709,-1.2709,-1.2709,-1.2709,-1.2709,-1.2709,-1.2709,-1.2709,-1.2709,-1.2709,-1.2709,-1.2709,-1.2709,-1.2709,-1.2709,-1.2692,-1.2609,-1.2556,-1.252,-1.2579,-1.2532,-1.2496,-1.2656,-1.2709,-1.2709,-1.2709,-1.2709,-1.2709,-1.2709,-1.2709,-1.2709,-1.2709,-1.2709,-1.2709,-1.2709,-1.3672,-1.4514,-1.4514,-1.3492,-1.2709,-1.2709,-1.2709,-1.2709,-1.2709,-1.2709,-1.2709,-1.2709,-1.2709,-1.2709,-1.2709,-1.2709,-1.2709,-1.2709,-1.2709,-1.2709,-1.2709,-1.2709,-1.2908,-1.3361,-1.2925,-1.2815,-1.303,-1.3391,-1.3798,-1.4248,-1.4641,-1.4903,-1.3758,0.0,0.0,0.0,0.0,0.0,0.0,0.0,0.0,0.0,0.0,0.0,0.0,0.0,0.0,-1.0645,0.0,0.0,0.0,0.0,0.0,0.0,0.0,0.0,0.0,0.0,0.0,0.0,0.0,0.0,-1.2078,-1.2487,-1.2709,-1.2709,-1.2709,-1.2709,-1.2709,-1.2709,-1.2709,-1.2709,-1.2709,-1.2709,-1.2709,-1.2709,-1.2709,-1.2709,-1.2709,-1.2692,-1.2644,-1.2639,-1.2609,-1.2609,-1.2609,-1.2627,-1.2656,-1.2692,-1.2709,-1.2709,-1.2709,-1.2709,-1.2662,-1.2508,-1.2401,-1.2341,-1.2419,-1.2329,-1.2263,-1.2603,-1.2709,-1.2656,-1.2443,-1.2371,-1.2371,-1.2371,-1.2371,-1.2371,-1.2371,-1.2371,-1.2535,-1.3061,-1.4383,-1.5424,-1.5424,-1.4378,-1.3366,-1.2794,-1.2709,-1.2709,-1.2709,-1.2709,-1.2709,-1.2709,-1.2709,-1.2709,-1.2709,-1.2709,-1.2709,-1.2709,-1.2709,-1.2709,-1.2709,-1.2709,-1.2709,-1.2709,-1.2709,-1.2762,-1.2855,-1.3138,-1.3331,-1.3425,-1.4114,-1.456,0.0,0.0,0.0,-1.1829,0.0,0.0,0.0,0.0,-1.0106,0.0,0.0,0.0,0.0,-1.1071,-1.0682,-1.0694,-1.0244,0.0,0.0,0.0,0.0,0.0,0.0,0.0,0.0,0.0,0.0,0.0,0.0,0.0,-1.2607,-1.268,-1.2709,-1.2709,-1.2709,-1.2709,-1.2709,-1.2709,-1.2709,-1.2709,-1.2709,-1.2709,-1.2709,-1.2709,-1.2709,-1.2709,-1.2709,-1.2627,-1.2508,-1.2449,-1.2413,-1.2413,-1.2413,-1.2455,-1.2526,-1.2644,-1.2709,-1.2709,-1.2709,-1.2709,-1.2674,-1.2467,-1.2258,-1.2131,-1.2281,-1.2118,-1.2027,-1.255,-1.2709,-1.2532,-1.1734,-1.1541,-1.1541,-1.1541,-1.1541,-1.1541,-1.1541,-1.1541,-1.2088,-1.397,-1.441,-1.4443,-1.4443,-1.5141,-1.5022,-1.3005,-1.2709,-1.2709,-1.2709,-1.2709,-1.2709,-1.2709,-1.2709,-1.2709,-1.2709,-1.2709,-1.2709,-1.2709,-1.2709,-1.2709,-1.2709,-1.2709,-1.2709,-1.2709,-1.2709,-1.2709,-1.2709,-1.2913,-1.3074,-1.3216,-1.3772,-1.4211,0.0,0.0,-1.2952,-1.2002,0.0,0.0,0.0,0.0,0.0,0.0,0.0,0.0,0.0,-1.1347,-1.0819,-1.1236,-1.0508,-0.9905,0.0,0.0,0.0,0.0,0.0,0.0,0.0,0.0,0.0,0.0,0.0,0.0,0.0,-1.2499,-1.2709,-1.2709,-1.2709,-1.2709,-1.2709,-1.2709,-1.2709,-1.2709,-1.2709,-1.2709,-1.2709,-1.2709,-1.2709,-1.2709,-1.2709,-1.2591,-1.2419,-1.2258,-1.2204,-1.2204,-1.2204,-1.2294,-1.2455,-1.2627,-1.2644,-1.2544,-1.2419,-1.2347,-1.2258,-1.2077,-1.1998,-1.1925,-1.1656,-1.1593,-1.1567,-1.1209,-1.1105,-1.1048,-1.0784,-1.0708,-1.0708,-1.0708,-1.0708,-1.0708,-1.0708,-1.1612,-1.2635,-1.328,-1.3416,-1.3416,-1.3416,-1.3668,-1.3868,-1.3825,-1.3831,-1.3831,-1.3831,-1.2923,-1.2395,-1.2674,-1.2709,-1.2709,-1.2709,-1.3961,-1.4165,-1.2794,-1.3997,-1.4141,-1.2752,-1.2709,-1.2709,-1.2709,-1.2709,-1.2709,-1.2709,-1.2768,-1.282,-1.2873,-1.3104,-1.3518,-1.3198,-1.3301,0.0,0.0,-1.1094,0.0,-1.0408,0.0,0.0,0.0,0.0,0.0,0.0,0.0,-1.166,-1.1851,-1.0935,-1.0105,0.0,-0.9434,0.0,0.0,0.0,0.0,0.0,0.0,-1.0006,-1.0732,0.0,0.0,0.0,0.0,-1.24,-1.2591,-1.2591,-1.2591,-1.2591,-1.2591,-1.2573,-1.252,-1.2502,-1.2484,-1.2484,-1.2484,-1.2484,-1.2484,-1.2484,-1.2377,-1.2168,-1.1968,-1.1884,-1.1884,-1.1884,-1.2023,-1.2222,-1.2573,-1.2556,-1.233,-1.2138,-1.1975,-1.1847,-1.1645,-1.1601,-1.1538,-1.1134,-1.105,-1.0966,-1.0458,-1.0303,-1.0303,-1.0303,-1.0303,-1.0303,-1.0303,-1.0303,-1.0469,-1.1095,-1.2113,-1.2905,-1.2905,-1.2905,-1.2905,-1.2905,-1.2905,-1.3113,-1.3773,-1.3868,-1.3868,-1.3868,-1.3302,-1.2861,-1.2722,-1.3366,-1.3804,-1.3804,-1.5034,-1.5226,-1.3888,-1.5058,-1.5202,-1.3852,-1.3571,-1.3438,-1.3438,-1.3143,-1.2969,-1.2969,-1.2788,-1.2709,-1.2709,-1.2768,-1.3064]},{"header":{"parameterUnit":"m.s-1","parameterCategory":1,"la1":30.6,"la2":29.2853,"lo1":-89.7004,"lo2":-87.6739,"dy":0.0162,"dx":0.0183,"nx":112,"ny":82,"refTime":"2026-05-17T00:00:00:Z","depth":0,"parameterNumber":3,"parameterNumberName":"V-component_of_WINDS"},"data":[0.0,0.0,0.0,0.0,0.0,0.0,0.0,0.0,0.0,0.0,0.0,0.0,0.0,0.0,0.0,0.0,0.0,0.0,0.0,0.0,0.0,0.0,0.0,0.0,0.0,0.0,0.0,0.0,0.0,0.0,0.0,0.0,0.0,0.0,0.0,0.0,0.0,0.0,0.0,0.0,0.0,0.0,0.0,0.0,0.0,0.0,0.0,0.0,0.0,0.0,0.0,0.0,0.0,0.0,0.0,0.0,0.0,0.0,0.0,0.0,0.0,0.0,0.0,0.0,0.0,0.0,0.0,0.0,0.0,0.0,0.0,0.0,0.0,0.0,0.0,0.0,0.0,0.0,0.0,0.0,0.0,0.0,0.0,0.0,0.0,0.0,0.0,0.0,0.0,0.0,-0.1442,-0.1193,-0.0897,-0.0673,-0.0614,-0.0609,-0.0595,-0.0597,0.0,0.0,0.0,0.0,0.0,0.0,0.0,0.0,0.0,0.0,0.0,0.0,0.0,0.0,0.0,0.0,0.0,0.0,0.0,0.0,0.0,0.0,0.0,0.0,0.0,0.0,0.0,0.0,0.0,0.0,0.0,0.0,0.0,0.0,0.0,0.0,0.0,0.0,0.0,0.0,0.0,0.0,0.0,0.0,0.0,0.0,0.0,0.0,0.0,0.0,0.0,0.0,0.0,0.0,0.0,0.0,0.0,0.0,0.0,0.0,0.0,0.0,0.0,0.0,0.0,0.0,0.0,0.0,0.0,0.0,0.0,0.0,0.0,0.0,0.0,0.0,0.0,0.0,0.0,0.0,0.0,0.0,0.0,0.0,0.0,0.0,0.0,0.0,0.0,0.0,0.0,0.0,0.0,0.0,0.0,0.0,0.0,0.0,0.0,0.0,0.0,0.0,0.0,0.0,-0.1197,-0.1055,-0.0826,-0.0673,-0.0614,-0.0609,-0.0595,-0.0597,0.0,0.0,0.0,0.0,0.0,0.0,0.0,0.0,0.0,0.0,0.0,0.0,0.0,0.0,0.0,0.0,0.0,0.0,0.0,0.0,0.0,0.0,0.0,0.0,0.0,0.0,0.0,0.0,0.0,0.0,0.0,0.0,0.0,0.0,0.0,0.0,0.0,0.0,0.0,0.0,0.0,0.0,0.0,0.0,0.0,0.0,0.0,0.0,0.0,0.0,0.0,0.0,0.0,0.0,0.0,0.0,0.0,0.0,0.0,0.0,0.0,0.0,0.0,0.0,0.0,0.0,0.0,0.0,0.0,0.0,0.0,0.0,0.0,0.0,0.0,0.0,0.0,0.0,0.0,0.0,0.0,0.0,0.0,0.0,0.0,0.0,0.0,0.0,0.0,0.0,0.0,0.0,0.0,0.0,0.0,0.0,0.0,0.0,0.0,0.0,0.0,0.0,0.0,-0.0971,-0.0951,-0.0839,-0.0724,-0.0632,-0.0607,-0.0604,-0.0594,-0.0596,-0.0596,0.0,0.0,0.0,0.0,0.0,0.0,0.0,0.0,0.0,0.0,0.0,0.0,0.0,0.0,0.0,0.0,0.0,0.0,0.0,0.0,0.0,0.0,0.0,0.0,0.0,0.0,0.0,0.0,0.0,0.0,0.0,0.0,0.0,0.0,0.0,0.0,0.0,0.0,0.0,0.0,0.0,0.0,0.0,0.0,0.0,0.0,0.0,0.0,0.0,0.0,0.0,0.0,0.0,0.0,0.0,0.0,0.0,0.0,0.0,0.0,0.0,0.0,0.0,0.0,0.0,0.0,0.0,0.0,0.0,0.0,0.0,0.0,0.0,0.0,0.0,0.0,0.0,0.0,0.0,0.0,0.0,0.0,0.0,0.0,0.0,0.0,0.0,0.0,0.0,0.0,0.0,0.0,0.0,0.0,0.0,0.0,0.0,0.0,0.0,0.0,0.0,0.0,-0.0761,-0.0732,-0.069,-0.063,-0.0597,-0.0604,-0.0588,-0.0697,-0.0967,-0.0719,0.0,0.0,0.0,0.0,0.0,0.0,0.0,0.0,0.0,0.0,0.0,0.0,0.0,0.0,0.0,0.0,0.0,0.0,0.0,0.0,0.0,0.0,0.0,0.0,0.0,0.0,0.0,0.0,0.0,0.0,0.0,0.0,0.0,0.0,0.0,0.0,0.0,0.0,0.0,0.0,0.0,0.0,0.0,0.0,0.0,0.0,0.0,0.0,0.0,0.0,0.0,0.0,0.0,0.0,0.0,0.0,0.0,0.0,0.0,0.0,0.0,0.0,0.0,0.0,0.0,0.0,0.0,0.0,0.0,0.0,0.0,0.0,0.0,0.0,0.0,0.0,0.0,0.0,0.0,0.0,0.0,0.0,0.0,0.0,0.0,0.0,0.0,0.0,0.0,0.0,0.0,0.0,0.0,0.0,0.0,0.0,0.0,0.0,0.0,0.0,0.0,0.0,-0.0543,-0.0617,-0.0601,-0.0611,-0.0597,-0.0604,-0.0548,-0.0958,-0.2026,-0.126,0.0,0.0,0.0,0.0,0.0,0.0,0.0,0.0,0.0,0.0,0.0,0.0,0.0,0.0,0.0,0.0,0.0,0.0,0.0,0.0,0.0,0.0,0.0,0.0,0.0,0.0,0.0,0.0,0.0,0.0,0.0,0.0,0.0,0.0,0.0,0.0,0.0,0.0,0.0,0.0,0.0,0.0,0.0,0.0,0.0,0.0,0.0,0.0,0.0,0.0,0.0,0.0,0.0,0.0,0.0,0.0,0.0,0.0,0.0,0.0,0.0,0.0,0.0,0.0,0.0,0.0,0.0,0.0,0.0,0.0,0.0,0.0,0.0,0.0,0.0,0.0,0.0,0.0,0.0,0.0,0.0,0.0,0.0,0.0,0.0,0.0,0.0,0.0,0.0,0.0,0.0,0.0,0.0,0.0,0.0,0.0,0.0,0.0,0.0,0.0,0.0,0.0,-0.0479,-0.0538,0.0,-0.053,-0.0532,-0.0539,-0.0517,-0.0981,-0.2126,0.0,0.0,0.0,0.0,0.0,0.0,0.0,0.0,0.0,0.0,0.0,0.0,0.0,0.0,0.0,0.0,0.0,0.0,0.0,0.0,0.0,0.0,0.0,0.0,0.0,0.0,0.0,0.0,0.0,0.0,0.0,0.0,0.0,0.0,0.0,0.0,0.0,0.0,0.0,0.0,0.0,0.0,0.0,0.0,0.0,0.0,0.0,0.0,0.0,0.0,0.0,0.0,0.0,0.0,0.0,0.0,0.0,0.0,0.0,0.0,0.0,0.0,0.0,0.0,0.0,0.0,0.0,0.0,0.0,0.0,0.0,0.0,0.0,0.0,0.0,0.0,0.0,0.0,0.0,0.0,0.0,0.0,0.0,0.0,0.0,0.0,0.0,0.0,0.0,0.0,0.0,0.0,0.0,0.0,0.0,0.0,0.0,0.0,0.0,0.0,0.0,0.0,-0.0429,-0.0455,-0.0504,0.0,-0.0504,-0.0504,-0.0504,-0.0477,-0.0744,-0.1395,0.0,0.0,0.0,0.0,0.0,0.0,0.0,0.0,0.0,0.0,0.0,0.0,0.0,0.0,0.0,0.0,0.0,0.0,0.0,0.0,0.0,0.0,0.0,0.0,0.0,0.0,0.0,0.0,0.0,0.0,0.0,0.0,0.0,0.0,0.0,0.0,0.0,0.0,0.0,0.0,0.0,0.0,0.0,0.0,0.0,0.0,0.0,0.0,0.0,0.0,0.0,0.0,0.0,0.0,0.0,0.0,0.0,0.0,0.0,0.0,0.0,0.0,0.0,0.0,0.0,0.0,0.0,0.0,0.0,0.0,0.0,0.0,0.0,0.0,0.0,0.0,0.0,0.0,0.0,0.0,0.0,0.0,0.0,0.0,0.0,0.0,0.0,0.0,0.0,0.0,0.0,0.0,0.0,0.0,0.0,0.0,0.0,0.0,0.0,0.0,0.0,0.0,-0.0415,-0.0454,-0.0504,-0.0504,-0.0504,-0.0504,-0.0504,-0.0442,-0.024,0.0,0.0,0.0,0.0,0.0,0.0,0.0,0.0,0.0,0.0,0.0,0.0,0.0,0.0,0.0,0.0,0.0,0.0,0.0,0.0,0.0,0.0,0.0,0.0,0.0,0.0,0.0,0.0,0.0,0.0,0.0,0.0,0.0,0.0,0.0,0.0,0.0,0.0,0.0,0.0,0.0,0.0,0.0,0.0,0.0,0.0,0.0,0.0,0.0,0.0,0.0,0.0,0.0,0.0,0.0,0.0,0.0,0.0,0.0,0.0,0.0,0.0,0.0,0.0,0.0,0.0,0.0,0.0,0.0,0.0,0.0,0.0,0.0,0.0,0.0,0.0,0.0,0.0,0.0,0.0,0.0,0.0,0.0,0.0,0.0,0.0,0.0,0.0,0.0,0.0,0.0,0.0,0.0,0.0,0.0,0.0,0.0,0.0,0.0,0.0,0.0,0.0,0.0,-0.0412,-0.0452,-0.0498,-0.0502,-0.0504,-0.0504,-0.0504,-0.0431,-0.0648,-0.1244,0.0,0.0,0.0,0.0,0.0,0.0,0.0,0.0,0.0,0.0,0.0,0.0,0.0,0.0,0.0,0.0,0.0,0.0,0.0,0.0,0.0,0.0,0.0,0.0,0.0,0.0,0.0,0.0,0.0,0.0,0.0,0.0,0.0,0.0,0.0,0.0,0.0,0.0,0.0,0.0,0.0,0.0,0.0,0.0,0.0,0.0,0.0,0.0,0.0,0.0,0.0,0.0,0.0,0.0,0.0,0.0,0.0,0.0,0.0,0.0,0.0,0.0,0.0,0.0,0.0,0.0,0.0,0.0,0.0,0.0,0.0,0.0,0.0,0.0,0.0,0.0,0.0,0.0,0.0,0.0,0.0,0.0,0.0,0.0,0.0,0.0,0.0,0.0,0.0,0.0,0.0,0.0,0.0,0.0,0.0,0.0,0.0,0.0,0.0,0.0,0.0,0.0,-0.0412,-0.046,-0.0504,-0.0501,-0.0504,-0.0487,-0.0471,-0.0378,-0.0317,-0.0307,0.0,0.0,0.0,0.0,0.0,0.0,0.0,0.0,0.0,0.0,0.0,0.0,0.0,0.0,0.0,0.0,0.0,0.0,0.0,0.0,0.0,0.0,0.0,0.0,0.0,0.0,0.0,0.0,0.0,0.0,0.0,0.0,0.0,0.0,0.0,0.0,0.0,0.0,0.0,0.0,0.0,0.0,0.0,0.0,0.0,0.0,0.0,0.0,0.0,0.0,0.0,0.0,0.0,0.0,0.0,0.0,0.0,0.0,0.0,0.0,0.0,0.0,0.0,0.0,0.0,0.0,0.0,0.0,0.0,0.0,0.0,0.0,0.0,0.0,0.0,0.0,0.0,0.0,0.0,0.0,0.0,0.0,0.0,0.0,0.0,0.0,0.0,0.0,0.0,0.0,0.0,0.0,0.0,0.0,0.0,0.0,0.0,0.0,0.0,0.0,0.0,0.0,-0.0388,-0.0443,-0.047,-0.0484,-0.0487,-0.0454,-0.037,-0.0256,0.0425,0.185,0.0,0.0,0.0,0.0,0.0,0.0,0.0,0.0,0.0,0.0,0.0,0.0,0.0,0.0,0.0,0.0,0.0,0.0,0.0,0.0,0.0,0.0,0.0,0.0,0.0,0.0,0.0,0.0,0.0,0.0,0.0,0.0,0.0,0.0,0.0,0.0,0.0,0.0,0.0,0.0,0.0,0.0,0.0,0.0,0.0,0.0,0.0,0.0,0.0,0.0,0.0,0.0,0.0,0.0,0.0,0.0,0.0,0.0,0.0,0.0,0.5716,0.0,0.0,0.0,0.0,0.0,0.0,0.0,0.0,0.0,0.0,0.0,0.0,0.0,0.0,0.0,0.0,0.0,0.0,0.0,0.0,0.0,0.0,0.0,0.0,0.0,0.0,0.0,0.0,0.0,0.0,0.0,0.0,0.0,0.0,0.0,0.0,0.0,0.0,0.0,0.0,0.0,-0.0318,-0.0285,-0.0285,-0.0332,-0.0336,-0.0269,-0.0101,-0.006,0.0193,0.0734,0.0381,0.0,0.0,0.0,0.0,0.0,0.0,0.0,0.0,0.0,0.0,0.0,0.0,0.0,0.0,0.0,0.0,0.0,0.0,0.0,0.0,0.0,0.0,0.0,0.0,0.0,0.0,0.0,0.0,0.0,0.0,0.0,0.0,0.0,0.0,0.0,0.0,0.0,0.0,0.0,0.0,0.0,0.0,0.0,0.0,0.0,0.0,0.0,0.0,0.0,0.0,0.0,0.0,0.0,0.0,0.0,0.0,0.0,0.0,0.0,0.0,0.5964,0.0,0.0,0.0,0.0,0.0,0.0,0.0,0.0,0.0,0.0,0.0,0.0,0.0,0.0,0.0,0.0,0.0,0.0,0.0,0.0,0.0,0.0,0.0,0.0,0.0,0.0,0.0,0.0,0.0,0.0,0.0,0.0,0.0,0.0,0.0,0.0,0.0,0.0,0.0,0.0,-0.0139,-0.0043,0.003,0.0,-0.0017,0.005,0.0185,0.0226,0.0294,0.0433,0.0441,0.0,0.0,0.0,0.0,0.0,0.0,0.0,0.0,0.0,0.0,0.0,0.0,0.0,0.0,0.0,0.0,0.0,0.0,0.0,0.0,0.0,0.0,0.0,0.0,0.0,0.0,0.0,0.0,0.0,0.0,0.0,0.0,0.0,0.0,0.0,0.0,0.0,0.0,0.0,0.0,0.0,0.0,0.0,0.0,0.0,0.0,0.0,0.0,0.0,0.0,0.0,0.0,0.0,0.0,0.2109,0.2139,0.2628,0.2856,0.2826,0.2324,0.2331,0.2642,0.0,0.0,0.0,0.0,0.0,0.0,0.0,0.0,0.0,0.0,0.0,0.0,0.0,0.0,0.0,0.0,0.0,0.0,0.0,0.0,0.0,0.0,0.0,0.0,0.0,0.2196,0.2627,0.0,0.0,0.0,0.0,0.0,0.0,0.0,0.0,0.0,0.0,0.0,0.0,0.0096,0.025,0.0394,0.0384,0.0387,0.042,0.0521,0.0537,0.0552,0.0601,0.0665,0.0923,0.0,0.0,0.0,0.0,0.0,0.0,0.0,0.0,0.0,0.0,0.0,0.0,0.0,0.0,0.0,0.0,0.0,0.0,0.0,0.0,0.0,0.0,0.0,0.0,0.0,0.0,0.0,0.0,0.0,0.0,0.0,0.0,0.425,0.5759,0.0,0.0,0.0,0.0,0.0,0.0,0.0,0.0,0.0,0.0,0.0,0.0,0.0,0.0,0.2696,0.2696,0.2962,0.3481,0.3402,0.3365,0.3365,0.3447,0.3484,0.3477,0.3399,0.0,0.2692,0.2578,0.0,0.0,0.0,0.0,0.0,0.0,0.0,0.0,0.0,0.0,0.0,0.0,0.0,0.0,0.0,0.0,0.0,0.0,0.0,0.0,0.0,0.0,0.2275,0.2037,0.1949,0.1933,0.0,0.2843,0.3523,0.343,0.0,0.0,0.0,0.0,0.0,0.0,0.0,0.0,0.0366,0.0572,0.0741,0.0736,0.0739,0.0808,0.0992,0.0801,0.0773,0.1004,0.0816,0.0762,0.0902,0.1486,0.0,0.0,0.0,0.0,0.0,0.0,0.0,0.0,0.0,0.0,0.0,0.0,0.0,0.0,0.0,0.0,0.0,0.0,0.0,0.0,0.0,0.0,0.0,0.0,0.0,0.0,0.0,0.0,0.0,0.378,0.3949,0.5159,0.483,0.4516,0.0,0.0,0.0,0.0,0.0,0.0,0.0,0.0,0.0,0.2706,0.3027,0.3208,0.3208,0.3208,0.3341,0.3604,0.3604,0.3604,0.3604,0.3604,0.3604,0.3604,0.3604,0.345,0.318,0.2839,0.26,0.2392,0.0,0.0,0.0,0.0,0.0,0.2091,0.1878,0.0,0.0,0.0,0.0,0.0,0.0,0.0,0.0,0.0,0.0,0.0,0.0,0.0,0.0,0.2013,0.1957,0.1899,0.1813,0.2191,0.2603,0.0,0.3093,0.3191,0.2895,0.0,0.0,0.0,0.0,0.1094,0.093,0.1103,0.1226,0.1139,0.1138,0.1154,0.1207,0.0996,0.0921,0.1038,0.0895,0.0827,0.0857,0.1169,0.1171,0.0,0.0,0.0,0.0,0.0,0.0,0.0,0.0,0.0,0.0,0.0,0.0,0.0,0.0,0.0,0.0,0.0,0.0,0.0,0.0,0.0,0.0,0.0,0.0,0.0,0.0,0.0,0.0,0.3765,0.4289,0.5193,0.5293,0.5293,0.0,0.0,0.0,0.0,0.0,0.0,0.4992,0.4491,0.3876,0.314,0.3551,0.3711,0.3604,0.3604,0.3604,0.3604,0.3604,0.3604,0.3604,0.3604,0.3604,0.3604,0.3604,0.3604,0.3566,0.3116,0.2928,0.2878,0.2435,0.2197,0.2117,0.2217,0.2447,0.2666,0.235,0.2183,0.21,0.21,0.0,0.1922,0.1922,0.0,0.0,0.0,0.0,0.2459,0.2159,0.0,0.2125,0.2019,0.1974,0.1927,0.1819,0.1775,0.1873,0.0,0.2311,0.246,0.3192,0.0,0.0,0.0,0.0,0.1493,0.1396,0.1521,0.1582,0.1486,0.1445,0.1404,0.1352,0.1156,0.1047,0.1104,0.0974,0.0931,0.0996,0.1055,0.1098,0.115,0.0,0.0,0.0,0.0,0.0,0.0,0.0,0.0,0.0,0.0,0.0,0.0,0.0,0.0,0.0,0.0,0.0,0.0,0.0,0.0,0.0,0.0,0.0,0.0,0.0,0.0,0.0,0.0,0.0,0.5286,0.5293,0.0,0.0,0.0,0.0,0.5206,0.5244,0.5748,0.6812,0.6066,0.5172,0.4241,0.4256,0.4056,0.3604,0.3604,0.3604,0.3604,0.3604,0.3604,0.3604,0.3604,0.3604,0.3604,0.3604,0.3604,0.36,0.357,0.3556,0.3498,0.2903,0.243,0.215,0.253,0.2679,0.2696,0.2679,0.2417,0.21,0.21,0.1797,0.1436,0.1436,0.1728,0.0,0.0,0.2182,0.2312,0.2284,0.2277,0.2247,0.2041,0.1907,0.1805,0.18,0.1702,0.1658,0.0,0.2242,0.2386,0.1814,0.0,0.1872,0.138,0.1311,0.1384,0.1566,0.1651,0.1695,0.1688,0.1577,0.1492,0.1487,0.1246,0.1177,0.1365,0.1079,0.1012,0.1271,0.1278,0.128,0.1285,0.1131,0.0,0.0,0.0,0.0,0.0,0.0,0.0,0.0,0.0,0.0,0.0,0.0,0.0,0.0,0.0,0.0,0.0,0.0,0.0,0.0,0.0,0.0,0.0,0.0,0.0,0.0,0.0,0.0,0.6313,0.64,0.0,0.64,0.64,0.64,0.64,0.64,0.656,0.698,0.6163,0.5263,0.4338,0.4294,0.4078,0.3604,0.3604,0.3604,0.3604,0.3604,0.3604,0.3604,0.3604,0.3604,0.3604,0.3604,0.3604,0.3604,0.3604,0.3604,0.358,0.3365,0.3199,0.3078,0.3219,0.3279,0.3279,0.3279,0.3179,0.3057,0.3057,0.2747,0.2375,0.2375,0.2476,0.2612,0.2612,0.2495,0.2346,0.232,0.2296,0.2252,0.2041,0.1902,0.1756,0.1578,0.1504,0.1486,0.153,0.1837,0.2012,0.1767,0.175,0.1748,0.1639,0.1545,0.1581,0.1823,0.18,0.1762,0.1762,0.1637,0.1532,0.1447,0.1226,0.1133,0.1197,0.1015,0.0977,0.1163,0.1255,0.1322,0.1363,0.1311,0.1104,0.0,0.0,0.0,0.0,0.0,0.0,0.0,0.0,0.0,0.0,0.0,0.0,0.0,0.0,0.0,0.0,0.0,0.0,0.0,0.0,0.0,0.0,0.0,0.0,0.0,0.0,0.6551,0.7743,0.7888,0.7798,0.7622,0.7599,0.7599,0.7599,0.7599,0.7599,0.7599,0.6707,0.5702,0.4661,0.4637,0.4498,0.4168,0.4168,0.4168,0.4168,0.4168,0.4072,0.3901,0.3901,0.3901,0.389,0.3689,0.3604,0.3604,0.3604,0.3481,0.3297,0.3297,0.3297,0.332,0.3525,0.3604,0.3604,0.3604,0.3604,0.3604,0.3604,0.3379,0.3112,0.2957,0.289,0.2912,0.2976,0.2818,0.2601,0.2494,0.2466,0.2393,0.2099,0.1967,0.1825,0.1535,0.1472,0.1458,0.1407,0.1581,0.1729,0.1729,0.1666,0.164,0.1783,0.1688,0.1685,0.191,0.1816,0.1729,0.1729,0.161,0.1499,0.1407,0.1219,0.1121,0.1163,0.0999,0.0959,0.1096,0.1234,0.1299,0.13,0.1337,0.1353,0.1334,0.0,0.0,0.0,0.0,0.0,0.0,0.0,0.0,0.0,0.0,0.0,0.0,0.0,0.0,0.0,0.0,0.0,0.0,0.0,0.0,0.0,0.0,0.0,0.7691,0.7727,0.8209,0.9442,0.9588,0.9387,0.8857,0.8804,0.8804,0.8804,0.8804,0.8804,0.8804,0.7729,0.6571,0.5407,0.5352,0.5352,0.5352,0.5325,0.5329,0.5297,0.5297,0.5022,0.4491,0.4491,0.4491,0.4457,0.388,0.3621,0.3604,0.3626,0.3265,0.2716,0.2696,0.2696,0.2768,0.3358,0.3573,0.3573,0.3573,0.3573,0.3573,0.3573,0.3573,0.3485,0.3023,0.289,0.2932,0.3127,0.3158,0.3066,0.2851,0.2801,0.2679,0.222,0.2111,0.2009,0.1679,0.1602,0.1555,0.1423,0.1504,0.1597,0.1597,0.1597,0.1634,0.177,0.168,0.0,0.1778,0.168,0.1599,0.1602,0.1483,0.1399,0.1399,0.1222,0.1157,0.1288,0.1043,0.0956,0.1093,0.1214,0.1225,0.1104,0.1227,0.1451,0.1783,0.0,0.0,0.0,0.0,0.0,0.0,0.0,0.0,0.0,0.0,0.0,0.0,0.0,0.0,0.0,0.0,0.0,0.0,0.0,0.0,0.0,0.7477,0.7691,0.7691,0.8486,0.9194,0.9544,0.9588,0.9387,0.8857,0.8804,0.8804,0.8804,0.8804,0.8804,0.8804,0.8088,0.7354,0.6625,0.6598,0.6598,0.6598,0.6168,0.5736,0.5297,0.5297,0.5022,0.4491,0.4491,0.4491,0.4481,0.4317,0.4003,0.3622,0.3972,0.3695,0.3043,0.2795,0.2696,0.2716,0.2887,0.2945,0.2945,0.2945,0.2945,0.2945,0.2945,0.2945,0.2927,0.28,0.2764,0.2764,0.2818,0.3139,0.3393,0.3025,0.2866,0.2722,0.2396,0.2204,0.2021,0.1738,0.1637,0.1555,0.1423,0.1426,0.1461,0.1461,0.1461,0.1469,0.1501,0.148,0.0,0.1634,0.1533,0.1493,0.1594,0.1483,0.1399,0.1399,0.1301,0.1223,0.1157,0.0997,0.0913,0.0953,0.0994,0.1035,0.1101,0.1087,0.1197,0.0,0.0,0.0,0.0,0.0,0.0,0.0,0.0,0.0,0.0,0.0,0.0,0.0,0.0,0.0,0.0,0.0,0.0,0.0,0.0,0.0,0.0,0.8486,0.8486,0.8486,0.9121,0.9588,0.9588,0.9588,0.9387,0.8857,0.8804,0.8804,0.8804,0.8804,0.8804,0.8804,0.846,0.8135,0.7809,0.7809,0.7809,0.7809,0.6982,0.6141,0.5297,0.5297,0.5022,0.4491,0.4491,0.4491,0.0,0.4491,0.4153,0.3644,0.41,0.44,0.0,0.0,0.0,0.0,0.0,0.2696,0.2696,0.2696,0.2696,0.2696,0.2696,0.2696,0.2696,0.2696,0.2696,0.2696,0.2696,0.2952,0.3215,0.3142,0.2982,0.2772,0.251,0.235,0.2191,0.1896,0.179,0.1715,0.1525,0.0,0.0,0.148,0.1433,0.1399,0.1399,0.1399,0.1423,0.0,0.1453,0.1426,0.1507,0.1442,0.1399,0.1399,0.1342,0.0,0.0,0.0,0.0985,0.0985,0.0875,0.0,0.0,0.0,0.0,0.0,0.0,0.0,0.0,0.0549,0.036,0.0,0.0,0.0,0.0,0.0,0.0,0.0,0.0,0.0,0.0,0.0,0.0,0.0,0.0,0.0,0.0,0.9588,0.9588,0.9588,0.9588,0.9588,0.9588,0.9588,0.9387,0.8857,0.8804,0.8804,0.8804,0.8804,0.8804,0.8804,0.0,0.0,0.0,0.0,0.8804,0.8804,0.7676,0.649,0.5297,0.5297,0.5022,0.4491,0.4574,0.4629,0.4704,0.4765,0.4386,0.3799,0.432,0.5275,0.6404,0.6307,0.5203,0.3607,0.2961,0.2712,0.0,0.0,0.0,0.0,0.2762,0.2746,0.2712,0.2696,0.2696,0.2712,0.2746,0.2729,0.2781,0.3159,0.3082,0.2834,0.2579,0.251,0.2418,0.2097,0.201,0.1931,0.1677,0.1624,0.1624,0.1624,0.151,0.1421,0.1421,0.1421,0.0,0.1421,0.1421,0.1421,0.1421,0.0,0.0,0.1421,0.1366,0.1326,0.1311,0.1189,0.1118,0.1118,0.0873,0.0788,0.0911,0.0841,0.1077,0.1646,0.1082,0.1167,0.1808,0.0941,0.0603,0.0,0.0,0.0,0.0,0.0,0.0,0.0,0.0,0.0,0.0,0.0,0.0,0.0,0.0,0.0,0.946,0.9588,0.9588,0.9588,0.9588,0.9588,0.9588,0.9588,0.9387,0.8857,0.8804,0.8804,0.8804,0.8804,0.8804,0.8804,0.8804,0.0,0.8804,0.8804,0.8804,0.8804,0.7676,0.649,0.5297,0.0,0.0,0.4519,0.4936,0.5407,0.5891,0.6327,0.5847,0.4788,0.5653,0.6212,0.6489,0.5786,0.4712,0.3483,0.3035,0.2792,0.2696,0.2696,0.2878,0.3109,0.3109,0.299,0.2838,0.2729,0.2696,0.0,0.3027,0.2911,0.275,0.2936,0.2944,0.2852,0.27,0.2577,0.2434,0.2214,0.2124,0.2014,0.1796,0.1762,0.1762,0.1762,0.1655,0.1558,0.1558,0.1558,0.1558,0.1558,0.1558,0.1558,0.1558,0.1558,0.1558,0.1558,0.1548,0.1496,0.1385,0.1307,0.1262,0.1262,0.1055,0.0952,0.0978,0.0862,0.0964,0.13,0.1014,0.1065,0.1403,0.0953,0.0814,0.0,0.0,0.0,0.0,0.0,0.0,0.0,0.0,0.0,0.0,0.0,0.9086,0.9383,0.0,0.9581,0.9987,0.9795,0.9588,0.9588,0.9588,0.9588,0.9588,0.9588,0.9484,0.9237,0.9211,0.9087,0.8831,0.8804,0.8804,0.8804,0.8804,0.8804,0.8804,0.8804,0.8804,0.8804,0.7676,0.649,0.5297,0.5297,0.516,0.4936,0.5809,0.668,0.749,0.715,0.6619,0.6029,0.6441,0.6596,0.6518,0.5751,0.4959,0.4192,0.3616,0.3298,0.3175,0.3303,0.3455,0.3602,0.3602,0.3532,0.3429,0.3368,0.3352,0.3352,0.3352,0.3204,0.3039,0.2961,0.2872,0.2774,0.2716,0.2646,0.253,0.2296,0.2301,0.2276,0.2043,0.2077,0.2147,0.2147,0.2096,0.1975,0.1732,0.1699,0.1699,0.1699,0.1699,0.1699,0.1699,0.1699,0.1699,0.1699,0.1666,0.1601,0.1505,0.1403,0.1353,0.1353,0.1124,0.0999,0.0999,0.0868,0.0898,0.11,0.1,0.1072,0.1299,0.1126,0.1083,0.0,0.0,0.0,0.0,0.0,0.0,0.0,0.9846,1.1003,1.1355,1.1095,1.0732,1.0531,1.0719,1.0814,1.0536,1.0095,0.9725,0.9614,0.9588,0.9588,0.9588,0.9588,0.9588,0.9588,0.9588,0.9387,0.8831,0.9126,0.9337,0.9337,0.9012,0.8804,0.8804,0.8804,0.8804,0.8804,0.7836,0.6783,0.565,0.565,0.565,0.5677,0.6761,0.7809,0.8744,0.7519,0.7,0.6979,0.6859,0.6738,0.6588,0.598,0.5542,0.5152,0.4284,0.3875,0.3744,0.3956,0.4037,0.4037,0.4037,0.4026,0.401,0.4037,0.4037,0.3972,0.3695,0.3528,0.338,0.3122,0.2891,0.2746,0.2746,0.2746,0.2675,0.2434,0.2517,0.2566,0.2329,0.242,0.2534,0.2534,0.2534,0.2403,0.1993,0.1938,0.1938,0.1938,0.1938,0.1938,0.1938,0.1938,0.1913,0.1869,0.1803,0.1729,0.1647,0.1541,0.1478,0.1478,0.1243,0.1116,0.1116,0.097,0.097,0.1116,0.1101,0.1196,0.1375,0.1366,0.1348,1.0601,1.0601,1.0983,1.2584,1.1789,1.0601,0.0,1.0755,1.1365,1.2967,1.2933,1.218,1.077,1.1515,1.1953,1.0695,1.0445,1.0205,0.9666,0.9588,0.9588,0.9588,0.9588,0.9588,0.9588,0.9588,0.9387,0.8831,1.0356,1.1287,1.1287,0.9708,0.8804,0.8804,0.8804,0.8804,0.8804,0.8427,0.7803,0.6896,0.6896,0.6896,0.6923,0.7521,0.8162,0.8744,0.7519,0.7,0.6979,0.6859,0.6823,0.6818,0.6393,0.6186,0.6007,0.4723,0.4199,0.4145,0.4161,0.4178,0.4178,0.4178,0.4102,0.4026,0.4145,0.4178,0.4167,0.4058,0.3814,0.3536,0.3327,0.3072,0.2887,0.2887,0.2887,0.2831,0.2683,0.2723,0.2733,0.2586,0.2621,0.2681,0.2681,0.2681,0.2616,0.2446,0.2425,0.2425,0.2425,0.2425,0.2425,0.2425,0.2425,0.2322,0.2084,0.2004,0.1916,0.1784,0.1767,0.1757,0.1757,0.1614,0.1538,0.1538,0.1341,0.1338,0.1538,0.1469,0.1518,0.1656,0.1589,0.1501,1.1561,1.1706,1.2016,1.3266,1.3029,1.2471,1.2471,1.2471,1.2677,1.3431,1.3224,1.2603,1.1619,1.2369,1.2563,1.0797,1.0496,1.0283,0.9692,0.9588,0.9588,0.9588,0.9588,0.9588,0.9588,0.9588,0.9517,0.929,1.0711,1.1423,1.1041,1.0123,0.935,0.8818,0.8804,0.8804,0.8804,0.8699,0.8454,0.8082,0.8082,0.8082,0.8109,0.8328,0.8171,0.7719,0.7219,0.7,0.7,0.6943,0.6901,0.6867,0.6532,0.6375,0.6187,0.5227,0.4868,0.4811,0.4622,0.4543,0.4543,0.4543,0.4511,0.4485,0.4527,0.4543,0.4511,0.4372,0.4156,0.3907,0.3749,0.3544,0.3372,0.3372,0.3372,0.33,0.304,0.3104,0.3117,0.2833,0.2891,0.2988,0.2988,0.2988,0.2977,0.2913,0.274,0.2616,0.2616,0.2616,0.2616,0.2616,0.2582,0.2468,0.2241,0.2154,0.2059,0.1927,0.1916,0.1894,0.1861,0.1733,0.1641,0.1599,0.14,0.1397,0.1599,0.157,0.1611,0.17,0.1673,0.161,1.1975,1.2286,1.2586,1.3414,1.3783,1.3931,1.3648,1.3597,1.3597,1.3597,1.3344,1.2958,1.2593,1.2967,1.2703,1.0811,1.0496,1.0283,0.9692,0.9588,0.9588,0.9588,0.9588,0.9588,0.9588,0.9588,0.9588,0.9588,1.063,1.1026,1.055,1.0251,0.9806,0.9125,0.8977,0.8903,0.8903,0.8883,0.8831,0.8804,0.8804,0.8804,0.8804,0.8804,0.8132,0.7,0.7,0.7,0.7,0.7,0.6964,0.6909,0.6725,0.6572,0.6427,0.5844,0.5493,0.5249,0.494,0.4822,0.4796,0.4796,0.4796,0.4796,0.4796,0.4796,0.4764,0.4581,0.4398,0.4231,0.4118,0.394,0.3784,0.3784,0.3784,0.3684,0.3362,0.3407,0.3421,0.3034,0.309,0.3197,0.3197,0.3197,0.3197,0.3197,0.2999,0.2843,0.2843,0.2843,0.2843,0.2843,0.2761,0.2631,0.2453,0.2372,0.2285,0.214,0.2107,0.2048,0.1957,0.1845,0.1741,0.1658,0.151,0.1507,0.1658,0.1658,0.1679,0.1725,0.1725,0.1707,1.1768,1.2233,1.2843,1.3442,1.4293,1.4718,1.3803,1.3597,1.3597,1.3597,1.3597,1.3573,1.3573,1.3202,1.2389,1.0752,1.0496,1.0283,0.9692,0.9588,0.9588,0.9588,0.9588,0.9588,0.9588,0.9588,0.9588,0.9588,1.0073,1.0329,1.0307,1.004,0.9893,0.9871,0.9418,0.9185,0.9185,0.9061,0.8936,0.8804,0.8804,0.8804,0.8804,0.8804,0.8132,0.7,0.7,0.7,0.7,0.7,0.7,0.7,0.6993,0.6986,0.6932,0.6586,0.5963,0.5266,0.4999,0.4848,0.4796,0.4796,0.4796,0.4796,0.4796,0.4796,0.4774,0.4634,0.4495,0.4382,0.4312,0.4134,0.3993,0.3993,0.3993,0.3904,0.3567,0.3542,0.35,0.3156,0.3149,0.3197,0.3197,0.3197,0.3197,0.3197,0.3197,0.3187,0.3187,0.3187,0.3187,0.3187,0.3068,0.2934,0.2794,0.2724,0.2626,0.2495,0.2366,0.223,0.2102,0.2029,0.1931,0.1796,0.1792,0.1792,0.1796,0.1796,0.1799,0.1792,0.1792,0.1792,1.2741,1.3132,1.3493,1.4335,1.4769,1.4831,1.421,1.3814,1.3597,1.3597,1.3597,1.3597,1.3597,1.3478,1.2973,1.1769,1.1251,1.1149,1.1545,1.1583,1.1583,1.1583,1.0824,1.027,1.027,0.9861,0.0,0.9588,1.0016,1.0168,0.9848,0.9874,0.9792,0.9578,0.932,0.9211,0.9211,0.9061,0.8982,0.8929,0.8831,0.8804,0.8804,0.8804,0.8132,0.7,0.7,0.7,0.7,0.7,0.7,0.7,0.7,0.7,0.6966,0.668,0.6376,0.6027,0.5479,0.5286,0.5228,0.5006,0.4928,0.4928,0.4928,0.4928,0.4928,0.488,0.4832,0.4784,0.4768,0.4714,0.4672,0.4672,0.4672,0.453,0.4071,0.3983,0.3846,0.334,0.3257,0.3257,0.3208,0.3354,0.3469,0.3469,0.3317,0.3197,0.3197,0.3197,0.3197,0.3197,0.3127,0.3014,0.2886,0.2805,0.2724,0.2637,0.2545,0.2425,0.2241,0.2165,0.2066,0.1942,0.1931,0.1931,0.1931,0.1931,0.1905,0.1861,0.1861,0.1839,1.3372,1.3834,1.4252,1.4852,1.4997,1.4894,1.4465,1.4134,1.3762,1.3248,1.3134,1.3031,1.2698,1.3163,1.3348,1.2598,1.2103,1.1998,1.2522,1.259,1.2496,1.2269,1.1426,1.0788,1.0669,1.0235,0.0,0.9797,1.0053,1.0089,0.9804,0.9797,0.9701,0.9465,0.9287,0.9211,0.9211,0.8938,0.8781,0.8694,0.8756,0.8804,0.8804,0.8804,0.8132,0.7,0.7,0.7,0.7,0.7,0.7,0.7,0.7,0.7,0.698,0.6814,0.6713,0.656,0.5804,0.5518,0.545,0.5119,0.4992,0.4992,0.4992,0.4992,0.4992,0.4992,0.4992,0.4992,0.4992,0.4992,0.4992,0.4992,0.4992,0.4855,0.4318,0.4203,0.4019,0.3422,0.33,0.3289,0.3246,0.3359,0.3494,0.3585,0.3378,0.3197,0.3197,0.3197,0.3197,0.3197,0.3159,0.3095,0.3015,0.2966,0.2923,0.2886,0.2794,0.2664,0.2485,0.2415,0.2318,0.2184,0.2184,0.2184,0.2184,0.2129,0.2059,0.1968,0.1949,0.1883,1.3679,1.4366,1.5038,1.5038,1.5038,1.4945,1.4578,1.446,1.4051,1.2618,1.2276,1.1954,1.1065,1.2326,1.3443,1.3232,1.2933,1.2685,1.2609,1.259,1.2362,1.1727,1.1438,1.1201,1.086,1.0695,0.0,1.0177,0.0,1.0119,1.0104,0.9811,0.9629,0.9614,0.9354,0.92,0.92,0.8736,0.8365,0.8095,0.8528,0.8744,0.8744,0.8724,0.8072,0.7,0.7,0.7,0.7,0.7,0.7,0.7,0.7,0.7,0.7,0.7,0.7,0.6859,0.5956,0.5616,0.5495,0.5144,0.5033,0.5027,0.5014,0.5023,0.5023,0.5023,0.5023,0.5023,0.5023,0.5023,0.5023,0.5023,0.5023,0.4871,0.4331,0.421,0.4031,0.3425,0.3298,0.3306,0.3318,0.3252,0.3293,0.3561,0.3372,0.3208,0.3197,0.3197,0.3197,0.3197,0.3197,0.3197,0.3197,0.3197,0.3197,0.3197,0.3079,0.2944,0.2816,0.2745,0.2648,0.2517,0.2517,0.2517,0.2517,0.2376,0.2252,0.2113,0.2048,0.1942,1.4883,1.5328,1.5515,1.5515,1.5515,1.5308,1.4542,1.4072,1.3597,1.276,1.1871,1.1179,1.0952,1.1634,1.2477,1.3101,1.3039,1.2838,1.2615,1.259,1.2543,1.2362,1.1848,1.1493,1.1395,1.113,0.0,0.0,1.0602,1.0353,1.0111,1.0024,0.9863,0.9595,0.9354,0.92,0.92,0.8736,0.8365,0.8089,0.7963,0.7909,0.7903,0.7586,0.7286,0.7,0.7,0.7,0.7,0.7,0.7,0.7,0.7,0.7,0.7,0.7,0.7,0.694,0.65,0.6328,0.6223,0.5702,0.5521,0.5481,0.528,0.5221,0.5221,0.5221,0.5221,0.5221,0.5221,0.5221,0.5221,0.5221,0.5221,0.5056,0.4475,0.4356,0.4152,0.3497,0.3334,0.3365,0.3561,0.3423,0.3364,0.3638,0.3451,0.326,0.3208,0.3197,0.3197,0.3197,0.3197,0.3197,0.3197,0.3197,0.3197,0.3197,0.3127,0.3014,0.2886,0.2816,0.2735,0.2648,0.2648,0.2648,0.2648,0.2566,0.2457,0.2322,0.2256,0.2147,1.5421,1.5835,1.5977,1.5742,1.5432,1.4976,1.4165,1.3496,1.2813,1.2068,1.122,1.0582,1.0582,1.1045,1.1665,1.2506,1.2666,1.2732,1.2845,1.2792,1.2778,1.2895,1.2437,1.2107,1.2055,1.1745,1.1502,0.0,1.1041,1.0748,1.0536,1.0119,0.9804,0.9621,0.9051,0.8677,0.8531,0.8273,0.8045,0.7836,0.7659,0.7516,0.7472,0.7256,0.7202,0.7223,0.0,0.7181,0.7097,0.7097,0.7048,0.7,0.7,0.7,0.7,0.7,0.7,0.698,0.6834,0.678,0.666,0.5927,0.5694,0.5641,0.538,0.5293,0.5293,0.5293,0.5293,0.5293,0.5293,0.5293,0.5293,0.5293,0.5293,0.5132,0.4529,0.4402,0.4203,0.3529,0.3376,0.3416,0.3655,0.3478,0.339,0.3661,0.3478,0.3285,0.3249,0.3239,0.3239,0.3239,0.3239,0.3239,0.3239,0.3239,0.3239,0.3239,0.3207,0.3153,0.3079,0.3036,0.2998,0.2966,0.2966,0.2966,0.2966,0.2891,0.2794,0.2659,0.2535,0.242,1.5639,1.6102,1.6288,1.5773,1.5012,1.4237,1.3638,1.2772,1.1882,1.1065,1.0427,1.0035,1.0097,1.0438,1.0947,1.164,1.202,1.2448,1.3029,1.3049,1.3103,1.3301,1.3039,1.2805,1.2683,1.2313,1.2027,1.1833,1.1405,1.1115,1.1041,1.0207,0.9665,0.9497,0.8655,0.8041,0.7698,0.7691,0.7642,0.7502,0.7496,0.7426,0.7307,0.7377,0.744,0.7489,0.0,0.0,0.7195,0.7195,0.7118,0.7,0.7,0.7,0.7,0.7,0.7,0.7,0.7,0.7,0.686,0.6027,0.5772,0.5711,0.54,0.5293,0.5293,0.5293,0.5293,0.5293,0.5293,0.5293,0.5293,0.5293,0.5293,0.5132,0.4529,0.4342,0.411,0.3527,0.3408,0.3471,0.3647,0.3477,0.341,0.3639,0.3469,0.3328,0.3328,0.3317,0.3307,0.3307,0.3307,0.3307,0.3307,0.3307,0.3307,0.3307,0.3307,0.3307,0.3307,0.3307,0.3307,0.3307,0.3307,0.3307,0.3307,0.3245,0.3149,0.3019,0.2837,0.2708,1.606,1.635,1.6267,1.5618,1.4589,1.3628,1.3132,1.2047,1.1096,1.0941,0.9957,0.9232,0.9561,0.9678,0.9993,1.0771,1.1535,1.2187,1.2559,1.3213,1.3597,1.3478,1.3314,1.3147,1.2956,1.2421,0.0,0.0,0.0,1.1101,1.0718,1.0514,0.9936,0.8882,0.8429,0.8041,0.7698,0.7691,0.7642,0.7502,0.7502,0.7447,0.7377,0.7398,0.7398,0.7419,0.0,0.0,0.7195,0.7195,0.7118,0.7,0.7,0.7,0.7,0.7,0.7,0.7,0.7,0.7,0.6893,0.6305,0.6115,0.6014,0.5461,0.5293,0.5293,0.5293,0.5293,0.5293,0.5293,0.5293,0.5293,0.5293,0.5293,0.5132,0.4529,0.4009,0.3625,0.3505,0.3485,0.3498,0.3529,0.3496,0.3477,0.3523,0.349,0.3468,0.3468,0.3366,0.3307,0.3307,0.3307,0.3307,0.3307,0.3307,0.3307,0.3307,0.3307,0.3307,0.3307,0.3307,0.3307,0.3307,0.3307,0.3307,0.3307,0.3294,0.3246,0.3159,0.3068,0.2939,1.5722,1.6125,1.6229,1.556,1.4159,1.2855,1.2627,1.152,1.0458,1.0221,0.9288,0.8678,0.9118,0.9185,0.9524,1.0545,1.1203,1.1868,1.2643,1.3447,1.396,1.3922,1.3929,1.3812,1.3541,1.3086,1.2708,1.244,0.0,1.1654,1.0989,1.0409,0.9577,0.8473,0.8282,0.8041,0.7698,0.7691,0.767,0.76,0.76,0.7579,0.7566,0.7566,0.7566,0.7566,0.7566,0.0,0.7349,0.7349,0.7307,0.7196,0.7196,0.7196,0.7196,0.7196,0.7196,0.7196,0.7196,0.716,0.7017,0.6448,0.6233,0.6082,0.5474,0.5293,0.5293,0.5293,0.5293,0.5293,0.5293,0.5293,0.5316,0.5347,0.5134,0.4842,0.4522,0.3975,0.3541,0.3506,0.3495,0.3495,0.3495,0.3531,0.3545,0.3545,0.3584,0.3605,0.3605,0.3545,0.3482,0.3408,0.3398,0.3398,0.3398,0.3398,0.3398,0.3398,0.3398,0.3398,0.3398,0.3398,0.3398,0.3398,0.3398,0.3398,0.3398,0.34,0.3389,0.3357,0.3287,0.3207,1.5291,1.5887,1.6195,1.5266,1.3641,1.2307,1.2307,1.1137,0.9953,0.9565,0.8803,0.8315,0.8678,0.8751,0.9102,1.0144,1.0691,1.1397,1.253,1.3541,1.4214,1.4378,1.4581,1.4588,1.43,1.3823,0.0,0.0,0.0,0.0,1.1274,1.0252,0.9348,0.861,0.8424,0.8222,0.7961,0.7853,0.7795,0.7774,0.7774,0.7774,0.7774,0.7795,0.7816,0.7836,0.7816,0.0,0.0,0.7544,0.7489,0.7398,0.7412,0.7433,0.7461,0.7461,0.7461,0.7461,0.7433,0.7335,0.7114,0.6531,0.6276,0.6082,0.5474,0.5293,0.5293,0.5293,0.5293,0.5293,0.5293,0.5293,0.5331,0.5458,0.5095,0.4696,0.4599,0.4129,0.3684,0.3523,0.3495,0.3495,0.3495,0.3556,0.3612,0.3643,0.3703,0.3762,0.3804,0.3783,0.371,0.3584,0.3541,0.351,0.3506,0.3495,0.3495,0.3495,0.3495,0.3495,0.3495,0.3495,0.3495,0.3495,0.3495,0.3495,0.3495,0.3495,0.3495,0.3495,0.3446,0.3415,1.5209,1.5887,1.5987,1.4221,1.3043,1.2307,1.2307,1.0888,0.9544,0.952,0.8803,0.8222,0.8263,0.8263,0.845,0.8984,0.9757,1.0635,1.1582,1.3199,1.4415,1.4708,1.5081,1.5264,1.5089,1.4304,1.3758,0.0,0.0,0.0,0.0,1.0332,0.9922,0.9843,0.9185,0.8806,0.8783,0.8357,0.8106,0.7979,0.7979,0.7979,0.7979,0.8106,0.8216,0.8332,0.0,0.0,0.0,0.7732,0.7566,0.7412,0.7461,0.7572,0.767,0.767,0.767,0.7649,0.753,0.7363,0.7114,0.6637,0.6362,0.6082,0.5474,0.5293,0.5293,0.5293,0.5293,0.5293,0.5293,0.5293,0.5372,0.5686,0.5443,0.5088,0.4906,0.4482,0.4013,0.3591,0.3495,0.3495,0.3495,0.3556,0.3643,0.3761,0.3841,0.3952,0.4135,0.4042,0.3918,0.3782,0.3664,0.3566,0.3506,0.3495,0.3495,0.3495,0.3495,0.3495,0.3495,0.3495,0.3495,0.3495,0.3495,0.3495,0.3495,0.3495,0.3495,0.3495,0.3495,0.3457,1.4227,1.4775,1.4981,1.3865,1.2793,1.1985,1.1913,1.0632,0.9437,0.9185,0.8632,0.8201,0.8201,0.8201,0.8263,0.845,0.9443,1.0324,1.0694,1.2565,1.3889,1.396,1.4476,1.4814,0.0,0.0,1.3844,0.0,0.0,0.0,0.0,1.1282,1.0883,1.0733,1.0432,1.0,0.9453,0.9127,0.8731,0.8242,0.8242,0.8242,0.8242,0.8427,0.859,0.8753,0.0,0.0,0.0,0.7974,0.7767,0.7587,0.7731,0.7925,0.8126,0.8126,0.8126,0.8085,0.7884,0.7607,0.7307,0.6868,0.6684,0.6489,0.5758,0.5568,0.5592,0.5592,0.5592,0.5592,0.5592,0.5655,0.5757,0.5936,0.5762,0.5468,0.5158,0.4738,0.4305,0.383,0.3741,0.3741,0.3741,0.3804,0.3869,0.3965,0.4066,0.4166,0.425,0.4207,0.4133,0.3996,0.3789,0.3615,0.3506,0.3495,0.3495,0.3495,0.3495,0.3495,0.3495,0.3495,0.3495,0.3495,0.3495,0.3495,0.3495,0.3495,0.3495,0.3495,0.3495,0.3588,1.3359,1.3803,1.4103,1.3535,1.2584,1.1737,1.1467,1.0415,0.9386,0.8989,0.8523,0.8201,0.8201,0.8201,0.8201,0.8201,0.9118,0.9908,1.0159,1.182,1.3068,1.3239,1.382,1.425,0.0,1.4208,0.0,0.0,0.0,0.0,0.0,1.2433,1.199,1.1603,1.1475,1.1004,1.0193,0.9876,0.9346,0.8578,0.8618,0.8618,0.8578,0.8785,0.9007,0.9185,0.0,0.0,0.0,0.8308,0.809,0.7919,0.8124,0.8357,0.8578,0.8578,0.8578,0.8537,0.8296,0.7979,0.7628,0.7186,0.7057,0.6952,0.6243,0.6021,0.5998,0.5998,0.5998,0.5998,0.5998,0.6098,0.6214,0.6344,0.6247,0.602,0.5657,0.5233,0.4785,0.4318,0.4107,0.4017,0.4017,0.4066,0.4156,0.4262,0.4352,0.4441,0.4495,0.4472,0.4401,0.4293,0.4068,0.3848,0.3636,0.3615,0.3615,0.3615,0.3601,0.358,0.3559,0.3541,0.352,0.3495,0.3495,0.3495,0.3495,0.3495,0.3495,0.3495,0.361,0.3821,1.2791,1.3245,1.3493,1.3029,1.2347,1.1634,1.1045,1.018,0.9386,0.8989,0.8523,0.8201,0.8201,0.8201,0.8201,0.8201,0.8605,0.9211,1.0084,1.1012,1.1944,1.2801,1.3318,1.3783,1.4273,1.4289,0.0,0.0,0.0,0.0,0.0,1.3586,1.3238,1.252,1.2101,1.1628,1.1079,1.0572,0.9855,0.8996,0.9116,0.9116,0.8996,0.9199,0.9437,0.0,0.0,0.0,0.0,0.8785,0.8561,0.8414,0.8602,0.8825,0.8996,0.8996,0.8996,0.8955,0.8765,0.8467,0.81,0.7565,0.7434,0.7401,0.6941,0.6649,0.6495,0.6495,0.6495,0.6495,0.6495,0.6542,0.6656,0.6927,0.6936,0.6816,0.6551,0.6066,0.5542,0.5083,0.4613,0.4303,0.4303,0.4352,0.4463,0.4665,0.4696,0.4764,0.497,0.4882,0.4764,0.4705,0.4567,0.4333,0.3931,0.39,0.39,0.39,0.3842,0.3769,0.3699,0.364,0.3566,0.3506,0.3495,0.3495,0.3495,0.3495,0.3495,0.3513,0.3839,0.4134,1.1882,1.2359,1.268,1.2535,1.183,1.1055,1.053,0.9733,0.8963,0.8523,0.8305,0.8201,0.8201,0.8201,0.7994,0.7348,0.818,0.8885,0.8839,1.0153,1.1468,1.239,1.3144,1.3648,0.0,0.0,0.0,0.0,0.0,0.0,0.0,1.3597,1.3501,1.3262,1.3145,1.2642,1.178,1.149,1.0767,0.9684,0.9724,0.9675,0.9558,0.9755,0.0,0.0,0.0,0.0,0.0,0.9199,0.8987,0.8834,0.9027,0.9239,0.9419,0.9466,0.9457,0.937,0.9179,0.8947,0.8698,0.8444,0.8438,0.8424,0.7862,0.7292,0.6844,0.6844,0.6844,0.6844,0.6844,0.6897,0.6981,0.7107,0.7121,0.7013,0.6703,0.6466,0.609,0.5359,0.5085,0.4898,0.4625,0.4594,0.4635,0.4754,0.4804,0.4873,0.499,0.4922,0.4834,0.4774,0.4685,0.4507,0.4201,0.4171,0.4171,0.4171,0.4107,0.4024,0.3906,0.3841,0.3855,0.3981,0.3969,0.4085,0.4326,0.4326,0.4326,0.432,0.4568,0.4733,1.0899,1.1406,1.1737,1.156,1.1074,1.0458,0.9846,0.9284,0.8761,0.8294,0.8201,0.8201,0.8201,0.8201,0.8014,0.7421,0.8052,0.8657,0.8679,0.9815,1.1045,1.2183,0.0,0.0,0.0,0.0,0.0,0.0,0.0,0.0,0.0,0.0,1.3597,1.3597,1.3597,1.3129,1.2104,1.1975,1.1301,1.0108,1.0127,1.0079,0.9923,1.0098,0.0,0.0,0.0,0.0,0.0,0.9567,0.9397,0.9286,0.9437,0.9607,0.9755,0.9803,0.9783,0.9716,0.9547,0.9397,0.9224,0.9019,0.8839,0.8638,0.8306,0.7766,0.7264,0.7264,0.7264,0.7264,0.7264,0.7303,0.7333,0.7383,0.7397,0.7332,0.7126,0.6928,0.6634,0.6083,0.5718,0.541,0.516,0.4964,0.4863,0.4912,0.4942,0.4991,0.503,0.5001,0.4961,0.4922,0.4873,0.4775,0.4616,0.4505,0.4453,0.4453,0.4362,0.4252,0.4122,0.4163,0.4252,0.4355,0.4448,0.4592,0.4769,0.4724,0.4755,0.4849,0.4948,0.5051,0.0,1.0456,1.0745,1.0273,1.0149,0.9939,0.9093,0.888,0.0,0.8309,0.8215,0.8205,0.8174,0.8195,0.8205,0.8174,0.8226,0.8554,0.9402,0.9994,1.0857,0.0,1.271,0.0,0.0,0.0,0.0,0.0,0.0,0.0,0.0,0.0,1.3597,1.3597,1.3566,1.3099,1.2114,1.2104,1.153,1.0341,1.0409,1.0351,1.0157,1.0283,0.0,0.0,0.0,0.0,0.0,0.9902,0.9823,0.9773,0.9823,0.9921,1.0019,1.0019,1.0019,1.0,0.9882,0.9793,0.9688,0.9376,0.8825,0.8316,0.8441,0.8125,0.7695,0.7695,0.7695,0.7695,0.7695,0.7695,0.7695,0.7695,0.7695,0.7695,0.7695,0.7408,0.7139,0.7109,0.6448,0.5881,0.5813,0.5429,0.5137,0.5108,0.5098,0.5098,0.5098,0.5098,0.5098,0.5098,0.5098,0.5098,0.5098,0.4872,0.4731,0.4731,0.4604,0.4493,0.4387,0.4612,0.4734,0.4728,0.4965,0.5051,0.498,0.4842,0.4912,0.5146,0.5081,0.5182,0.8611,0.0,1.0252,0.9788,0.9674,0.9547,0.0,0.874,0.8488,0.8372,0.8389,0.8308,0.7893,0.8104,0.8234,0.7879,0.8421,0.9061,0.9586,1.0904,1.2079,1.2832,1.3221,1.3478,0.0,0.0,0.0,0.0,0.0,0.0,0.0,0.0,1.3597,1.3597,1.3245,1.2801,1.2265,1.2254,1.1747,1.0766,1.0775,1.0737,1.065,1.0669,0.0,0.0,0.0,0.0,1.0458,1.0428,1.039,1.04,1.0409,1.037,1.0312,1.0312,1.0273,1.0225,1.0186,1.0166,1.0157,1.007,0.9692,0.9273,0.9318,0.8568,0.7695,0.7695,0.7695,0.7695,0.7695,0.7695,0.7695,0.7695,0.7695,0.7695,0.7695,0.7618,0.7466,0.7168,0.6934,0.6585,0.5921,0.5704,0.5518,0.5146,0.5098,0.5098,0.5098,0.5098,0.5098,0.5098,0.5098,0.5098,0.5098,0.5049,0.501,0.501,0.4922,0.499,0.5216,0.5183,0.5394,0.5895,0.5961,0.5911,0.5748,0.5598,0.5582,0.564,0.557,0.5567,0.829,0.8942,0.9485,0.902,0.9061,0.9134,0.8793,0.8631,0.8551,0.8578,0.8606,0.8541,0.8222,0.8474,0.8638,0.8393,0.8957,0.9701,1.0512,1.1848,1.2918,1.3357,1.364,0.0,0.0,0.0,0.0,0.0,0.0,0.0,0.0,0.0,1.3493,1.3287,1.3029,1.271,1.2307,1.2089,1.1623,1.091,1.091,1.0862,1.0803,1.0803,0.0,0.0,0.0,0.0,1.0602,1.0602,1.0602,1.0602,1.0602,1.0525,1.0399,1.0399,1.037,1.0303,1.0303,1.0303,1.0303,1.0303,0.9853,0.9328,0.9328,0.8552,0.7744,0.7954,0.7866,0.7695,0.7695,0.7695,0.7695,0.7695,0.7695,0.7695,0.7695,0.7695,0.7627,0.7418,0.7236,0.6943,0.6477,0.6223,0.5986,0.5741,0.5691,0.5691,0.5691,0.5536,0.5419,0.5419,0.5224,0.5098,0.5098,0.5098,0.5098,0.5098,0.5068,0.5199,0.5541,0.5623,0.5967,0.6607,0.6557,0.6437,0.623,0.6091,0.6029,0.6029,0.592,0.5858,0.8425,0.8768,0.9009,0.8492,0.8785,0.9108,0.88,0.8868,0.9038,0.9111,0.9068,0.8984,0.8898,0.9039,0.9193,0.9268,0.9772,1.0584,1.1814,1.2732,1.3443,1.3828,1.3939,0.0,0.0,0.0,0.0,0.0,0.0,0.0,0.0,0.0,0.0,1.2915,1.277,1.2534,1.2204,1.1809,1.1354,1.091,1.091,1.0881,1.0822,1.0822,0.0,0.0,0.0,0.0,1.064,1.064,1.064,1.064,1.064,1.0563,1.0457,1.0457,1.0409,1.0341,1.0341,1.0341,1.0341,1.0341,0.9801,0.9136,0.9136,0.8538,0.7915,0.8318,0.8072,0.7695,0.7695,0.7695,0.7695,0.7695,0.7695,0.7695,0.7695,0.7695,0.7695,0.7695,0.7427,0.7178,0.7109,0.6768,0.6484,0.6404,0.6394,0.6394,0.6394,0.6056,0.5803,0.5803,0.538,0.5098,0.5098,0.5098,0.5098,0.5098,0.5107,0.5289,0.5705,0.6118,0.6578,0.7068,0.693,0.6772,0.6582,0.6429,0.6368,0.6368,0.6237,0.6152,0.8533,0.9347,0.9999,0.9299,0.982,1.0441,1.0237,1.0328,1.0498,1.0563,1.0256,0.9935,0.975,0.9611,0.9633,0.998,1.1006,1.2095,0.0,0.0,1.35,1.4075,0.0,0.0,0.0,0.0,0.0,0.0,0.0,0.0,0.0,0.0,0.0,1.2905,1.2182,1.1768,1.1715,1.1653,1.1354,1.091,1.091,1.0881,1.0881,1.0881,1.0862,0.0,0.0,1.0843,1.0843,1.0843,1.0843,1.0843,1.0843,1.0813,1.0746,1.0746,1.0659,1.0544,1.0544,1.0544,1.0544,1.0544,1.0193,0.9754,0.9754,0.9144,0.8479,0.8549,0.8153,0.7695,0.7695,0.7695,0.7695,0.7695,0.7695,0.7695,0.7695,0.7695,0.7695,0.7695,0.7647,0.7505,0.7168,0.7041,0.6855,0.6465,0.6394,0.6394,0.6394,0.6056,0.5803,0.5803,0.538,0.5098,0.5098,0.5098,0.5098,0.5098,0.5108,0.5457,0.6244,0.7036,0.7444,0.7421,0.7235,0.7062,0.6927,0.6738,0.6639,0.6639,0.6624,0.6542,0.8755,0.9566,1.0293,1.0282,1.0996,1.167,1.142,1.1516,1.1675,1.1751,1.1336,1.0912,1.0735,1.0634,1.0742,1.1204,1.2232,1.3086,1.3443,1.3735,1.3972,0.0,0.0,0.0,0.0,0.0,0.0,0.0,0.0,0.0,0.0,0.0,0.0,0.0,1.1809,1.1477,1.1219,1.1219,1.1116,1.091,1.091,1.091,1.091,1.091,1.091,1.091,0.0,1.091,1.091,1.091,1.091,1.091,1.091,1.0862,1.0803,1.0717,1.0659,1.0602,1.0602,1.0602,1.0602,1.0602,1.0166,0.9646,0.967,0.9082,0.8383,0.8383,0.8098,0.7792,0.7759,0.7744,0.7744,0.7744,0.7744,0.7759,0.7792,0.7807,0.7807,0.7807,0.7807,0.7747,0.7563,0.7534,0.7454,0.7236,0.7207,0.7207,0.7207,0.6865,0.6609,0.6609,0.599,0.5592,0.5592,0.5353,0.5284,0.5469,0.5683,0.6102,0.6758,0.7379,0.7652,0.7554,0.7427,0.7318,0.7223,0.7047,0.6978,0.6978,0.6978,0.6904,0.8997,0.9651,1.028,1.0917,1.1846,1.254,1.2385,1.2601,1.2851,1.2942,1.2485,1.2039,1.1992,1.1802,1.183,1.2438,1.3166,1.3718,1.385,1.4246,0.0,0.0,0.0,0.0,0.0,0.0,0.0,0.0,0.0,0.0,0.0,0.0,0.0,0.0,1.1558,1.13,1.0949,1.093,1.091,1.091,1.091,1.091,1.091,1.091,1.091,1.091,1.091,1.091,1.091,1.091,1.091,1.091,1.091,1.0881,1.0813,1.0708,1.0669,1.0669,1.0669,1.0669,1.0669,1.0669,1.0144,0.9503,0.9593,0.9004,0.8301,0.8301,0.8152,0.7984,0.7836,0.7831,0.7875,0.7865,0.7894,0.7937,0.8013,0.8027,0.8027,0.8027,0.8027,0.8027,0.8027,0.8013,0.7984,0.797,0.7966,0.7937,0.7912,0.7544,0.7309,0.7309,0.6615,0.616,0.616,0.5836,0.5773,0.6135,0.6447,0.6769,0.7134,0.7542,0.7729,0.7666,0.7613,0.7549,0.7499,0.7377,0.7314,0.7314,0.7314,0.7249,0.924,0.9696,1.0094,1.0837,1.1952,1.2918,1.3076,1.3604,1.4116,1.4236,1.3835,1.351,1.3693,1.2962,1.2586,1.3374,1.3563,1.3929,1.4857,0.0,0.0,0.0,0.0,0.0,0.0,0.0,0.0,0.0,0.0,0.0,0.0,0.0,0.0,0.0,0.0,1.1124,1.1092,1.0968,1.091,1.091,1.091,1.091,1.091,1.091,1.091,1.091,1.091,1.091,1.091,1.091,1.091,1.091,1.091,1.091,1.0881,1.0881,1.0881,1.0881,1.0881,1.0881,1.0881,1.0881,1.0388,0.9791,0.9934,0.9301,0.8572,0.8572,0.8477,0.8269,0.7894,0.7942,0.8082,0.808,0.8166,0.828,0.834,0.8368,0.8368,0.8368,0.8368,0.8368,0.8368,0.8308,0.8248,0.8187,0.8125,0.8043,0.7912,0.7544,0.7309,0.7309,0.691,0.6649,0.6649,0.6618,0.6768,0.7165,0.7213,0.7256,0.7283,0.7667,0.7884,0.7884,0.7821,0.7773,0.7773,0.77,0.7666,0.7666,0.7666,0.7593,0.9474,0.988,1.0238,1.0895,1.1983,1.3011,1.347,1.4317,1.5012,1.5081,1.4613,1.4072,1.3556,1.3372,1.3427,1.3907,1.4217,1.4676,0.0,0.0,0.0,0.0,0.0,0.0,0.0,0.0,0.0,0.0,0.0,0.0,0.0,0.0,0.0,0.0,0.0,1.1139,1.1111,1.1054,1.0987,1.091,1.0987,1.1044,1.1101,1.1101,1.1101,1.1071,1.1044,1.0987,1.091,1.0987,1.1044,1.1109,1.122,1.1266,1.1266,1.1266,1.1266,1.1266,1.1266,1.1266,1.1266,1.1266,1.0963,1.0564,1.037,0.9878,0.934,0.8995,0.8784,0.8551,0.8101,0.8101,0.8248,0.8326,0.8453,0.8592,0.8745,0.8773,0.8773,0.8773,0.8773,0.8773,0.8773,0.8676,0.8565,0.846,0.8361,0.8248,0.8105,0.7961,0.7859,0.7859,0.7462,0.7081,0.6793,0.703,0.7266,0.7418,0.7349,0.7417,0.7661,0.7822,0.7898,0.7898,0.7836,0.7792,0.7792,0.7739,0.7695,0.7695,0.7695,0.7642,0.9741,1.0059,1.0379,1.0976,1.1877,1.2768,1.3386,1.455,1.5487,1.5487,1.5285,1.4785,1.3768,1.3923,1.4256,0.0,1.4833,0.0,0.0,0.0,0.0,0.0,0.0,0.0,0.0,0.0,0.0,0.0,0.0,0.0,0.0,0.0,0.0,0.0,0.0,0.0,1.1317,1.1268,1.1193,1.1099,1.1268,1.1325,1.1287,1.1287,1.1287,1.1287,1.1166,1.1044,1.09,1.1063,1.1223,1.1407,1.1608,1.17,1.17,1.17,1.17,1.17,1.17,1.17,1.17,1.17,1.1485,1.1206,1.0983,1.0498,0.9948,0.9571,0.9225,0.8869,0.8485,0.8418,0.8481,0.8609,0.8761,0.8937,0.9112,0.9164,0.9164,0.9164,0.9164,0.9164,0.9164,0.9046,0.891,0.8781,0.8631,0.8481,0.8333,0.8329,0.8315,0.8301,0.7949,0.7587,0.7276,0.7535,0.7721,0.7721,0.763,0.7708,0.7984,0.7994,0.7994,0.7994,0.7932,0.7899,0.7899,0.7802,0.7759,0.7759,0.7759,0.7813,1.0059,1.0198,1.0443,1.1057,1.1604,1.2164,1.2768,1.4245,1.5487,1.55,1.588,1.5834,1.4637,1.4801,1.5057,1.4935,1.5361,0.0,0.0,0.0,0.0,0.0,0.0,0.0,0.0,0.0,0.0,0.0,0.0,0.0,0.0,0.0,0.0,0.0,0.0,0.0,1.1811,1.1671,1.1579,1.1516,1.1781,1.1763,1.1516,1.1516,1.1516,1.1497,1.1287,1.109,1.0919,1.1128,1.1445,1.1829,1.2041,1.2113,1.2113,1.2113,1.2113,1.2113,1.2113,1.2113,1.2113,1.2113,1.1885,1.1647,1.1757,1.1111,1.0324,1.0312,0.9827,0.9259,0.9058,0.891,0.883,0.8887,0.9103,0.9339,0.9472,0.951,0.951,0.951,0.951,0.951,0.951,0.9393,0.9259,0.9133,0.8935,0.8759,0.8617,0.86,0.8572,0.8513,0.8315,0.8201,0.8201,0.8201,0.8201,0.8201,0.8201,0.8201,0.8201,0.8201,0.8201,0.8201,0.8136,0.8107,0.8107,0.7966,0.7898,0.7898,0.7898,0.8153,1.0161,1.0535,1.0991,1.1161,1.2233,1.3304,1.349,1.4563,1.5617,1.6049,1.6238,1.6094,1.5307,1.5289,0.0,1.5892,0.0,0.0,0.0,0.0,0.0,0.0,0.0,0.0,0.0,0.0,0.0,0.0,0.0,0.0,0.0,0.0,0.0,0.0,0.0,0.0,1.2282,1.2246,1.218,1.2072,1.2288,1.2228,1.1932,1.2077,1.2059,1.1902,1.1756,1.1553,1.1341,1.1693,1.1986,1.224,1.2449,1.252,1.252,1.252,1.252,1.252,1.252,1.252,1.252,1.252,1.2495,1.2396,1.2093,1.183,1.156,1.118,1.059,1.0053,0.9944,0.9641,0.9354,0.9331,0.9449,0.9618,0.975,0.9776,0.9776,0.9776,0.9776,0.9776,0.9776,0.9659,0.9539,0.9408,0.9178,0.8905,0.8642,0.86,0.86,0.8572,0.8432,0.8305,0.8201,0.8201,0.8201,0.8201,0.8201,0.8201,0.8201,0.8201,0.8201,0.8201,0.8136,0.8107,0.8107,0.7966,0.7898,0.7912,0.8234,0.847,1.0522,1.1042,1.1579,1.1816,1.2849,1.3961,1.4563,1.5309,1.6009,1.6598,1.6715,1.6532,1.5957,1.6023,0.0,0.0,0.0,0.0,0.0,0.0,0.0,0.0,0.0,0.0,0.0,0.0,0.0,0.0,0.0,0.0,0.0,0.0,0.0,0.0,0.0,0.0,1.275,1.275,1.2668,1.2549,1.2731,1.2731,1.2549,1.2579,1.2532,1.2395,1.2144,1.1963,1.192,1.2258,1.2502,1.2709,1.289,1.2978,1.296,1.292,1.2903,1.2903,1.2903,1.2903,1.2903,1.2903,1.2938,1.2911,1.2617,1.2415,1.2208,1.1889,1.1347,1.0868,1.0829,1.0435,0.9955,0.9655,0.9659,0.9763,0.988,0.9905,0.9905,0.9905,0.9905,0.9905,0.9905,0.9802,0.9698,0.9568,0.938,0.919,0.8987,0.8864,0.8795,0.8795,0.8726,0.8544,0.823,0.8201,0.8201,0.8201,0.8301,0.8319,0.8244,0.8215,0.8201,0.8201,0.8154,0.814,0.814,0.8062,0.8115,0.8298,0.8588,0.8903,1.1017,1.1591,1.2138,1.2742,1.3399,1.4302,1.5852,1.6343,1.6611,1.7094,1.7199,1.7042,1.6558,1.6872,1.7042,0.0,0.0,0.0,0.0,0.0,0.0,0.0,0.0,0.0,0.0,0.0,0.0,0.0,0.0,0.0,0.0,0.0,0.0,0.0,0.0,0.0,1.3163,1.3159,1.3094,0.0,1.316,1.3251,1.3246,1.3052,1.2936,1.2899,1.2449,1.2372,1.2579,1.275,1.2955,1.3146,1.3323,1.3408,1.3374,1.325,1.3198,1.3198,1.3198,1.3198,1.3198,1.3198,1.3198,1.3198,1.3198,1.2864,1.2463,1.2463,1.209,1.1678,1.1678,1.1211,1.0566,0.9959,0.9813,0.9828,0.9893,0.9905,0.9905,0.9905,0.9905,0.9905,0.9905,0.9854,0.9776,0.9647,0.9579,0.9538,0.9538,0.9324,0.9162,0.9162,0.916,0.8903,0.8329,0.8272,0.8272,0.8272,0.8516,0.8572,0.8389,0.8272,0.8215,0.8201,0.8201,0.8201,0.8201,0.8243,0.8481,0.8896,0.8979,0.945,1.0913,1.1591,1.2138,1.2742,1.3788,1.5063,1.6611,1.699,1.7055,1.7173,1.7199,1.716,1.7042,1.712,0.0,0.0,0.0,0.0,0.0,0.0,0.0,0.0,0.0,0.0,0.0,0.0,0.0,0.0,0.0,0.0,0.0,0.0,0.0,0.0,0.0,1.3657,1.3654,1.3654,1.3624,0.0,1.3657,1.3674,1.3657,1.3459,1.328,1.3113,1.2808,1.2785,1.2973,1.3025,1.3146,1.334,1.3374,1.3408,1.3374,1.325,1.3198,1.3198,1.3198,1.3198,1.3198,1.3198,1.3198,1.3198,1.3198,1.3123,1.304,1.304,1.2638,1.2228,1.2228,1.1588,1.0896,1.0742,1.0293,0.988,0.9905,0.9905,0.9905,0.9905,0.9905,0.9905,0.9905,0.9893,0.9867,0.9841,0.9828,0.9815,0.9815,0.9763,0.9724,0.9724,0.9551,0.9271,0.893,0.8903,0.8903,0.8903,0.8958,0.8971,0.893,0.8561,0.8322,0.8276,0.823,0.8201,0.8201,0.8574,0.8792,0.8917,0.9598,1.0015,1.0455,1.1368,1.2294,1.3549,1.4128,1.4872,1.6767,1.7199,1.7199,1.7199,1.7199,1.722,1.7274,1.7308,0.0,0.0,0.0,0.0,0.0,0.0,0.0,0.0,0.0,0.0,0.0,0.0,0.0,0.0,0.0,0.0,0.0,0.0,0.0,0.0,1.3804,1.3804,1.3804,1.3804,1.3804,1.3804,1.3804,1.3804,1.3804,1.3691,1.3594,1.3493,1.3276,1.3237,1.334,1.334,1.3408,1.3497,1.3497,1.3497,1.3493,1.3374,1.334,1.334,1.334,1.334,1.334,1.334,1.334,1.334,1.334,1.334,1.334,1.334,1.3141,1.2926,1.2892,1.2244,1.1701,1.1977,1.096,0.9905,0.9905,0.9905,0.9905,0.9905,0.9905,0.9905,0.9905,0.9905,0.9905,0.9905,0.9905,0.9905,0.9905,0.9905,0.9905,0.9905,0.9775,0.9632,0.9499,0.9486,0.9486,0.9486,0.9486,0.9486,0.9486,0.9309,0.9043,0.8689,0.8775,0.8823,0.8823,0.9061,0.9299,0.9543,0.9991,1.0314,0.996,1.1186,1.2516,1.4267,1.4258,1.4406,1.6676,1.7199,1.7199,1.7199,1.722,1.7274,1.7384,0.0,0.0,0.0,0.0,0.0,0.0,0.0,0.0,0.0,0.0,0.0,0.0,0.0,0.0,0.0,0.0,0.0,0.0,0.0,1.3804,1.3804,1.3804,1.3804,1.3804,1.3804,1.3804,1.3804,1.3804,1.3804,1.3804,1.3804,1.3804,1.3788,1.3661,1.3615,1.3632,1.3615,1.3615,1.3632,1.3615,1.3598,1.3598,1.3514,1.3497,1.3497,1.3497,1.3497,1.3497,1.3497,1.3497,1.3497,1.3497,1.3497,1.3497,1.3497,1.348,1.3476,1.3408,1.2933,1.258,1.3082,1.1844,1.0451,0.9994,0.9905,0.9905,0.9905,0.9905,0.9905,0.9905,0.9905,0.9905,0.9905,0.9905,0.9905,0.9905,0.9905,0.9905,0.9905,0.9905,0.9905,0.9905,0.9905,0.9905,0.9905,0.9905,0.9905,0.9905,1.0219,1.0125,0.955,0.9578,0.9593,0.9576,0.9642,0.9853,1.0236,1.0319,1.0539,0.9844,1.1395,1.2755,1.3696,1.3866,1.4406,1.6676,1.7199,1.7199,1.7199,1.7303,1.7385,0.0,0.0,0.0,0.0,0.0,0.0,0.0,0.0,0.0,0.0,0.0,0.0,0.0,0.0,0.0,0.0,0.0,0.0,0.0,1.3804,1.3804,1.3804,1.3804,1.3804,1.3804,1.3804,1.3804,1.3804,1.3804,1.3804,1.3804,1.3804,1.3804,1.3788,1.3661,1.3661,1.3758,1.3644,1.3661,1.3758,1.3644,1.3598,1.3598,1.3514,1.3497,1.3497,1.3497,1.3497,1.3497,1.3497,1.3497,1.3497,1.3497,1.3497,1.3497,1.3497,1.3459,1.3408,1.3408,1.3242,1.309,1.3173,1.3242,1.266,1.0387,0.9905,0.9905,0.9905,0.9905,0.9905,0.9905,0.9905,0.9905,0.9905,0.9905,0.9905,0.9905,0.9905,0.9905,0.9905,0.9905,0.9905,0.9905,0.9905,0.9905,0.9905,0.9905,0.9905,0.9905,1.0979,1.1489,1.1272,1.0451,0.9988,0.9934,1.0223,1.0369,1.0382,1.079,1.0943,0.9818,1.0795,1.1709,1.337,1.3804,1.4066,1.5055,1.6284,1.7199,1.7199,1.7261,1.7323,0.0,0.0,0.0,0.0,0.0,0.0,0.0,0.0,0.0,0.0,0.0,0.0,0.0,0.0,0.0,0.0,0.0,0.0,1.3831,1.3804,1.3804,1.3804,1.3804,0.0,1.3804,1.3804,1.3804,1.3804,1.3804,1.3804,1.3804,1.3804,1.3804,1.3804,1.3741,1.3741,1.3804,1.3741,1.3741,1.3788,1.3741,1.3711,1.3708,1.3674,1.3674,1.3674,1.3674,1.3674,1.3674,1.3674,1.3674,1.3674,1.3674,1.3674,1.3674,1.3674,1.3657,1.3624,1.3624,1.3573,1.3552,1.3552,1.367,1.3497,1.2331,1.2094,1.2094,1.2094,1.2094,1.2094,1.2094,1.2094,1.2094,1.2094,1.2094,1.2094,1.2094,1.2094,1.2094,1.2094,1.2094,1.2094,1.2094,1.2094,1.2094,1.2094,1.2094,1.2094,1.2094,1.2618,1.2888,1.2833,1.1844,1.1291,1.1181,1.1135,1.1082,1.1021,1.1071,1.1082,0.9087,0.9856,1.086,1.32,1.3804,1.3804,1.3804,1.5126,1.6493,0.0,1.7199,0.0,0.0,0.0,0.0,0.0,0.0,0.0,0.0,0.0,0.0,0.0,0.0,0.0,0.0,0.0,0.0,0.0,0.0,0.0,1.3844,1.3804,1.3804,1.3804,1.3804,1.3804,1.3804,1.3804,1.3804,1.3804,1.3804,1.3804,1.3804,1.3804,1.3804,1.3804,1.3804,1.3804,1.3804,1.3804,1.3804,1.3804,1.3804,1.3804,1.3804,1.3804,1.3804,1.3804,1.3804,1.3804,1.3804,1.3804,1.3804,1.3804,1.3804,1.3804,1.3804,1.3804,1.3804,1.3804,1.3804,1.3804,1.3804,1.3804,1.3804,1.3804,1.3804,1.3804,1.3804,1.3804,1.3871,1.3941,1.404,1.3974,1.3904,1.3804,1.3804,1.3804,1.3804,1.3804,1.3804,1.3804,1.3804,1.3804,1.3804,1.3804,1.3804,1.3804,1.3804,1.3804,1.3804,1.3804,1.3804,1.3804,1.3057,1.2532,1.224,1.1909,1.1726,1.1645,1.14,1.1298,0.7043,0.8652,1.086,1.32,1.3804,1.3804,1.3804,1.3896,1.4589,1.6754,1.7199,0.0,0.0,0.0,0.0,0.0,0.0,0.0,0.0,0.0,0.0,0.0,0.0,0.0,0.0,0.0,0.0,0.0,0.0,0.0,1.387,1.3804,1.3804,1.3804,1.3804,1.3804,1.3804,1.3804,1.3804,1.3804,1.3804,1.3804,1.3804,1.3804,1.3804,1.3804,1.3804,1.3804,1.3804,1.3804,1.3804,1.3804,1.3804,1.3804,1.3804,1.3804,1.3804,1.3804,1.3804,1.3804,1.3804,1.3804,1.3804,1.3804,1.3804,1.3804,1.3804,1.3804,1.3804,1.3804,1.3804,1.3804,1.3804,1.3804,1.3804,1.3804,1.3804,1.3804,1.3804,1.3804,1.4056,1.4381,1.4699,1.4493,1.417,1.3854,1.3804,1.3804,1.3804,1.3804,1.3804,1.3804,1.3804,1.3804,1.3804,1.3804,1.3804,1.3804,1.3804,1.3804,1.3804,1.3804,1.3804,1.3804,1.3754,1.3327,1.2567,1.2288,1.2138,1.2048,1.1859,1.17,0.6866,0.7494,0.8675,1.0978,1.1552,1.1944,1.3464,1.3804,1.404,1.4851,0.0,0.0,0.0,0.0,0.0,0.0,0.0,0.0,0.0,0.0,0.0,0.0,0.0,0.0,0.0,0.0,0.0,0.0,0.0,0.0,1.448,1.4035,1.3804,1.3804,1.3804,1.3804,1.3804,1.3838,1.3838,1.3804,1.3804,1.3804,1.3804,1.3804,1.3804,1.3804,1.3804,1.3804,1.3804,1.3804,1.3804,1.3804,1.3804,1.3804,1.3804,1.3804,1.3804,1.3804,1.3804,1.3804,1.3804,1.3804,1.3804,1.3821,1.3911,1.4026,1.4072,1.3871,1.3804,1.3904,1.4332,1.4445,1.4445,1.4445,1.4445,1.4445,1.4445,1.4105,1.3804,1.3804,1.4235,1.4794,1.5344,1.498,1.4429,1.3888,1.3804,1.3804,1.3804,1.3804,1.3804,1.3804,1.3804,1.3804,1.3804,1.3804,1.3804,1.3804,1.3804,1.3804,1.3804,1.3804,1.3804,1.3804,1.3804,1.359,1.319,1.2918,1.2726,1.2615,1.2354,1.2228,0.5656,0.5711,0.6298,0.8731,0.982,1.0704,1.2272,1.3226,1.3804,1.3804,0.0,0.0,0.0,0.0,0.0,0.0,0.0,0.0,0.0,0.0,0.0,0.0,0.0,0.0,0.0,0.0,0.0,0.0,0.0,0.0,1.4836,1.4375,1.4035,1.3838,1.3838,1.3841,1.3874,1.3891,1.3888,1.3838,1.3804,1.3804,1.3804,1.3804,1.3804,1.3804,1.3804,1.3804,1.3838,1.3858,1.3891,1.3941,1.3957,1.3957,1.3957,1.3957,1.3957,1.3957,1.3957,1.3888,1.3804,1.3804,1.3804,1.3858,1.4176,1.4529,1.4763,1.4529,1.4465,1.4576,1.5026,1.5133,1.5133,1.5133,1.5133,1.5133,1.5133,1.4606,1.4138,1.4138,1.4604,1.5147,1.5697,1.5343,1.4777,1.4219,1.4138,1.4138,1.4138,1.4138,1.4138,1.4138,1.4138,1.4138,1.4138,1.4023,1.3921,1.3804,1.3804,1.3804,1.3804,1.3804,1.3804,1.3804,1.3804,1.3725,1.3594,1.3327,1.3156,1.3052,1.282,1.265,0.0,0.0,0.0,0.6778,0.884,1.0246,1.0311,1.2092,1.3746,1.3841,0.0,0.0,0.0,0.0,0.0,0.0,0.0,0.0,0.0,0.0,0.0,0.0,0.0,0.0,0.0,0.0,0.0,0.0,0.0,1.6139,1.4893,1.48,1.4505,1.3934,1.3921,1.3944,1.4016,1.3944,1.3921,1.3921,1.3854,1.3804,1.3804,1.3804,1.3804,1.3804,1.3804,1.3871,1.3924,1.3997,1.4095,1.4219,1.43,1.4332,1.4332,1.4332,1.4332,1.4332,1.4332,1.4105,1.3838,1.3838,1.3838,1.3957,1.4636,1.5284,1.5799,1.5799,1.5799,1.5799,1.5799,1.5799,1.5799,1.5799,1.5799,1.5799,1.5799,1.5284,1.4839,1.4839,1.5086,1.5418,1.5741,1.5522,1.5193,1.4886,1.4839,1.4839,1.4839,1.4839,1.4839,1.4839,1.4839,1.4839,1.4839,1.4509,1.417,1.3821,1.3804,1.3804,1.3804,1.3804,1.3804,1.3804,1.3804,1.3804,1.3804,1.3539,1.3408,1.3408,1.3215,1.2973,0.6496,0.0,0.0,0.0,0.0,0.0,0.0,0.0,1.2657,0.0,0.0,0.0,0.0,0.0,0.0,0.0,0.0,0.0,0.0,0.0,0.0,0.0,0.0,0.0,0.0,0.0,0.0,0.0,1.69,1.6154,1.5775,1.4869,1.4296,1.4121,1.4219,1.427,1.4303,1.4308,1.4305,1.4268,1.4187,1.4154,1.4154,1.4154,1.4154,1.4154,1.4154,1.4284,1.4477,1.434,1.4358,1.4515,1.4672,1.4735,1.4735,1.4735,1.4735,1.4735,1.4735,1.4639,1.4527,1.4578,1.456,1.4653,1.5314,1.5654,1.5799,1.5799,1.5799,1.5799,1.5799,1.5799,1.5799,1.5799,1.5799,1.5799,1.5799,1.5654,1.5522,1.5522,1.5595,1.5683,1.5784,1.5726,1.5624,1.5551,1.5522,1.5522,1.5522,1.5522,1.5522,1.5522,1.5522,1.5522,1.5522,1.4995,1.4429,1.3838,1.3804,1.3804,1.3804,1.3804,1.3804,1.3804,1.3804,1.3804,1.3804,1.3738,1.3691,1.3687,1.3527,1.331,0.8993,0.8667,0.805,0.8637,0.0,0.0,0.938,1.0683,0.0,0.0,0.0,0.0,0.0,0.0,0.0,0.0,0.0,0.0,0.0,0.0,0.0,0.0,0.0,0.0,0.0,0.0,0.0,0.0,1.7251,1.6558,1.5972,1.4905,1.4367,1.4461,1.4465,1.4545,1.4655,1.4719,1.4735,1.4686,1.4624,1.4592,1.4592,1.4592,1.4592,1.4592,1.4592,1.4733,1.4949,1.4922,1.4907,1.4907,1.5058,1.5134,1.5149,1.5119,1.5134,1.5149,1.5119,1.5118,1.5148,1.518,1.5284,1.5463,1.5841,1.597,1.597,1.597,1.597,1.597,1.597,1.597,1.597,1.597,1.597,1.597,1.597,1.597,1.5927,1.5827,1.5799,1.5799,1.5799,1.5799,1.5799,1.5799,1.5799,1.5799,1.5799,1.5799,1.5799,1.5799,1.5799,1.5799,1.5799,1.5433,1.4934,1.4268,1.4219,1.4219,1.4219,1.3993,1.3858,1.3804,1.3804,1.3804,1.3804,1.3804,1.3804,1.3804,1.3661,1.3497,1.1038,1.0039,0.8421,0.8958,0.0,0.0,0.7952,0.9772,1.1536,0.0,0.0,0.0,0.0,0.0,0.0,0.0,0.0,0.0,0.0,0.0,0.0,0.0,0.0,0.0,0.0,0.0,1.8405,1.7588,1.7525,1.6955,1.5712,1.498,1.4657,1.4839,1.4749,1.4799,1.5058,1.5119,1.5165,1.5149,1.5089,1.5058,1.5058,1.5058,1.5058,1.5058,1.5058,1.5165,1.5359,1.5551,1.5536,1.5374,1.5448,1.5507,1.5551,1.5492,1.5522,1.5551,1.5492,1.5551,1.5668,1.5668,1.5898,1.6194,1.6194,1.6194,1.6194,1.6194,1.6194,1.6194,1.6194,1.6194,1.6194,1.6194,1.6194,1.6194,1.6194,1.6194,1.6125,1.5885,1.5842,1.5842,1.5842,1.5842,1.5842,1.5842,1.5842,1.5842,1.5842,1.5842,1.5842,1.5842,1.5842,1.5842,1.5842,1.5842,1.558,1.4995,1.4949,1.4949,1.4949,1.4404,1.4013,1.3804,1.3804,1.3804,1.3804,1.3804,1.3804,1.3804,1.3678,1.3581,1.2609,1.1934,1.0733,1.0412,0.0,0.0,0.9332,0.9471,0.9908,0.0,0.0,0.0,0.0,0.0,0.0,0.0,0.0,0.0,0.0,0.0,0.0,0.0,0.0,0.0,0.0,0.0,1.7559,1.7225,1.6666,1.6031,1.5331,1.5158,1.5086,1.5117,1.5147,1.5239,1.5404,1.5463,1.5492,1.5492,1.5433,1.5404,1.5404,1.5404,1.5404,1.5404,1.5404,1.5492,1.5623,1.5784,1.5827,1.5799,1.5926,1.5969,1.5983,1.5969,1.5969,1.5983,1.5969,1.5983,1.5997,1.5997,1.6055,1.6141,1.618,1.6194,1.6194,1.6194,1.6194,1.6194,1.6194,1.6194,1.6194,1.6194,1.6194,1.6194,1.6194,1.6194,1.618,1.6139,1.6125,1.6125,1.6125,1.6125,1.6125,1.6125,1.6125,1.6125,1.6125,1.6125,1.6125,1.6125,1.6125,1.6125,1.6125,1.6125,1.6069,1.5941,1.5926,1.5926,1.5926,1.5195,1.4483,1.3804,1.3804,1.3804,1.3804,1.3804,1.3804,1.3804,1.3758,1.3741,1.418,1.3423,1.2252,1.1362,0.0,0.0,0.0,0.9794,0.9728,0.9839,0.0,0.0,0.0,0.0,0.0,0.0,0.0,0.0,0.0,0.0,0.0,0.0,0.0,0.0,0.0,0.0,1.7533,1.7044,1.63,1.5771,1.5551,1.5492,1.5477,1.5551,1.5522,1.558,1.5754,1.5855,1.5898,1.5898,1.587,1.5855,1.5855,1.5855,1.5855,1.5855,1.5855,1.5883,1.5954,1.6011,1.6041,1.6055,1.6097,1.6109,1.6153,1.6109,1.6109,1.6153,1.6109,1.6109,1.6137,1.6109,1.6125,1.6154,1.6194,1.6194,1.6194,1.6194,1.6194,1.6194,1.6194,1.6194,1.6194,1.6194,1.6194,1.6194,1.6194,1.6194,1.6194,1.6194,1.6194,1.6194,1.6194,1.6194,1.6194,1.6194,1.6194,1.6194,1.6194,1.6194,1.6194,1.6194,1.6194,1.6194,1.6194,1.6194,1.6194,1.6194,1.6194,1.6194,1.6194,1.5754,1.509,1.4225,1.3941,1.3804,1.3804,1.3957,1.3957,1.3804,1.3804,1.3804,1.5254,1.4297,0.0,0.0,0.0,0.9986,0.0,0.0,0.0,0.8656,0.0,0.0,0.0,0.0,0.0,0.0,0.0,0.0,0.0,0.0,0.0,0.0,0.0,0.0,0.0,0.0,1.7441,1.6774,1.6021,1.5662,1.5913,1.5826,1.5812,1.5913,1.5812,1.5839,1.601,1.6137,1.6194,1.6194,1.6194,1.6194,1.6194,1.6194,1.6194,1.6194,1.6194,1.6194,1.6194,1.6194,1.6194,1.6194,1.6137,1.6153,1.6194,1.6137,1.6153,1.6194,1.6137,1.6153,1.6194,1.6137,1.6166,1.6194,1.6194,1.6194,1.6194,1.6194,1.6194,1.6194,1.6194,1.6194,1.6194,1.6194,1.6194,1.6194,1.6194,1.6194,1.6194,1.6194,1.6194,1.6194,1.6194,1.6194,1.6194,1.6194,1.6194,1.6194,1.6194,1.6194,1.6194,1.6194,1.6194,1.6194,1.6194,1.6194,1.6194,1.6194,1.6194,1.6194,1.6194,1.6095,1.5595,1.4657,1.4385,1.4238,1.4189,1.4383,1.4252,1.3804,1.3808,1.3821,0.0,0.0,0.0,0.0,1.1969,0.0,0.0,0.0,0.9509,1.0093,0.0,0.0,0.0,0.0,0.0,0.0,0.0,0.0,0.0,0.0,0.0,0.0,0.0,0.0,0.0,0.0,0.0,1.6119,1.547,1.5349,1.5967,1.5968,1.5968,1.5997,1.5968,1.601,1.6095,1.6166,1.6194,1.6194,1.6194,1.6194,1.6194,1.6194,1.6194,1.6194,1.6194,1.6194,1.6194,1.6194,1.6194,1.6194,1.6194,1.6194,1.6194,1.6194,1.6194,1.6194,1.6194,1.6194,1.6194,1.6194,1.6194,1.6194,1.6194,1.6194,1.6194,1.6194,1.6194,1.6194,1.6194,1.6194,1.6194,1.6194,1.6194,1.6194,1.6194,1.6194,1.6194,1.6194,1.6194,1.6194,1.6194,1.6194,1.6194,1.6194,1.6194,1.6194,1.6194,1.6194,1.6194,1.6194,1.6194,1.6194,1.6194,1.6194,1.6194,1.6194,1.6194,1.6194,1.6194,1.6194,1.574,1.4794,1.5536,1.5812,1.5566,1.5313,1.4714,1.3804,1.3848,1.3861,0.0,0.0,0.0,0.0,0.0,0.0,1.1355,0.0,1.0802,0.0,0.0,0.0,0.0,0.0,0.0,0.0,0.0,0.0,0.0,0.0,0.0,0.0,0.0,0.0,0.0,0.0,0.0,0.0,0.0,1.484,1.5497,1.5895,1.6109,1.6109,1.6109,1.6123,1.6166,1.6194,1.6194,1.6194,1.6194,1.6194,1.6194,1.6194,1.6194,1.6194,1.6194,1.6194,1.6194,1.6194,1.6194,1.6194,1.6194,1.6194,1.6194,1.6194,1.6194,1.6194,1.6194,1.6194,1.6208,1.6248,1.6289,1.6316,1.632,1.6332,1.6359,1.6236,1.6194,1.6194,1.6194,1.6194,1.6194,1.6194,1.6194,1.6194,1.6194,1.6194,1.6194,1.6194,1.7499,1.8577,1.8577,1.7268,1.6194,1.6194,1.6194,1.6194,1.6194,1.6194,1.6194,1.6194,1.6194,1.6194,1.6194,1.6194,1.6194,1.6194,1.6194,1.6194,1.6194,1.6194,1.6011,1.5609,1.5997,1.6111,1.5912,1.561,1.5224,1.4722,1.4388,1.4173,1.5313,0.0,0.0,0.0,0.0,0.0,0.0,0.0,0.0,0.0,0.0,0.0,0.0,0.0,0.0,1.2714,0.0,0.0,0.0,0.0,0.0,0.0,0.0,0.0,0.0,0.0,0.0,0.0,0.0,0.0,1.5424,1.5947,1.6194,1.6194,1.6194,1.6194,1.6194,1.6194,1.6194,1.6194,1.6194,1.6194,1.6194,1.6194,1.6194,1.6194,1.6194,1.6208,1.622,1.625,1.6248,1.6248,1.6248,1.6234,1.6236,1.6208,1.6194,1.6194,1.6194,1.6194,1.6207,1.6301,1.6382,1.6452,1.6443,1.651,1.6535,1.6277,1.6194,1.6236,1.64,1.6454,1.6454,1.6454,1.6454,1.6454,1.6454,1.6454,1.6673,1.7451,1.9217,2.0561,2.0561,1.878,1.7069,1.6302,1.6194,1.6194,1.6194,1.6194,1.6194,1.6194,1.6194,1.6194,1.6194,1.6194,1.6194,1.6194,1.6194,1.6194,1.6194,1.6194,1.6194,1.6194,1.6194,1.6153,1.6053,1.5797,1.5609,1.5477,1.4905,1.4497,0.0,0.0,0.0,1.3759,0.0,0.0,0.0,0.0,1.2044,0.0,0.0,0.0,0.0,1.3223,1.2759,1.2801,1.2235,0.0,0.0,0.0,0.0,0.0,0.0,0.0,0.0,0.0,0.0,0.0,0.0,0.0,1.61,1.6193,1.6194,1.6194,1.6194,1.6194,1.6194,1.6194,1.6194,1.6194,1.6194,1.6194,1.6194,1.6194,1.6194,1.6194,1.6194,1.6234,1.6301,1.6371,1.6398,1.6398,1.6398,1.6342,1.6287,1.622,1.6194,1.6194,1.6194,1.6194,1.6222,1.6357,1.649,1.6583,1.6521,1.6641,1.6707,1.6318,1.6194,1.6332,1.6914,1.707,1.707,1.707,1.707,1.707,1.707,1.707,1.7879,2.0615,2.1213,2.1262,2.1262,2.0649,1.927,1.6608,1.6194,1.6194,1.6194,1.6194,1.6194,1.6194,1.6194,1.6194,1.6194,1.6194,1.6194,1.6194,1.6194,1.6194,1.6194,1.6194,1.6194,1.6194,1.6194,1.6194,1.6194,1.5982,1.5825,1.5681,1.5195,1.4813,0.0,0.0,1.4801,1.3867,0.0,0.0,0.0,0.0,0.0,0.0,0.0,0.0,0.0,1.3553,1.2951,1.3391,1.2523,1.1805,0.0,0.0,0.0,0.0,0.0,0.0,0.0,0.0,0.0,0.0,0.0,0.0,0.0,1.5962,1.6194,1.6194,1.6194,1.6194,1.6194,1.6194,1.6194,1.6194,1.6194,1.6194,1.6194,1.6194,1.6194,1.6194,1.6194,1.6262,1.6369,1.649,1.653,1.653,1.653,1.6463,1.6342,1.6234,1.622,1.6274,1.6369,1.6423,1.649,1.6623,1.6704,1.6756,1.692,1.6987,1.7029,1.722,1.7264,1.7301,1.7512,1.7559,1.7559,1.7559,1.7559,1.7559,1.7559,1.9135,2.0822,2.1778,2.1947,2.1947,2.1947,2.1768,2.1152,1.979,1.9571,1.9571,1.9571,1.7746,1.6412,1.6222,1.6194,1.6194,1.6194,1.7869,1.813,1.6302,1.7915,1.81,1.6285,1.6194,1.6194,1.6194,1.6194,1.6194,1.6194,1.6123,1.6081,1.6039,1.5826,1.5448,1.5799,1.5712,0.0,0.0,1.3076,0.0,1.2403,0.0,0.0,0.0,0.0,0.0,0.0,0.0,1.3927,1.4124,1.3032,1.2096,0.0,1.1887,0.0,0.0,0.0,0.0,0.0,0.0,1.2952,1.3798,0.0,0.0,0.0,0.0,1.6015,1.6262,1.6262,1.6262,1.6262,1.6262,1.6275,1.6316,1.633,1.6344,1.6344,1.6344,1.6344,1.6344,1.6344,1.6425,1.6557,1.6701,1.6738,1.6738,1.6738,1.6662,1.6517,1.6275,1.6289,1.6436,1.6554,1.6672,1.6763,1.6904,1.6959,1.7025,1.7269,1.7345,1.7422,1.7709,1.78,1.78,1.78,1.78,1.78,1.78,1.78,1.8087,1.9169,2.0927,2.2296,2.2296,2.2296,2.2296,2.2296,2.2296,2.2152,2.1724,2.1664,2.1664,2.1664,1.9675,1.7743,1.6357,1.7069,1.7669,1.7669,1.9286,1.9532,1.7776,1.9317,1.9501,1.773,1.7331,1.7161,1.7161,1.6747,1.6562,1.6562,1.6331,1.6194,1.6194,1.6123,1.5884]}]]